<?xml version="1.0" encoding="UTF-8" standalone="no" ?>
<gpx xmlns="http://www.topografix.com/GPX/1/1" xmlns:xsi="http://www.w3.org/2001/XMLSchema-instance" xsi:schemaLocation="http://www.topografix.com/GPX/1/1 http://www.topografix.com/GPX/1/1/gpx.xsd" version="1.1" creator="VisuGPX - https://www.visugpx.com">
  <metadata>
    <name>parcours 13</name>
    <desc><![CDATA[l'entrainement continu]]></desc>
  </metadata>
  <trk>
    <name><![CDATA[ACTIVE LOG105703]]></name>
    <trkseg>
      <trkpt lat="48.38235" lon="-4.50636">
        <ele>47.342</ele>
        <time>2010-08-16T08:57:03Z</time>
      </trkpt>
      <trkpt lat="48.38235" lon="-4.50636">
        <ele>47.342</ele>
        <time>2010-08-16T08:57:04Z</time>
      </trkpt>
    </trkseg>
  </trk>
  <trk>
    <name><![CDATA[ACTIVE LOG105730]]></name>
    <trkseg>
      <trkpt lat="48.38235" lon="-4.50636">
        <ele>47.382</ele>
        <time>2010-08-16T08:57:28Z</time>
      </trkpt>
    </trkseg>
  </trk>
  <trk>
    <name><![CDATA[ACTIVE LOG105757]]></name>
    <trkseg>
      <trkpt lat="48.38235" lon="-4.50636">
        <ele>46.756</ele>
        <time>2010-08-16T08:57:55Z</time>
      </trkpt>
      <trkpt lat="48.38235" lon="-4.50636">
        <ele>47.34</ele>
        <time>2010-08-16T08:58:10Z</time>
      </trkpt>
    </trkseg>
  </trk>
  <trk>
    <name><![CDATA[ACTIVE LOG112840]]></name>
    <trkseg>
      <trkpt lat="48.38281" lon="-4.50641">
        <ele>44.898</ele>
        <time>2010-08-16T09:28:38Z</time>
      </trkpt>
      <trkpt lat="48.38282" lon="-4.50641">
        <ele>44.898</ele>
        <time>2010-08-16T09:28:40Z</time>
      </trkpt>
      <trkpt lat="48.38282" lon="-4.50642">
        <ele>44.114</ele>
        <time>2010-08-16T09:28:41Z</time>
      </trkpt>
      <trkpt lat="48.38281" lon="-4.5064">
        <ele>44.66</ele>
        <time>2010-08-16T09:28:49Z</time>
      </trkpt>
    </trkseg>
  </trk>
  <trk>
    <name><![CDATA[ACTIVE LOG112858]]></name>
    <trkseg>
      <trkpt lat="48.38268" lon="-4.5063">
        <ele>45.231</ele>
        <time>2010-08-16T09:28:57Z</time>
      </trkpt>
      <trkpt lat="48.38268" lon="-4.50631">
        <ele>37.574</ele>
        <time>2010-08-16T09:29:02Z</time>
      </trkpt>
      <trkpt lat="48.38268" lon="-4.50632">
        <ele>41.662</ele>
        <time>2010-08-16T09:29:03Z</time>
      </trkpt>
      <trkpt lat="48.38268" lon="-4.50631">
        <ele>45.895</ele>
        <time>2010-08-16T09:29:04Z</time>
      </trkpt>
      <trkpt lat="48.38269" lon="-4.5063">
        <ele>45.039</ele>
        <time>2010-08-16T09:29:05Z</time>
      </trkpt>
      <trkpt lat="48.38268" lon="-4.50627">
        <ele>44.684</ele>
        <time>2010-08-16T09:29:18Z</time>
      </trkpt>
      <trkpt lat="48.38276" lon="-4.50635">
        <ele>45.222</ele>
        <time>2010-08-16T09:29:35Z</time>
      </trkpt>
      <trkpt lat="48.38273" lon="-4.50648">
        <ele>45.379</ele>
        <time>2010-08-16T09:29:40Z</time>
      </trkpt>
      <trkpt lat="48.38281" lon="-4.50714">
        <ele>48.272</ele>
        <time>2010-08-16T09:29:56Z</time>
      </trkpt>
      <trkpt lat="48.38282" lon="-4.50727">
        <ele>49.537</ele>
        <time>2010-08-16T09:29:59Z</time>
      </trkpt>
      <trkpt lat="48.38285" lon="-4.50786">
        <ele>52.649</ele>
        <time>2010-08-16T09:30:13Z</time>
      </trkpt>
      <trkpt lat="48.38289" lon="-4.50831">
        <ele>55.166</ele>
        <time>2010-08-16T09:30:27Z</time>
      </trkpt>
      <trkpt lat="48.38301" lon="-4.50894">
        <ele>55.495</ele>
        <time>2010-08-16T09:30:45Z</time>
      </trkpt>
      <trkpt lat="48.38301" lon="-4.50895">
        <ele>55.695</ele>
        <time>2010-08-16T09:31:09Z</time>
      </trkpt>
      <trkpt lat="48.38307" lon="-4.50907">
        <ele>55.147</ele>
        <time>2010-08-16T09:31:21Z</time>
      </trkpt>
      <trkpt lat="48.38306" lon="-4.50972">
        <ele>57.259</ele>
        <time>2010-08-16T09:31:33Z</time>
      </trkpt>
      <trkpt lat="48.38294" lon="-4.51025">
        <ele>60.362</ele>
        <time>2010-08-16T09:31:45Z</time>
      </trkpt>
      <trkpt lat="48.3828" lon="-4.51086">
        <ele>63.382</ele>
        <time>2010-08-16T09:31:58Z</time>
      </trkpt>
      <trkpt lat="48.3827" lon="-4.5116">
        <ele>66.578</ele>
        <time>2010-08-16T09:32:13Z</time>
      </trkpt>
      <trkpt lat="48.38268" lon="-4.51281">
        <ele>69.317</ele>
        <time>2010-08-16T09:32:34Z</time>
      </trkpt>
      <trkpt lat="48.38272" lon="-4.51455">
        <ele>68.459</ele>
        <time>2010-08-16T09:32:59Z</time>
      </trkpt>
      <trkpt lat="48.38276" lon="-4.5152">
        <ele>69.388</ele>
        <time>2010-08-16T09:33:08Z</time>
      </trkpt>
      <trkpt lat="48.38284" lon="-4.51648">
        <ele>71.992</ele>
        <time>2010-08-16T09:33:27Z</time>
      </trkpt>
      <trkpt lat="48.38292" lon="-4.51779">
        <ele>75.315</ele>
        <time>2010-08-16T09:33:49Z</time>
      </trkpt>
      <trkpt lat="48.38304" lon="-4.51905">
        <ele>78.573</ele>
        <time>2010-08-16T09:34:11Z</time>
      </trkpt>
      <trkpt lat="48.38304" lon="-4.51948">
        <ele>79.327</ele>
        <time>2010-08-16T09:34:18Z</time>
      </trkpt>
      <trkpt lat="48.38327" lon="-4.51987">
        <ele>81.084</ele>
        <time>2010-08-16T09:34:25Z</time>
      </trkpt>
      <trkpt lat="48.38358" lon="-4.51979">
        <ele>83.476</ele>
        <time>2010-08-16T09:34:35Z</time>
      </trkpt>
      <trkpt lat="48.38402" lon="-4.51968">
        <ele>86.208</ele>
        <time>2010-08-16T09:34:49Z</time>
      </trkpt>
      <trkpt lat="48.38402" lon="-4.51982">
        <ele>86.489</ele>
        <time>2010-08-16T09:34:53Z</time>
      </trkpt>
      <trkpt lat="48.38381" lon="-4.52098">
        <ele>88.033</ele>
        <time>2010-08-16T09:35:14Z</time>
      </trkpt>
      <trkpt lat="48.3836" lon="-4.52206">
        <ele>86.898</ele>
        <time>2010-08-16T09:35:32Z</time>
      </trkpt>
      <trkpt lat="48.38345" lon="-4.52277">
        <ele>85.921</ele>
        <time>2010-08-16T09:35:43Z</time>
      </trkpt>
      <trkpt lat="48.38341" lon="-4.52299">
        <ele>84.951</ele>
        <time>2010-08-16T09:35:46Z</time>
      </trkpt>
      <trkpt lat="48.38336" lon="-4.52322">
        <ele>83.892</ele>
        <time>2010-08-16T09:35:49Z</time>
      </trkpt>
      <trkpt lat="48.3833" lon="-4.52352">
        <ele>83.445</ele>
        <time>2010-08-16T09:35:53Z</time>
      </trkpt>
      <trkpt lat="48.38341" lon="-4.52372">
        <ele>83.184</ele>
        <time>2010-08-16T09:35:58Z</time>
      </trkpt>
      <trkpt lat="48.38349" lon="-4.52375">
        <ele>82.983</ele>
        <time>2010-08-16T09:36:00Z</time>
      </trkpt>
      <trkpt lat="48.38358" lon="-4.52397">
        <ele>84.724</ele>
        <time>2010-08-16T09:36:05Z</time>
      </trkpt>
      <trkpt lat="48.38345" lon="-4.52452">
        <ele>86.586</ele>
        <time>2010-08-16T09:36:15Z</time>
      </trkpt>
      <trkpt lat="48.3833" lon="-4.52546">
        <ele>89.163</ele>
        <time>2010-08-16T09:36:30Z</time>
      </trkpt>
      <trkpt lat="48.38328" lon="-4.52571">
        <ele>89.389</ele>
        <time>2010-08-16T09:36:34Z</time>
      </trkpt>
      <trkpt lat="48.38318" lon="-4.52674">
        <ele>91.627</ele>
        <time>2010-08-16T09:36:50Z</time>
      </trkpt>
      <trkpt lat="48.38312" lon="-4.52739">
        <ele>92.177</ele>
        <time>2010-08-16T09:37:00Z</time>
      </trkpt>
      <trkpt lat="48.3831" lon="-4.52759">
        <ele>93.026</ele>
        <time>2010-08-16T09:37:03Z</time>
      </trkpt>
      <trkpt lat="48.38309" lon="-4.52787">
        <ele>92.862</ele>
        <time>2010-08-16T09:37:07Z</time>
      </trkpt>
      <trkpt lat="48.38304" lon="-4.52961">
        <ele>94.437</ele>
        <time>2010-08-16T09:37:31Z</time>
      </trkpt>
      <trkpt lat="48.38302" lon="-4.53087">
        <ele>92.329</ele>
        <time>2010-08-16T09:37:48Z</time>
      </trkpt>
      <trkpt lat="48.38313" lon="-4.53121">
        <ele>91.584</ele>
        <time>2010-08-16T09:37:53Z</time>
      </trkpt>
      <trkpt lat="48.38323" lon="-4.53146">
        <ele>91.629</ele>
        <time>2010-08-16T09:37:58Z</time>
      </trkpt>
      <trkpt lat="48.38323" lon="-4.53332">
        <ele>91.567</ele>
        <time>2010-08-16T09:38:21Z</time>
      </trkpt>
      <trkpt lat="48.38323" lon="-4.53496">
        <ele>91.855</ele>
        <time>2010-08-16T09:38:41Z</time>
      </trkpt>
      <trkpt lat="48.38317" lon="-4.53609">
        <ele>92.653</ele>
        <time>2010-08-16T09:38:58Z</time>
      </trkpt>
      <trkpt lat="48.38317" lon="-4.53609">
        <ele>92.633</ele>
        <time>2010-08-16T09:39:16Z</time>
      </trkpt>
      <trkpt lat="48.38314" lon="-4.53634">
        <ele>91.964</ele>
        <time>2010-08-16T09:39:34Z</time>
      </trkpt>
      <trkpt lat="48.3831" lon="-4.53663">
        <ele>92.644</ele>
        <time>2010-08-16T09:39:38Z</time>
      </trkpt>
      <trkpt lat="48.38293" lon="-4.53813">
        <ele>91.493</ele>
        <time>2010-08-16T09:39:57Z</time>
      </trkpt>
      <trkpt lat="48.38293" lon="-4.53826">
        <ele>91.302</ele>
        <time>2010-08-16T09:39:59Z</time>
      </trkpt>
      <trkpt lat="48.38293" lon="-4.53826">
        <ele>91.81</ele>
        <time>2010-08-16T09:40:02Z</time>
      </trkpt>
      <trkpt lat="48.3828" lon="-4.53868">
        <ele>91.56</ele>
        <time>2010-08-16T09:40:06Z</time>
      </trkpt>
      <trkpt lat="48.3828" lon="-4.54031">
        <ele>88.841</ele>
        <time>2010-08-16T09:40:24Z</time>
      </trkpt>
      <trkpt lat="48.38274" lon="-4.54133">
        <ele>85.621</ele>
        <time>2010-08-16T09:40:35Z</time>
      </trkpt>
      <trkpt lat="48.38274" lon="-4.54143">
        <ele>85.71</ele>
        <time>2010-08-16T09:40:36Z</time>
      </trkpt>
      <trkpt lat="48.38272" lon="-4.54166">
        <ele>85.834</ele>
        <time>2010-08-16T09:40:38Z</time>
      </trkpt>
      <trkpt lat="48.38254" lon="-4.54225">
        <ele>84.862</ele>
        <time>2010-08-16T09:40:44Z</time>
      </trkpt>
      <trkpt lat="48.38213" lon="-4.54297">
        <ele>83.946</ele>
        <time>2010-08-16T09:40:53Z</time>
      </trkpt>
      <trkpt lat="48.38202" lon="-4.54336">
        <ele>83.341</ele>
        <time>2010-08-16T09:40:57Z</time>
      </trkpt>
      <trkpt lat="48.38187" lon="-4.54515">
        <ele>80.537</ele>
        <time>2010-08-16T09:41:14Z</time>
      </trkpt>
      <trkpt lat="48.38178" lon="-4.54624">
        <ele>77.827</ele>
        <time>2010-08-16T09:41:24Z</time>
      </trkpt>
      <trkpt lat="48.38157" lon="-4.54657">
        <ele>78.181</ele>
        <time>2010-08-16T09:41:28Z</time>
      </trkpt>
      <trkpt lat="48.38074" lon="-4.54801">
        <ele>76.021</ele>
        <time>2010-08-16T09:41:45Z</time>
      </trkpt>
      <trkpt lat="48.38033" lon="-4.54882">
        <ele>74.828</ele>
        <time>2010-08-16T09:41:55Z</time>
      </trkpt>
      <trkpt lat="48.37961" lon="-4.5504">
        <ele>73.77</ele>
        <time>2010-08-16T09:42:12Z</time>
      </trkpt>
      <trkpt lat="48.37916" lon="-4.55121">
        <ele>76.815</ele>
        <time>2010-08-16T09:42:24Z</time>
      </trkpt>
      <trkpt lat="48.37852" lon="-4.55247">
        <ele>78.718</ele>
        <time>2010-08-16T09:42:44Z</time>
      </trkpt>
      <trkpt lat="48.3781" lon="-4.55396">
        <ele>79.438</ele>
        <time>2010-08-16T09:43:03Z</time>
      </trkpt>
      <trkpt lat="48.37807" lon="-4.55404">
        <ele>79.597</ele>
        <time>2010-08-16T09:43:04Z</time>
      </trkpt>
      <trkpt lat="48.37785" lon="-4.55448">
        <ele>80.372</ele>
        <time>2010-08-16T09:43:10Z</time>
      </trkpt>
      <trkpt lat="48.37749" lon="-4.55596">
        <ele>80.635</ele>
        <time>2010-08-16T09:43:28Z</time>
      </trkpt>
      <trkpt lat="48.3774" lon="-4.55647">
        <ele>81.949</ele>
        <time>2010-08-16T09:43:34Z</time>
      </trkpt>
      <trkpt lat="48.37725" lon="-4.55678">
        <ele>83.007</ele>
        <time>2010-08-16T09:43:39Z</time>
      </trkpt>
      <trkpt lat="48.3771" lon="-4.55688">
        <ele>83.165</ele>
        <time>2010-08-16T09:43:42Z</time>
      </trkpt>
      <trkpt lat="48.37679" lon="-4.55733">
        <ele>81.498</ele>
        <time>2010-08-16T09:43:50Z</time>
      </trkpt>
      <trkpt lat="48.37682" lon="-4.55771">
        <ele>81.462</ele>
        <time>2010-08-16T09:43:54Z</time>
      </trkpt>
      <trkpt lat="48.37694" lon="-4.55838">
        <ele>80.552</ele>
        <time>2010-08-16T09:44:01Z</time>
      </trkpt>
      <trkpt lat="48.37697" lon="-4.55907">
        <ele>77.018</ele>
        <time>2010-08-16T09:44:10Z</time>
      </trkpt>
      <trkpt lat="48.37687" lon="-4.55969">
        <ele>76.715</ele>
        <time>2010-08-16T09:44:13Z</time>
      </trkpt>
      <trkpt lat="48.3768" lon="-4.56021">
        <ele>77.208</ele>
        <time>2010-08-16T09:44:18Z</time>
      </trkpt>
      <trkpt lat="48.37658" lon="-4.56108">
        <ele>80.679</ele>
        <time>2010-08-16T09:44:29Z</time>
      </trkpt>
      <trkpt lat="48.37655" lon="-4.56114">
        <ele>80.911</ele>
        <time>2010-08-16T09:44:30Z</time>
      </trkpt>
      <trkpt lat="48.37622" lon="-4.56263">
        <ele>83.179</ele>
        <time>2010-08-16T09:44:49Z</time>
      </trkpt>
      <trkpt lat="48.3757" lon="-4.56397">
        <ele>85.265</ele>
        <time>2010-08-16T09:45:07Z</time>
      </trkpt>
      <trkpt lat="48.37551" lon="-4.56449">
        <ele>85.805</ele>
        <time>2010-08-16T09:45:14Z</time>
      </trkpt>
      <trkpt lat="48.37508" lon="-4.56467">
        <ele>84.6</ele>
        <time>2010-08-16T09:45:21Z</time>
      </trkpt>
      <trkpt lat="48.37478" lon="-4.56459">
        <ele>84.489</ele>
        <time>2010-08-16T09:45:26Z</time>
      </trkpt>
      <trkpt lat="48.37459" lon="-4.56467">
        <ele>84.525</ele>
        <time>2010-08-16T09:45:30Z</time>
      </trkpt>
      <trkpt lat="48.3744" lon="-4.56589">
        <ele>83.527</ele>
        <time>2010-08-16T09:45:45Z</time>
      </trkpt>
      <trkpt lat="48.37417" lon="-4.56696">
        <ele>82.067</ele>
        <time>2010-08-16T09:45:56Z</time>
      </trkpt>
      <trkpt lat="48.37405" lon="-4.568">
        <ele>81.047</ele>
        <time>2010-08-16T09:46:06Z</time>
      </trkpt>
      <trkpt lat="48.37401" lon="-4.56842">
        <ele>81.972</ele>
        <time>2010-08-16T09:46:11Z</time>
      </trkpt>
      <trkpt lat="48.374" lon="-4.56879">
        <ele>81.13</ele>
        <time>2010-08-16T09:46:16Z</time>
      </trkpt>
      <trkpt lat="48.374" lon="-4.57038">
        <ele>79.906</ele>
        <time>2010-08-16T09:46:33Z</time>
      </trkpt>
      <trkpt lat="48.37394" lon="-4.57134">
        <ele>76.535</ele>
        <time>2010-08-16T09:46:42Z</time>
      </trkpt>
      <trkpt lat="48.37393" lon="-4.57146">
        <ele>76.502</ele>
        <time>2010-08-16T09:46:43Z</time>
      </trkpt>
      <trkpt lat="48.37387" lon="-4.57241">
        <ele>74.483</ele>
        <time>2010-08-16T09:46:51Z</time>
      </trkpt>
      <trkpt lat="48.37381" lon="-4.57324">
        <ele>74.859</ele>
        <time>2010-08-16T09:46:59Z</time>
      </trkpt>
      <trkpt lat="48.3738" lon="-4.57345">
        <ele>77.031</ele>
        <time>2010-08-16T09:47:02Z</time>
      </trkpt>
      <trkpt lat="48.37379" lon="-4.57366">
        <ele>78.264</ele>
        <time>2010-08-16T09:47:06Z</time>
      </trkpt>
      <trkpt lat="48.37421" lon="-4.57384">
        <ele>80.567</ele>
        <time>2010-08-16T09:47:13Z</time>
      </trkpt>
      <trkpt lat="48.37457" lon="-4.57404">
        <ele>83.569</ele>
        <time>2010-08-16T09:47:24Z</time>
      </trkpt>
      <trkpt lat="48.37507" lon="-4.57432">
        <ele>87.027</ele>
        <time>2010-08-16T09:47:38Z</time>
      </trkpt>
      <trkpt lat="48.37559" lon="-4.5746">
        <ele>88.396</ele>
        <time>2010-08-16T09:47:55Z</time>
      </trkpt>
      <trkpt lat="48.3757" lon="-4.57482">
        <ele>88.293</ele>
        <time>2010-08-16T09:48:01Z</time>
      </trkpt>
      <trkpt lat="48.37518" lon="-4.57671">
        <ele>87.239</ele>
        <time>2010-08-16T09:48:24Z</time>
      </trkpt>
      <trkpt lat="48.37465" lon="-4.57852">
        <ele>86.096</ele>
        <time>2010-08-16T09:48:46Z</time>
      </trkpt>
      <trkpt lat="48.37449" lon="-4.57955">
        <ele>86.332</ele>
        <time>2010-08-16T09:48:58Z</time>
      </trkpt>
      <trkpt lat="48.37445" lon="-4.57993">
        <ele>86.719</ele>
        <time>2010-08-16T09:49:03Z</time>
      </trkpt>
      <trkpt lat="48.37443" lon="-4.58014">
        <ele>86.892</ele>
        <time>2010-08-16T09:49:12Z</time>
      </trkpt>
      <trkpt lat="48.37439" lon="-4.58088">
        <ele>85.821</ele>
        <time>2010-08-16T09:49:18Z</time>
      </trkpt>
      <trkpt lat="48.37409" lon="-4.58278">
        <ele>84.304</ele>
        <time>2010-08-16T09:49:37Z</time>
      </trkpt>
      <trkpt lat="48.37386" lon="-4.58439">
        <ele>86.203</ele>
        <time>2010-08-16T09:49:53Z</time>
      </trkpt>
      <trkpt lat="48.37385" lon="-4.5846">
        <ele>85.257</ele>
        <time>2010-08-16T09:49:55Z</time>
      </trkpt>
      <trkpt lat="48.37363" lon="-4.58713">
        <ele>86.454</ele>
        <time>2010-08-16T09:50:21Z</time>
      </trkpt>
      <trkpt lat="48.3736" lon="-4.58731">
        <ele>87.08</ele>
        <time>2010-08-16T09:50:23Z</time>
      </trkpt>
      <trkpt lat="48.37327" lon="-4.58846">
        <ele>87.139</ele>
        <time>2010-08-16T09:50:37Z</time>
      </trkpt>
      <trkpt lat="48.37282" lon="-4.58979">
        <ele>88.216</ele>
        <time>2010-08-16T09:50:54Z</time>
      </trkpt>
      <trkpt lat="48.37237" lon="-4.59073">
        <ele>86.991</ele>
        <time>2010-08-16T09:51:06Z</time>
      </trkpt>
      <trkpt lat="48.37217" lon="-4.59108">
        <ele>86.773</ele>
        <time>2010-08-16T09:51:11Z</time>
      </trkpt>
      <trkpt lat="48.37225" lon="-4.59143">
        <ele>86.214</ele>
        <time>2010-08-16T09:51:14Z</time>
      </trkpt>
      <trkpt lat="48.37194" lon="-4.59174">
        <ele>86.136</ele>
        <time>2010-08-16T09:51:18Z</time>
      </trkpt>
      <trkpt lat="48.37165" lon="-4.5931">
        <ele>85.081</ele>
        <time>2010-08-16T09:51:32Z</time>
      </trkpt>
      <trkpt lat="48.37148" lon="-4.59443">
        <ele>84.857</ele>
        <time>2010-08-16T09:51:47Z</time>
      </trkpt>
      <trkpt lat="48.37157" lon="-4.59627">
        <ele>82.844</ele>
        <time>2010-08-16T09:52:06Z</time>
      </trkpt>
      <trkpt lat="48.37158" lon="-4.59722">
        <ele>82.713</ele>
        <time>2010-08-16T09:52:16Z</time>
      </trkpt>
      <trkpt lat="48.37143" lon="-4.5974">
        <ele>83.272</ele>
        <time>2010-08-16T09:52:21Z</time>
      </trkpt>
      <trkpt lat="48.37132" lon="-4.5973">
        <ele>83.174</ele>
        <time>2010-08-16T09:52:23Z</time>
      </trkpt>
      <trkpt lat="48.37034" lon="-4.59643">
        <ele>82.85</ele>
        <time>2010-08-16T09:52:38Z</time>
      </trkpt>
      <trkpt lat="48.36875" lon="-4.59542">
        <ele>82.806</ele>
        <time>2010-08-16T09:52:58Z</time>
      </trkpt>
      <trkpt lat="48.36784" lon="-4.5947">
        <ele>84.4</ele>
        <time>2010-08-16T09:53:10Z</time>
      </trkpt>
      <trkpt lat="48.36778" lon="-4.59462">
        <ele>84.546</ele>
        <time>2010-08-16T09:53:11Z</time>
      </trkpt>
      <trkpt lat="48.36757" lon="-4.59408">
        <ele>85.256</ele>
        <time>2010-08-16T09:53:17Z</time>
      </trkpt>
      <trkpt lat="48.36707" lon="-4.59245">
        <ele>86.676</ele>
        <time>2010-08-16T09:53:36Z</time>
      </trkpt>
      <trkpt lat="48.3669" lon="-4.59195">
        <ele>87.125</ele>
        <time>2010-08-16T09:53:42Z</time>
      </trkpt>
      <trkpt lat="48.36664" lon="-4.59188">
        <ele>86.725</ele>
        <time>2010-08-16T09:53:48Z</time>
      </trkpt>
      <trkpt lat="48.36662" lon="-4.59194">
        <ele>87.045</ele>
        <time>2010-08-16T09:53:49Z</time>
      </trkpt>
      <trkpt lat="48.3661" lon="-4.59347">
        <ele>85.511</ele>
        <time>2010-08-16T09:54:08Z</time>
      </trkpt>
      <trkpt lat="48.36546" lon="-4.59556">
        <ele>84.633</ele>
        <time>2010-08-16T09:54:31Z</time>
      </trkpt>
      <trkpt lat="48.36461" lon="-4.59795">
        <ele>82.043</ele>
        <time>2010-08-16T09:54:57Z</time>
      </trkpt>
      <trkpt lat="48.36406" lon="-4.59929">
        <ele>78.617</ele>
        <time>2010-08-16T09:55:10Z</time>
      </trkpt>
      <trkpt lat="48.36363" lon="-4.60027">
        <ele>78.376</ele>
        <time>2010-08-16T09:55:20Z</time>
      </trkpt>
      <trkpt lat="48.36317" lon="-4.6005">
        <ele>78.33</ele>
        <time>2010-08-16T09:55:28Z</time>
      </trkpt>
      <trkpt lat="48.36305" lon="-4.60046">
        <ele>78.652</ele>
        <time>2010-08-16T09:55:30Z</time>
      </trkpt>
      <trkpt lat="48.36282" lon="-4.60084">
        <ele>78.45</ele>
        <time>2010-08-16T09:55:36Z</time>
      </trkpt>
      <trkpt lat="48.36247" lon="-4.60341">
        <ele>79.536</ele>
        <time>2010-08-16T09:56:01Z</time>
      </trkpt>
      <trkpt lat="48.36212" lon="-4.60561">
        <ele>80.079</ele>
        <time>2010-08-16T09:56:25Z</time>
      </trkpt>
      <trkpt lat="48.36193" lon="-4.60749">
        <ele>81.892</ele>
        <time>2010-08-16T09:56:46Z</time>
      </trkpt>
      <trkpt lat="48.36186" lon="-4.6088">
        <ele>80.675</ele>
        <time>2010-08-16T09:57:00Z</time>
      </trkpt>
      <trkpt lat="48.36168" lon="-4.61162">
        <ele>83.45</ele>
        <time>2010-08-16T09:57:28Z</time>
      </trkpt>
      <trkpt lat="48.36165" lon="-4.61351">
        <ele>84.415</ele>
        <time>2010-08-16T09:57:47Z</time>
      </trkpt>
      <trkpt lat="48.36179" lon="-4.61628">
        <ele>82.809</ele>
        <time>2010-08-16T09:58:14Z</time>
      </trkpt>
      <trkpt lat="48.36188" lon="-4.61856">
        <ele>82.005</ele>
        <time>2010-08-16T09:58:36Z</time>
      </trkpt>
      <trkpt lat="48.3616" lon="-4.61994">
        <ele>81.661</ele>
        <time>2010-08-16T09:58:50Z</time>
      </trkpt>
      <trkpt lat="48.36074" lon="-4.62122">
        <ele>80.954</ele>
        <time>2010-08-16T09:59:07Z</time>
      </trkpt>
      <trkpt lat="48.35979" lon="-4.62275">
        <ele>79.864</ele>
        <time>2010-08-16T09:59:25Z</time>
      </trkpt>
      <trkpt lat="48.35932" lon="-4.62429">
        <ele>76.834</ele>
        <time>2010-08-16T09:59:39Z</time>
      </trkpt>
      <trkpt lat="48.35896" lon="-4.62646">
        <ele>74.186</ele>
        <time>2010-08-16T09:59:57Z</time>
      </trkpt>
      <trkpt lat="48.35877" lon="-4.62936">
        <ele>72.272</ele>
        <time>2010-08-16T10:00:22Z</time>
      </trkpt>
      <trkpt lat="48.35874" lon="-4.63212">
        <ele>71.754</ele>
        <time>2010-08-16T10:00:44Z</time>
      </trkpt>
      <trkpt lat="48.35877" lon="-4.63385">
        <ele>67.791</ele>
        <time>2010-08-16T10:00:59Z</time>
      </trkpt>
      <trkpt lat="48.35877" lon="-4.63397">
        <ele>67.606</ele>
        <time>2010-08-16T10:01:00Z</time>
      </trkpt>
      <trkpt lat="48.35877" lon="-4.6343">
        <ele>69.03</ele>
        <time>2010-08-16T10:01:04Z</time>
      </trkpt>
      <trkpt lat="48.35877" lon="-4.63546">
        <ele>65.656</ele>
        <time>2010-08-16T10:01:12Z</time>
      </trkpt>
      <trkpt lat="48.35878" lon="-4.63701">
        <ele>64.064</ele>
        <time>2010-08-16T10:01:24Z</time>
      </trkpt>
      <trkpt lat="48.35907" lon="-4.63743">
        <ele>62.259</ele>
        <time>2010-08-16T10:01:30Z</time>
      </trkpt>
      <trkpt lat="48.36082" lon="-4.63871">
        <ele>58.967</ele>
        <time>2010-08-16T10:01:52Z</time>
      </trkpt>
      <trkpt lat="48.36198" lon="-4.63924">
        <ele>59.867</ele>
        <time>2010-08-16T10:02:09Z</time>
      </trkpt>
      <trkpt lat="48.36318" lon="-4.63989">
        <ele>59.308</ele>
        <time>2010-08-16T10:02:29Z</time>
      </trkpt>
      <trkpt lat="48.36456" lon="-4.64112">
        <ele>58.559</ele>
        <time>2010-08-16T10:02:54Z</time>
      </trkpt>
      <trkpt lat="48.36578" lon="-4.64195">
        <ele>59.947</ele>
        <time>2010-08-16T10:03:15Z</time>
      </trkpt>
      <trkpt lat="48.3668" lon="-4.64233">
        <ele>61.262</ele>
        <time>2010-08-16T10:03:34Z</time>
      </trkpt>
      <trkpt lat="48.36756" lon="-4.6426">
        <ele>59.941</ele>
        <time>2010-08-16T10:03:48Z</time>
      </trkpt>
      <trkpt lat="48.3685" lon="-4.64283">
        <ele>56.759</ele>
        <time>2010-08-16T10:04:03Z</time>
      </trkpt>
      <trkpt lat="48.36857" lon="-4.64284">
        <ele>56.663</ele>
        <time>2010-08-16T10:04:04Z</time>
      </trkpt>
      <trkpt lat="48.36904" lon="-4.64287">
        <ele>53.478</ele>
        <time>2010-08-16T10:04:10Z</time>
      </trkpt>
      <trkpt lat="48.36912" lon="-4.64287">
        <ele>53.384</ele>
        <time>2010-08-16T10:04:11Z</time>
      </trkpt>
      <trkpt lat="48.36952" lon="-4.64285">
        <ele>52.412</ele>
        <time>2010-08-16T10:04:16Z</time>
      </trkpt>
      <trkpt lat="48.36963" lon="-4.64284">
        <ele>52.822</ele>
        <time>2010-08-16T10:04:19Z</time>
      </trkpt>
      <trkpt lat="48.36999" lon="-4.64295">
        <ele>50.967</ele>
        <time>2010-08-16T10:04:23Z</time>
      </trkpt>
      <trkpt lat="48.37006" lon="-4.64297">
        <ele>50.763</ele>
        <time>2010-08-16T10:04:24Z</time>
      </trkpt>
      <trkpt lat="48.37079" lon="-4.64318">
        <ele>51.442</ele>
        <time>2010-08-16T10:04:35Z</time>
      </trkpt>
      <trkpt lat="48.37104" lon="-4.64325">
        <ele>51.118</ele>
        <time>2010-08-16T10:04:38Z</time>
      </trkpt>
      <trkpt lat="48.37188" lon="-4.64368">
        <ele>48.827</ele>
        <time>2010-08-16T10:04:51Z</time>
      </trkpt>
      <trkpt lat="48.37297" lon="-4.644">
        <ele>46.501</ele>
        <time>2010-08-16T10:05:05Z</time>
      </trkpt>
      <trkpt lat="48.37304" lon="-4.644">
        <ele>46.703</ele>
        <time>2010-08-16T10:05:06Z</time>
      </trkpt>
      <trkpt lat="48.37319" lon="-4.644">
        <ele>46.37</ele>
        <time>2010-08-16T10:05:09Z</time>
      </trkpt>
      <trkpt lat="48.37341" lon="-4.64418">
        <ele>47.818</ele>
        <time>2010-08-16T10:05:13Z</time>
      </trkpt>
      <trkpt lat="48.37354" lon="-4.64431">
        <ele>49.121</ele>
        <time>2010-08-16T10:05:16Z</time>
      </trkpt>
      <trkpt lat="48.37373" lon="-4.6445">
        <ele>49.24</ele>
        <time>2010-08-16T10:05:21Z</time>
      </trkpt>
      <trkpt lat="48.37449" lon="-4.64501">
        <ele>50.501</ele>
        <time>2010-08-16T10:05:37Z</time>
      </trkpt>
      <trkpt lat="48.37443" lon="-4.64527">
        <ele>51.617</ele>
        <time>2010-08-16T10:05:42Z</time>
      </trkpt>
      <trkpt lat="48.37403" lon="-4.64629">
        <ele>54.766</ele>
        <time>2010-08-16T10:05:57Z</time>
      </trkpt>
      <trkpt lat="48.37352" lon="-4.64768">
        <ele>56.858</ele>
        <time>2010-08-16T10:06:18Z</time>
      </trkpt>
      <trkpt lat="48.37292" lon="-4.6488">
        <ele>56.74</ele>
        <time>2010-08-16T10:06:34Z</time>
      </trkpt>
      <trkpt lat="48.37281" lon="-4.64899">
        <ele>58.282</ele>
        <time>2010-08-16T10:06:37Z</time>
      </trkpt>
      <trkpt lat="48.37184" lon="-4.65073">
        <ele>60.745</ele>
        <time>2010-08-16T10:07:04Z</time>
      </trkpt>
      <trkpt lat="48.37137" lon="-4.65219">
        <ele>62.786</ele>
        <time>2010-08-16T10:07:23Z</time>
      </trkpt>
      <trkpt lat="48.3708" lon="-4.6543">
        <ele>64.074</ele>
        <time>2010-08-16T10:07:48Z</time>
      </trkpt>
      <trkpt lat="48.37029" lon="-4.65623">
        <ele>65.193</ele>
        <time>2010-08-16T10:08:11Z</time>
      </trkpt>
      <trkpt lat="48.37025" lon="-4.65638">
        <ele>65.834</ele>
        <time>2010-08-16T10:08:13Z</time>
      </trkpt>
      <trkpt lat="48.37034" lon="-4.65673">
        <ele>63.677</ele>
        <time>2010-08-16T10:08:19Z</time>
      </trkpt>
      <trkpt lat="48.37057" lon="-4.65685">
        <ele>62.295</ele>
        <time>2010-08-16T10:08:23Z</time>
      </trkpt>
      <trkpt lat="48.37095" lon="-4.65698">
        <ele>60.183</ele>
        <time>2010-08-16T10:08:29Z</time>
      </trkpt>
      <trkpt lat="48.37217" lon="-4.65708">
        <ele>55.641</ele>
        <time>2010-08-16T10:08:46Z</time>
      </trkpt>
      <trkpt lat="48.37312" lon="-4.65722">
        <ele>52.501</ele>
        <time>2010-08-16T10:08:59Z</time>
      </trkpt>
      <trkpt lat="48.37324" lon="-4.65731">
        <ele>51.841</ele>
        <time>2010-08-16T10:09:01Z</time>
      </trkpt>
      <trkpt lat="48.37396" lon="-4.65779">
        <ele>49.847</ele>
        <time>2010-08-16T10:09:12Z</time>
      </trkpt>
      <trkpt lat="48.37438" lon="-4.65813">
        <ele>51.519</ele>
        <time>2010-08-16T10:09:19Z</time>
      </trkpt>
      <trkpt lat="48.37465" lon="-4.65835">
        <ele>53.119</ele>
        <time>2010-08-16T10:09:24Z</time>
      </trkpt>
      <trkpt lat="48.37498" lon="-4.65871">
        <ele>53.884</ele>
        <time>2010-08-16T10:09:31Z</time>
      </trkpt>
      <trkpt lat="48.37536" lon="-4.65892">
        <ele>55.842</ele>
        <time>2010-08-16T10:09:39Z</time>
      </trkpt>
      <trkpt lat="48.3757" lon="-4.65929">
        <ele>57.983</ele>
        <time>2010-08-16T10:09:48Z</time>
      </trkpt>
      <trkpt lat="48.37581" lon="-4.65941">
        <ele>58.821</ele>
        <time>2010-08-16T10:09:51Z</time>
      </trkpt>
      <trkpt lat="48.37605" lon="-4.65976">
        <ele>61.995</ele>
        <time>2010-08-16T10:10:00Z</time>
      </trkpt>
      <trkpt lat="48.37627" lon="-4.66012">
        <ele>65.626</ele>
        <time>2010-08-16T10:10:11Z</time>
      </trkpt>
      <trkpt lat="48.37643" lon="-4.66044">
        <ele>68.073</ele>
        <time>2010-08-16T10:10:20Z</time>
      </trkpt>
      <trkpt lat="48.37649" lon="-4.66071">
        <ele>69.611</ele>
        <time>2010-08-16T10:10:26Z</time>
      </trkpt>
      <trkpt lat="48.37661" lon="-4.66148">
        <ele>71.682</ele>
        <time>2010-08-16T10:10:43Z</time>
      </trkpt>
      <trkpt lat="48.3768" lon="-4.66244">
        <ele>72.442</ele>
        <time>2010-08-16T10:11:02Z</time>
      </trkpt>
      <trkpt lat="48.37717" lon="-4.66352">
        <ele>73.917</ele>
        <time>2010-08-16T10:11:22Z</time>
      </trkpt>
      <trkpt lat="48.37731" lon="-4.66395">
        <ele>74.742</ele>
        <time>2010-08-16T10:11:31Z</time>
      </trkpt>
      <trkpt lat="48.37746" lon="-4.66521">
        <ele>75.062</ele>
        <time>2010-08-16T10:11:46Z</time>
      </trkpt>
      <trkpt lat="48.37733" lon="-4.6656">
        <ele>73.893</ele>
        <time>2010-08-16T10:11:51Z</time>
      </trkpt>
      <trkpt lat="48.37668" lon="-4.66676">
        <ele>75.393</ele>
        <time>2010-08-16T10:12:07Z</time>
      </trkpt>
      <trkpt lat="48.37611" lon="-4.66793">
        <ele>76.13</ele>
        <time>2010-08-16T10:12:24Z</time>
      </trkpt>
      <trkpt lat="48.37563" lon="-4.66928">
        <ele>76.57</ele>
        <time>2010-08-16T10:12:42Z</time>
      </trkpt>
      <trkpt lat="48.37512" lon="-4.67057">
        <ele>73.174</ele>
        <time>2010-08-16T10:12:57Z</time>
      </trkpt>
      <trkpt lat="48.37494" lon="-4.67148">
        <ele>71.301</ele>
        <time>2010-08-16T10:13:06Z</time>
      </trkpt>
      <trkpt lat="48.37502" lon="-4.67165">
        <ele>70.777</ele>
        <time>2010-08-16T10:13:13Z</time>
      </trkpt>
      <trkpt lat="48.37565" lon="-4.6717">
        <ele>73.493</ele>
        <time>2010-08-16T10:13:26Z</time>
      </trkpt>
      <trkpt lat="48.37615" lon="-4.67174">
        <ele>75.804</ele>
        <time>2010-08-16T10:13:36Z</time>
      </trkpt>
      <trkpt lat="48.37664" lon="-4.67173">
        <ele>77.006</ele>
        <time>2010-08-16T10:13:46Z</time>
      </trkpt>
      <trkpt lat="48.37775" lon="-4.67155">
        <ele>76.552</ele>
        <time>2010-08-16T10:14:08Z</time>
      </trkpt>
      <trkpt lat="48.37791" lon="-4.67153">
        <ele>78.523</ele>
        <time>2010-08-16T10:14:11Z</time>
      </trkpt>
      <trkpt lat="48.37896" lon="-4.67113">
        <ele>79.3</ele>
        <time>2010-08-16T10:14:32Z</time>
      </trkpt>
      <trkpt lat="48.37993" lon="-4.67074">
        <ele>81.926</ele>
        <time>2010-08-16T10:14:52Z</time>
      </trkpt>
      <trkpt lat="48.38101" lon="-4.67018">
        <ele>83.072</ele>
        <time>2010-08-16T10:15:15Z</time>
      </trkpt>
      <trkpt lat="48.38109" lon="-4.67012">
        <ele>83.922</ele>
        <time>2010-08-16T10:15:17Z</time>
      </trkpt>
      <trkpt lat="48.38138" lon="-4.67004">
        <ele>83.635</ele>
        <time>2010-08-16T10:15:23Z</time>
      </trkpt>
      <trkpt lat="48.38248" lon="-4.67043">
        <ele>85.301</ele>
        <time>2010-08-16T10:15:45Z</time>
      </trkpt>
      <trkpt lat="48.38305" lon="-4.67068">
        <ele>85.777</ele>
        <time>2010-08-16T10:15:56Z</time>
      </trkpt>
      <trkpt lat="48.38423" lon="-4.67121">
        <ele>86.822</ele>
        <time>2010-08-16T10:16:19Z</time>
      </trkpt>
      <trkpt lat="48.38475" lon="-4.67144">
        <ele>85.012</ele>
        <time>2010-08-16T10:16:29Z</time>
      </trkpt>
      <trkpt lat="48.38524" lon="-4.6721">
        <ele>84.609</ele>
        <time>2010-08-16T10:16:41Z</time>
      </trkpt>
      <trkpt lat="48.38542" lon="-4.67241">
        <ele>86.09</ele>
        <time>2010-08-16T10:16:47Z</time>
      </trkpt>
      <trkpt lat="48.38527" lon="-4.67266">
        <ele>86.325</ele>
        <time>2010-08-16T10:16:54Z</time>
      </trkpt>
      <trkpt lat="48.38434" lon="-4.67349">
        <ele>84.523</ele>
        <time>2010-08-16T10:17:10Z</time>
      </trkpt>
      <trkpt lat="48.38298" lon="-4.67463">
        <ele>82.312</ele>
        <time>2010-08-16T10:17:30Z</time>
      </trkpt>
      <trkpt lat="48.38099" lon="-4.67614">
        <ele>79.284</ele>
        <time>2010-08-16T10:17:57Z</time>
      </trkpt>
      <trkpt lat="48.37941" lon="-4.6775">
        <ele>78.558</ele>
        <time>2010-08-16T10:18:20Z</time>
      </trkpt>
      <trkpt lat="48.37829" lon="-4.67819">
        <ele>78.335</ele>
        <time>2010-08-16T10:18:37Z</time>
      </trkpt>
      <trkpt lat="48.37752" lon="-4.67847">
        <ele>76.078</ele>
        <time>2010-08-16T10:18:47Z</time>
      </trkpt>
      <trkpt lat="48.37605" lon="-4.67905">
        <ele>73.048</ele>
        <time>2010-08-16T10:19:05Z</time>
      </trkpt>
      <trkpt lat="48.37464" lon="-4.67982">
        <ele>70.108</ele>
        <time>2010-08-16T10:19:22Z</time>
      </trkpt>
      <trkpt lat="48.37319" lon="-4.68107">
        <ele>68.205</ele>
        <time>2010-08-16T10:19:41Z</time>
      </trkpt>
      <trkpt lat="48.37184" lon="-4.68291">
        <ele>65.124</ele>
        <time>2010-08-16T10:20:02Z</time>
      </trkpt>
      <trkpt lat="48.37081" lon="-4.68441">
        <ele>61.804</ele>
        <time>2010-08-16T10:20:18Z</time>
      </trkpt>
      <trkpt lat="48.37067" lon="-4.6846">
        <ele>60.924</ele>
        <time>2010-08-16T10:20:20Z</time>
      </trkpt>
      <trkpt lat="48.3696" lon="-4.68617">
        <ele>59.569</ele>
        <time>2010-08-16T10:20:37Z</time>
      </trkpt>
      <trkpt lat="48.36838" lon="-4.68808">
        <ele>58.618</ele>
        <time>2010-08-16T10:20:58Z</time>
      </trkpt>
      <trkpt lat="48.36715" lon="-4.69041">
        <ele>56.421</ele>
        <time>2010-08-16T10:21:22Z</time>
      </trkpt>
      <trkpt lat="48.36622" lon="-4.69253">
        <ele>56.239</ele>
        <time>2010-08-16T10:21:45Z</time>
      </trkpt>
      <trkpt lat="48.36556" lon="-4.69406">
        <ele>55.28</ele>
        <time>2010-08-16T10:22:04Z</time>
      </trkpt>
      <trkpt lat="48.36499" lon="-4.69524">
        <ele>55.242</ele>
        <time>2010-08-16T10:22:19Z</time>
      </trkpt>
      <trkpt lat="48.36484" lon="-4.69528">
        <ele>55.503</ele>
        <time>2010-08-16T10:22:23Z</time>
      </trkpt>
      <trkpt lat="48.36478" lon="-4.69528">
        <ele>55.668</ele>
        <time>2010-08-16T10:22:25Z</time>
      </trkpt>
      <trkpt lat="48.36478" lon="-4.69528">
        <ele>55.907</ele>
        <time>2010-08-16T10:22:46Z</time>
      </trkpt>
      <trkpt lat="48.36477" lon="-4.69528">
        <ele>55.941</ele>
        <time>2010-08-16T10:22:48Z</time>
      </trkpt>
      <trkpt lat="48.36463" lon="-4.69601">
        <ele>54.879</ele>
        <time>2010-08-16T10:22:58Z</time>
      </trkpt>
      <trkpt lat="48.36441" lon="-4.6968">
        <ele>54.044</ele>
        <time>2010-08-16T10:23:11Z</time>
      </trkpt>
      <trkpt lat="48.36379" lon="-4.69806">
        <ele>51.771</ele>
        <time>2010-08-16T10:23:32Z</time>
      </trkpt>
      <trkpt lat="48.36293" lon="-4.69975">
        <ele>48.468</ele>
        <time>2010-08-16T10:23:51Z</time>
      </trkpt>
      <trkpt lat="48.36288" lon="-4.69985">
        <ele>48.273</ele>
        <time>2010-08-16T10:23:52Z</time>
      </trkpt>
      <trkpt lat="48.3618" lon="-4.70219">
        <ele>45.257</ele>
        <time>2010-08-16T10:24:14Z</time>
      </trkpt>
      <trkpt lat="48.36116" lon="-4.70386">
        <ele>46.644</ele>
        <time>2010-08-16T10:24:30Z</time>
      </trkpt>
      <trkpt lat="48.36036" lon="-4.7052">
        <ele>46.55</ele>
        <time>2010-08-16T10:24:46Z</time>
      </trkpt>
      <trkpt lat="48.35866" lon="-4.7072">
        <ele>43.121</ele>
        <time>2010-08-16T10:25:12Z</time>
      </trkpt>
      <trkpt lat="48.3574" lon="-4.70916">
        <ele>44.052</ele>
        <time>2010-08-16T10:25:34Z</time>
      </trkpt>
      <trkpt lat="48.35598" lon="-4.71146">
        <ele>44.161</ele>
        <time>2010-08-16T10:26:01Z</time>
      </trkpt>
      <trkpt lat="48.35477" lon="-4.71356">
        <ele>45.101</ele>
        <time>2010-08-16T10:26:27Z</time>
      </trkpt>
      <trkpt lat="48.35387" lon="-4.71567">
        <ele>46.368</ele>
        <time>2010-08-16T10:26:52Z</time>
      </trkpt>
      <trkpt lat="48.35326" lon="-4.71791">
        <ele>44.971</ele>
        <time>2010-08-16T10:27:16Z</time>
      </trkpt>
      <trkpt lat="48.35323" lon="-4.71807">
        <ele>43.24</ele>
        <time>2010-08-16T10:27:19Z</time>
      </trkpt>
      <trkpt lat="48.35318" lon="-4.71849">
        <ele>45.185</ele>
        <time>2010-08-16T10:27:23Z</time>
      </trkpt>
      <trkpt lat="48.35307" lon="-4.71842">
        <ele>45.649</ele>
        <time>2010-08-16T10:27:25Z</time>
      </trkpt>
      <trkpt lat="48.35293" lon="-4.71832">
        <ele>45.612</ele>
        <time>2010-08-16T10:27:27Z</time>
      </trkpt>
      <trkpt lat="48.35187" lon="-4.71863">
        <ele>45.143</ele>
        <time>2010-08-16T10:27:43Z</time>
      </trkpt>
      <trkpt lat="48.3504" lon="-4.71907">
        <ele>43.488</ele>
        <time>2010-08-16T10:28:02Z</time>
      </trkpt>
      <trkpt lat="48.34877" lon="-4.71962">
        <ele>43.757</ele>
        <time>2010-08-16T10:28:23Z</time>
      </trkpt>
      <trkpt lat="48.34864" lon="-4.71971">
        <ele>44.452</ele>
        <time>2010-08-16T10:28:25Z</time>
      </trkpt>
      <trkpt lat="48.34843" lon="-4.71983">
        <ele>45.719</ele>
        <time>2010-08-16T10:28:31Z</time>
      </trkpt>
      <trkpt lat="48.34814" lon="-4.72">
        <ele>46.762</ele>
        <time>2010-08-16T10:28:33Z</time>
      </trkpt>
      <trkpt lat="48.34788" lon="-4.72014">
        <ele>44.517</ele>
        <time>2010-08-16T10:28:37Z</time>
      </trkpt>
      <trkpt lat="48.34718" lon="-4.72017">
        <ele>42.676</ele>
        <time>2010-08-16T10:28:47Z</time>
      </trkpt>
      <trkpt lat="48.34666" lon="-4.72003">
        <ele>40.116</ele>
        <time>2010-08-16T10:28:54Z</time>
      </trkpt>
      <trkpt lat="48.34632" lon="-4.71985">
        <ele>37.736</ele>
        <time>2010-08-16T10:28:58Z</time>
      </trkpt>
      <trkpt lat="48.34606" lon="-4.71969">
        <ele>35.813</ele>
        <time>2010-08-16T10:29:01Z</time>
      </trkpt>
      <trkpt lat="48.34499" lon="-4.71903">
        <ele>36.694</ele>
        <time>2010-08-16T10:29:14Z</time>
      </trkpt>
      <trkpt lat="48.34468" lon="-4.71884">
        <ele>38.727</ele>
        <time>2010-08-16T10:29:19Z</time>
      </trkpt>
      <trkpt lat="48.3444" lon="-4.71903">
        <ele>39.185</ele>
        <time>2010-08-16T10:29:25Z</time>
      </trkpt>
      <trkpt lat="48.34435" lon="-4.71917">
        <ele>40.35</ele>
        <time>2010-08-16T10:29:27Z</time>
      </trkpt>
      <trkpt lat="48.34406" lon="-4.72">
        <ele>44.042</ele>
        <time>2010-08-16T10:29:40Z</time>
      </trkpt>
      <trkpt lat="48.34391" lon="-4.72044">
        <ele>45.448</ele>
        <time>2010-08-16T10:29:47Z</time>
      </trkpt>
      <trkpt lat="48.34354" lon="-4.72108">
        <ele>46.456</ele>
        <time>2010-08-16T10:29:58Z</time>
      </trkpt>
      <trkpt lat="48.34245" lon="-4.72235">
        <ele>48.925</ele>
        <time>2010-08-16T10:30:24Z</time>
      </trkpt>
      <trkpt lat="48.34138" lon="-4.72358">
        <ele>51.374</ele>
        <time>2010-08-16T10:30:47Z</time>
      </trkpt>
      <trkpt lat="48.3409" lon="-4.72415">
        <ele>53.936</ele>
        <time>2010-08-16T10:30:59Z</time>
      </trkpt>
      <trkpt lat="48.34007" lon="-4.72508">
        <ele>56.972</ele>
        <time>2010-08-16T10:31:19Z</time>
      </trkpt>
      <trkpt lat="48.3398" lon="-4.72537">
        <ele>54.505</ele>
        <time>2010-08-16T10:31:28Z</time>
      </trkpt>
      <trkpt lat="48.33946" lon="-4.72576">
        <ele>54.256</ele>
        <time>2010-08-16T10:31:32Z</time>
      </trkpt>
      <trkpt lat="48.33929" lon="-4.72606">
        <ele>53.428</ele>
        <time>2010-08-16T10:31:36Z</time>
      </trkpt>
      <trkpt lat="48.33904" lon="-4.72781">
        <ele>50.988</ele>
        <time>2010-08-16T10:31:54Z</time>
      </trkpt>
      <trkpt lat="48.33903" lon="-4.72786">
        <ele>49.618</ele>
        <time>2010-08-16T10:31:56Z</time>
      </trkpt>
      <trkpt lat="48.3389" lon="-4.72856">
        <ele>48.262</ele>
        <time>2010-08-16T10:32:01Z</time>
      </trkpt>
      <trkpt lat="48.33873" lon="-4.73052">
        <ele>44.537</ele>
        <time>2010-08-16T10:32:18Z</time>
      </trkpt>
      <trkpt lat="48.33873" lon="-4.73077">
        <ele>43.546</ele>
        <time>2010-08-16T10:32:20Z</time>
      </trkpt>
      <trkpt lat="48.33876" lon="-4.73156">
        <ele>40.457</ele>
        <time>2010-08-16T10:32:26Z</time>
      </trkpt>
      <trkpt lat="48.33876" lon="-4.73169">
        <ele>41.086</ele>
        <time>2010-08-16T10:32:27Z</time>
      </trkpt>
      <trkpt lat="48.33888" lon="-4.73421">
        <ele>42.254</ele>
        <time>2010-08-16T10:32:48Z</time>
      </trkpt>
      <trkpt lat="48.33899" lon="-4.73683">
        <ele>44.018</ele>
        <time>2010-08-16T10:33:14Z</time>
      </trkpt>
      <trkpt lat="48.33907" lon="-4.73862">
        <ele>47.277</ele>
        <time>2010-08-16T10:33:34Z</time>
      </trkpt>
      <trkpt lat="48.33911" lon="-4.73957">
        <ele>50.318</ele>
        <time>2010-08-16T10:33:46Z</time>
      </trkpt>
      <trkpt lat="48.33899" lon="-4.74127">
        <ele>53.609</ele>
        <time>2010-08-16T10:34:08Z</time>
      </trkpt>
      <trkpt lat="48.33864" lon="-4.74301">
        <ele>51.094</ele>
        <time>2010-08-16T10:34:27Z</time>
      </trkpt>
      <trkpt lat="48.33855" lon="-4.74343">
        <ele>49.156</ele>
        <time>2010-08-16T10:34:31Z</time>
      </trkpt>
      <trkpt lat="48.33821" lon="-4.74511">
        <ele>46.201</ele>
        <time>2010-08-16T10:34:46Z</time>
      </trkpt>
      <trkpt lat="48.33802" lon="-4.74643">
        <ele>42.938</ele>
        <time>2010-08-16T10:34:56Z</time>
      </trkpt>
      <trkpt lat="48.33794" lon="-4.74698">
        <ele>41.481</ele>
        <time>2010-08-16T10:35:00Z</time>
      </trkpt>
      <trkpt lat="48.33776" lon="-4.74874">
        <ele>39.307</ele>
        <time>2010-08-16T10:35:13Z</time>
      </trkpt>
      <trkpt lat="48.33729" lon="-4.75085">
        <ele>38.365</ele>
        <time>2010-08-16T10:35:29Z</time>
      </trkpt>
      <trkpt lat="48.33672" lon="-4.7532">
        <ele>36.777</ele>
        <time>2010-08-16T10:35:48Z</time>
      </trkpt>
      <trkpt lat="48.33641" lon="-4.75553">
        <ele>36.685</ele>
        <time>2010-08-16T10:36:07Z</time>
      </trkpt>
      <trkpt lat="48.33562" lon="-4.7579">
        <ele>34.951</ele>
        <time>2010-08-16T10:36:27Z</time>
      </trkpt>
      <trkpt lat="48.33534" lon="-4.7587">
        <ele>37.186</ele>
        <time>2010-08-16T10:36:34Z</time>
      </trkpt>
      <trkpt lat="48.33462" lon="-4.76083">
        <ele>35.972</ele>
        <time>2010-08-16T10:36:55Z</time>
      </trkpt>
      <trkpt lat="48.33403" lon="-4.7625">
        <ele>32.968</ele>
        <time>2010-08-16T10:37:11Z</time>
      </trkpt>
      <trkpt lat="48.33365" lon="-4.76353">
        <ele>31.738</ele>
        <time>2010-08-16T10:37:21Z</time>
      </trkpt>
      <trkpt lat="48.33307" lon="-4.7653">
        <ele>30.202</ele>
        <time>2010-08-16T10:37:37Z</time>
      </trkpt>
      <trkpt lat="48.33298" lon="-4.76564">
        <ele>31.523</ele>
        <time>2010-08-16T10:37:40Z</time>
      </trkpt>
      <trkpt lat="48.33233" lon="-4.76798">
        <ele>28.645</ele>
        <time>2010-08-16T10:38:01Z</time>
      </trkpt>
      <trkpt lat="48.33201" lon="-4.76887">
        <ele>25.883</ele>
        <time>2010-08-16T10:38:09Z</time>
      </trkpt>
      <trkpt lat="48.33185" lon="-4.76916">
        <ele>24.443</ele>
        <time>2010-08-16T10:38:12Z</time>
      </trkpt>
      <trkpt lat="48.33138" lon="-4.76975">
        <ele>21.332</ele>
        <time>2010-08-16T10:38:19Z</time>
      </trkpt>
      <trkpt lat="48.33115" lon="-4.76998">
        <ele>20.758</ele>
        <time>2010-08-16T10:38:22Z</time>
      </trkpt>
      <trkpt lat="48.33086" lon="-4.77066">
        <ele>17.768</ele>
        <time>2010-08-16T10:38:28Z</time>
      </trkpt>
      <trkpt lat="48.33082" lon="-4.77092">
        <ele>17.259</ele>
        <time>2010-08-16T10:38:30Z</time>
      </trkpt>
      <trkpt lat="48.331" lon="-4.77167">
        <ele>16.527</ele>
        <time>2010-08-16T10:38:37Z</time>
      </trkpt>
      <trkpt lat="48.33132" lon="-4.77176">
        <ele>17.143</ele>
        <time>2010-08-16T10:38:41Z</time>
      </trkpt>
      <trkpt lat="48.33193" lon="-4.77163">
        <ele>18.32</ele>
        <time>2010-08-16T10:38:49Z</time>
      </trkpt>
      <trkpt lat="48.33377" lon="-4.77133">
        <ele>15.083</ele>
        <time>2010-08-16T10:39:14Z</time>
      </trkpt>
      <trkpt lat="48.33409" lon="-4.77133">
        <ele>11.768</ele>
        <time>2010-08-16T10:39:18Z</time>
      </trkpt>
      <trkpt lat="48.33417" lon="-4.77133">
        <ele>11.751</ele>
        <time>2010-08-16T10:39:19Z</time>
      </trkpt>
      <trkpt lat="48.33443" lon="-4.7713">
        <ele>11.053</ele>
        <time>2010-08-16T10:39:22Z</time>
      </trkpt>
      <trkpt lat="48.33499" lon="-4.77109">
        <ele>6.049</ele>
        <time>2010-08-16T10:39:28Z</time>
      </trkpt>
      <trkpt lat="48.33555" lon="-4.77124">
        <ele>3.759</ele>
        <time>2010-08-16T10:39:34Z</time>
      </trkpt>
      <trkpt lat="48.33565" lon="-4.7716">
        <ele>6.929</ele>
        <time>2010-08-16T10:39:37Z</time>
      </trkpt>
      <trkpt lat="48.33574" lon="-4.77217">
        <ele>10.858</ele>
        <time>2010-08-16T10:39:43Z</time>
      </trkpt>
      <trkpt lat="48.33589" lon="-4.77303">
        <ele>12.928</ele>
        <time>2010-08-16T10:39:54Z</time>
      </trkpt>
      <trkpt lat="48.33624" lon="-4.77384">
        <ele>13.986</ele>
        <time>2010-08-16T10:40:06Z</time>
      </trkpt>
      <trkpt lat="48.33639" lon="-4.77395">
        <ele>14.668</ele>
        <time>2010-08-16T10:40:09Z</time>
      </trkpt>
      <trkpt lat="48.33658" lon="-4.77405">
        <ele>15.387</ele>
        <time>2010-08-16T10:40:13Z</time>
      </trkpt>
      <trkpt lat="48.33678" lon="-4.77408">
        <ele>15.402</ele>
        <time>2010-08-16T10:40:17Z</time>
      </trkpt>
      <trkpt lat="48.33794" lon="-4.77393">
        <ele>14.541</ele>
        <time>2010-08-16T10:40:38Z</time>
      </trkpt>
      <trkpt lat="48.33852" lon="-4.77343">
        <ele>16.485</ele>
        <time>2010-08-16T10:40:49Z</time>
      </trkpt>
      <trkpt lat="48.33938" lon="-4.77224">
        <ele>17.68</ele>
        <time>2010-08-16T10:41:10Z</time>
      </trkpt>
      <trkpt lat="48.34052" lon="-4.77173">
        <ele>15.74</ele>
        <time>2010-08-16T10:41:29Z</time>
      </trkpt>
      <trkpt lat="48.34189" lon="-4.77149">
        <ele>11.707</ele>
        <time>2010-08-16T10:41:49Z</time>
      </trkpt>
      <trkpt lat="48.34225" lon="-4.77129">
        <ele>10.942</ele>
        <time>2010-08-16T10:41:54Z</time>
      </trkpt>
      <trkpt lat="48.34287" lon="-4.77095">
        <ele>7.125</ele>
        <time>2010-08-16T10:42:02Z</time>
      </trkpt>
      <trkpt lat="48.34337" lon="-4.77109">
        <ele>7.33</ele>
        <time>2010-08-16T10:42:08Z</time>
      </trkpt>
      <trkpt lat="48.34423" lon="-4.77141">
        <ele>8.901</ele>
        <time>2010-08-16T10:42:21Z</time>
      </trkpt>
      <trkpt lat="48.34448" lon="-4.7713">
        <ele>9.941</ele>
        <time>2010-08-16T10:42:25Z</time>
      </trkpt>
      <trkpt lat="48.34552" lon="-4.77062">
        <ele>9.712</ele>
        <time>2010-08-16T10:42:41Z</time>
      </trkpt>
      <trkpt lat="48.34598" lon="-4.77011">
        <ele>12.838</ele>
        <time>2010-08-16T10:42:50Z</time>
      </trkpt>
      <trkpt lat="48.34602" lon="-4.77006">
        <ele>12.97</ele>
        <time>2010-08-16T10:42:51Z</time>
      </trkpt>
      <trkpt lat="48.34701" lon="-4.76897">
        <ele>13.68</ele>
        <time>2010-08-16T10:43:14Z</time>
      </trkpt>
      <trkpt lat="48.34713" lon="-4.76888">
        <ele>11.843</ele>
        <time>2010-08-16T10:43:16Z</time>
      </trkpt>
      <trkpt lat="48.34754" lon="-4.76871">
        <ele>10.802</ele>
        <time>2010-08-16T10:43:22Z</time>
      </trkpt>
      <trkpt lat="48.34787" lon="-4.76884">
        <ele>11.273</ele>
        <time>2010-08-16T10:43:27Z</time>
      </trkpt>
      <trkpt lat="48.34808" lon="-4.76903">
        <ele>12.929</ele>
        <time>2010-08-16T10:43:31Z</time>
      </trkpt>
      <trkpt lat="48.34821" lon="-4.76916">
        <ele>14.529</ele>
        <time>2010-08-16T10:43:34Z</time>
      </trkpt>
      <trkpt lat="48.34857" lon="-4.76949">
        <ele>17.713</ele>
        <time>2010-08-16T10:43:43Z</time>
      </trkpt>
      <trkpt lat="48.34911" lon="-4.76999">
        <ele>21.403</ele>
        <time>2010-08-16T10:43:57Z</time>
      </trkpt>
      <trkpt lat="48.34914" lon="-4.77003">
        <ele>21.574</ele>
        <time>2010-08-16T10:43:58Z</time>
      </trkpt>
      <trkpt lat="48.34948" lon="-4.7704">
        <ele>21.904</ele>
        <time>2010-08-16T10:44:07Z</time>
      </trkpt>
      <trkpt lat="48.35003" lon="-4.77154">
        <ele>23.43</ele>
        <time>2010-08-16T10:44:27Z</time>
      </trkpt>
      <trkpt lat="48.35038" lon="-4.77244">
        <ele>20.769</ele>
        <time>2010-08-16T10:44:40Z</time>
      </trkpt>
      <trkpt lat="48.35112" lon="-4.7731">
        <ele>20.285</ele>
        <time>2010-08-16T10:44:55Z</time>
      </trkpt>
      <trkpt lat="48.352" lon="-4.77321">
        <ele>18.609</ele>
        <time>2010-08-16T10:45:09Z</time>
      </trkpt>
      <trkpt lat="48.35225" lon="-4.77331">
        <ele>17.678</ele>
        <time>2010-08-16T10:45:13Z</time>
      </trkpt>
      <trkpt lat="48.35251" lon="-4.77357">
        <ele>17.443</ele>
        <time>2010-08-16T10:45:18Z</time>
      </trkpt>
      <trkpt lat="48.3527" lon="-4.7741">
        <ele>17.096</ele>
        <time>2010-08-16T10:45:24Z</time>
      </trkpt>
      <trkpt lat="48.35272" lon="-4.77428">
        <ele>17.407</ele>
        <time>2010-08-16T10:45:26Z</time>
      </trkpt>
      <trkpt lat="48.35265" lon="-4.77504">
        <ele>20.531</ele>
        <time>2010-08-16T10:45:36Z</time>
      </trkpt>
      <trkpt lat="48.35252" lon="-4.77585">
        <ele>23.605</ele>
        <time>2010-08-16T10:45:49Z</time>
      </trkpt>
      <trkpt lat="48.35242" lon="-4.77651">
        <ele>25.676</ele>
        <time>2010-08-16T10:45:59Z</time>
      </trkpt>
      <trkpt lat="48.35246" lon="-4.77678">
        <ele>26.409</ele>
        <time>2010-08-16T10:46:03Z</time>
      </trkpt>
      <trkpt lat="48.35265" lon="-4.77724">
        <ele>28.47</ele>
        <time>2010-08-16T10:46:12Z</time>
      </trkpt>
      <trkpt lat="48.35302" lon="-4.77753">
        <ele>28.516</ele>
        <time>2010-08-16T10:46:21Z</time>
      </trkpt>
      <trkpt lat="48.35322" lon="-4.77754">
        <ele>29.709</ele>
        <time>2010-08-16T10:46:25Z</time>
      </trkpt>
      <trkpt lat="48.35369" lon="-4.77722">
        <ele>32.7</ele>
        <time>2010-08-16T10:46:36Z</time>
      </trkpt>
      <trkpt lat="48.35445" lon="-4.77615">
        <ele>33.956</ele>
        <time>2010-08-16T10:46:59Z</time>
      </trkpt>
      <trkpt lat="48.35523" lon="-4.77527">
        <ele>33.024</ele>
        <time>2010-08-16T10:47:16Z</time>
      </trkpt>
      <trkpt lat="48.35597" lon="-4.7752">
        <ele>28.855</ele>
        <time>2010-08-16T10:47:27Z</time>
      </trkpt>
      <trkpt lat="48.35605" lon="-4.77521">
        <ele>28.615</ele>
        <time>2010-08-16T10:47:28Z</time>
      </trkpt>
      <trkpt lat="48.35646" lon="-4.77523">
        <ele>24.475</ele>
        <time>2010-08-16T10:47:33Z</time>
      </trkpt>
      <trkpt lat="48.35655" lon="-4.77526">
        <ele>23.316</ele>
        <time>2010-08-16T10:47:34Z</time>
      </trkpt>
      <trkpt lat="48.35693" lon="-4.77547">
        <ele>19.232</ele>
        <time>2010-08-16T10:47:38Z</time>
      </trkpt>
      <trkpt lat="48.3571" lon="-4.77565">
        <ele>16.92</ele>
        <time>2010-08-16T10:47:40Z</time>
      </trkpt>
      <trkpt lat="48.35727" lon="-4.77581">
        <ele>17.236</ele>
        <time>2010-08-16T10:47:42Z</time>
      </trkpt>
      <trkpt lat="48.35754" lon="-4.77594">
        <ele>18.61</ele>
        <time>2010-08-16T10:47:45Z</time>
      </trkpt>
      <trkpt lat="48.35781" lon="-4.7758">
        <ele>22.035</ele>
        <time>2010-08-16T10:47:49Z</time>
      </trkpt>
      <trkpt lat="48.35787" lon="-4.77575">
        <ele>22.309</ele>
        <time>2010-08-16T10:47:50Z</time>
      </trkpt>
      <trkpt lat="48.35787" lon="-4.77575">
        <ele>23.167</ele>
        <time>2010-08-16T10:47:51Z</time>
      </trkpt>
      <trkpt lat="48.35812" lon="-4.77525">
        <ele>24.381</ele>
        <time>2010-08-16T10:47:56Z</time>
      </trkpt>
      <trkpt lat="48.35844" lon="-4.7748">
        <ele>24.345</ele>
        <time>2010-08-16T10:48:03Z</time>
      </trkpt>
      <trkpt lat="48.3586" lon="-4.77463">
        <ele>26.024</ele>
        <time>2010-08-16T10:48:07Z</time>
      </trkpt>
      <trkpt lat="48.3586" lon="-4.77433">
        <ele>25.869</ele>
        <time>2010-08-16T10:48:10Z</time>
      </trkpt>
      <trkpt lat="48.35841" lon="-4.77304">
        <ele>27.056</ele>
        <time>2010-08-16T10:48:25Z</time>
      </trkpt>
      <trkpt lat="48.35839" lon="-4.77288">
        <ele>28.062</ele>
        <time>2010-08-16T10:48:27Z</time>
      </trkpt>
      <trkpt lat="48.35834" lon="-4.77257">
        <ele>27.882</ele>
        <time>2010-08-16T10:48:33Z</time>
      </trkpt>
      <trkpt lat="48.35819" lon="-4.7722">
        <ele>28.475</ele>
        <time>2010-08-16T10:48:36Z</time>
      </trkpt>
      <trkpt lat="48.35808" lon="-4.77206">
        <ele>28.455</ele>
        <time>2010-08-16T10:48:39Z</time>
      </trkpt>
      <trkpt lat="48.35822" lon="-4.77183">
        <ele>27.827</ele>
        <time>2010-08-16T10:48:45Z</time>
      </trkpt>
      <trkpt lat="48.3586" lon="-4.7717">
        <ele>27.13</ele>
        <time>2010-08-16T10:48:52Z</time>
      </trkpt>
      <trkpt lat="48.35894" lon="-4.77159">
        <ele>26.836</ele>
        <time>2010-08-16T10:48:59Z</time>
      </trkpt>
      <trkpt lat="48.3592" lon="-4.7715">
        <ele>26.959</ele>
        <time>2010-08-16T10:49:03Z</time>
      </trkpt>
      <trkpt lat="48.35942" lon="-4.77122">
        <ele>26.468</ele>
        <time>2010-08-16T10:49:08Z</time>
      </trkpt>
      <trkpt lat="48.35953" lon="-4.77128">
        <ele>26.478</ele>
        <time>2010-08-16T10:49:10Z</time>
      </trkpt>
      <trkpt lat="48.35992" lon="-4.77135">
        <ele>25.735</ele>
        <time>2010-08-16T10:49:17Z</time>
      </trkpt>
      <trkpt lat="48.36056" lon="-4.77153">
        <ele>24.075</ele>
        <time>2010-08-16T10:49:27Z</time>
      </trkpt>
      <trkpt lat="48.36078" lon="-4.7713">
        <ele>24.488</ele>
        <time>2010-08-16T10:49:32Z</time>
      </trkpt>
      <trkpt lat="48.36083" lon="-4.7709">
        <ele>25.381</ele>
        <time>2010-08-16T10:49:38Z</time>
      </trkpt>
      <trkpt lat="48.36085" lon="-4.77011">
        <ele>23.72</ele>
        <time>2010-08-16T10:49:44Z</time>
      </trkpt>
      <trkpt lat="48.3606" lon="-4.76876">
        <ele>20.214</ele>
        <time>2010-08-16T10:49:56Z</time>
      </trkpt>
      <trkpt lat="48.36047" lon="-4.7681">
        <ele>17.047</ele>
        <time>2010-08-16T10:50:01Z</time>
      </trkpt>
      <trkpt lat="48.36042" lon="-4.76781">
        <ele>15.934</ele>
        <time>2010-08-16T10:50:03Z</time>
      </trkpt>
      <trkpt lat="48.36026" lon="-4.76693">
        <ele>13.141</ele>
        <time>2010-08-16T10:50:09Z</time>
      </trkpt>
      <trkpt lat="48.36003" lon="-4.7657">
        <ele>9.62</ele>
        <time>2010-08-16T10:50:17Z</time>
      </trkpt>
      <trkpt lat="48.35994" lon="-4.76522">
        <ele>6.461</ele>
        <time>2010-08-16T10:50:20Z</time>
      </trkpt>
      <trkpt lat="48.3598" lon="-4.76456">
        <ele>4.315</ele>
        <time>2010-08-16T10:50:24Z</time>
      </trkpt>
      <trkpt lat="48.35967" lon="-4.76399">
        <ele>0.565</ele>
        <time>2010-08-16T10:50:28Z</time>
      </trkpt>
      <trkpt lat="48.3595" lon="-4.76253">
        <ele>2.146</ele>
        <time>2010-08-16T10:50:37Z</time>
      </trkpt>
      <trkpt lat="48.3595" lon="-4.76253">
        <ele>2.22</ele>
        <time>2010-08-16T10:50:38Z</time>
      </trkpt>
      <trkpt lat="48.3594" lon="-4.76131">
        <ele>5.591</ele>
        <time>2010-08-16T10:50:46Z</time>
      </trkpt>
      <trkpt lat="48.35929" lon="-4.75986">
        <ele>3.309</ele>
        <time>2010-08-16T10:50:59Z</time>
      </trkpt>
      <trkpt lat="48.35912" lon="-4.75764">
        <ele>3.371</ele>
        <time>2010-08-16T10:51:17Z</time>
      </trkpt>
      <trkpt lat="48.35909" lon="-4.7558">
        <ele>3.832</ele>
        <time>2010-08-16T10:51:33Z</time>
      </trkpt>
      <trkpt lat="48.35918" lon="-4.75519">
        <ele>5.737</ele>
        <time>2010-08-16T10:51:39Z</time>
      </trkpt>
      <trkpt lat="48.35939" lon="-4.75338">
        <ele>2.342</ele>
        <time>2010-08-16T10:51:56Z</time>
      </trkpt>
      <trkpt lat="48.35941" lon="-4.75325">
        <ele>2.173</ele>
        <time>2010-08-16T10:51:57Z</time>
      </trkpt>
      <trkpt lat="48.3595" lon="-4.75195">
        <ele>2.447</ele>
        <time>2010-08-16T10:52:08Z</time>
      </trkpt>
      <trkpt lat="48.3595" lon="-4.75175">
        <ele>3.102</ele>
        <time>2010-08-16T10:52:10Z</time>
      </trkpt>
      <trkpt lat="48.3595" lon="-4.75116">
        <ele>4.517</ele>
        <time>2010-08-16T10:52:16Z</time>
      </trkpt>
      <trkpt lat="48.35978" lon="-4.75087">
        <ele>2.422</ele>
        <time>2010-08-16T10:52:22Z</time>
      </trkpt>
      <trkpt lat="48.36092" lon="-4.74982">
        <ele>5.006</ele>
        <time>2010-08-16T10:52:42Z</time>
      </trkpt>
      <trkpt lat="48.36101" lon="-4.74953">
        <ele>7.078</ele>
        <time>2010-08-16T10:52:48Z</time>
      </trkpt>
      <trkpt lat="48.36083" lon="-4.74899">
        <ele>9.425</ele>
        <time>2010-08-16T10:52:59Z</time>
      </trkpt>
      <trkpt lat="48.3605" lon="-4.74869">
        <ele>11.419</ele>
        <time>2010-08-16T10:53:11Z</time>
      </trkpt>
      <trkpt lat="48.36043" lon="-4.74841">
        <ele>12.882</ele>
        <time>2010-08-16T10:53:17Z</time>
      </trkpt>
      <trkpt lat="48.3605" lon="-4.74796">
        <ele>15.506</ele>
        <time>2010-08-16T10:53:30Z</time>
      </trkpt>
      <trkpt lat="48.36055" lon="-4.74794">
        <ele>16.282</ele>
        <time>2010-08-16T10:53:33Z</time>
      </trkpt>
      <trkpt lat="48.36087" lon="-4.74798">
        <ele>17.694</ele>
        <time>2010-08-16T10:53:45Z</time>
      </trkpt>
      <trkpt lat="48.36117" lon="-4.74803">
        <ele>20.278</ele>
        <time>2010-08-16T10:53:56Z</time>
      </trkpt>
      <trkpt lat="48.36177" lon="-4.74799">
        <ele>22.441</ele>
        <time>2010-08-16T10:54:10Z</time>
      </trkpt>
      <trkpt lat="48.36211" lon="-4.74794">
        <ele>24.882</ele>
        <time>2010-08-16T10:54:21Z</time>
      </trkpt>
      <trkpt lat="48.3625" lon="-4.74788">
        <ele>26.705</ele>
        <time>2010-08-16T10:54:32Z</time>
      </trkpt>
      <trkpt lat="48.36291" lon="-4.74781">
        <ele>27.147</ele>
        <time>2010-08-16T10:54:42Z</time>
      </trkpt>
      <trkpt lat="48.3635" lon="-4.74767">
        <ele>25.408</ele>
        <time>2010-08-16T10:54:52Z</time>
      </trkpt>
      <trkpt lat="48.36362" lon="-4.74759">
        <ele>24.026</ele>
        <time>2010-08-16T10:54:54Z</time>
      </trkpt>
      <trkpt lat="48.36388" lon="-4.74734">
        <ele>24.003</ele>
        <time>2010-08-16T10:54:59Z</time>
      </trkpt>
      <trkpt lat="48.36411" lon="-4.74739">
        <ele>23.212</ele>
        <time>2010-08-16T10:55:02Z</time>
      </trkpt>
      <trkpt lat="48.36436" lon="-4.74719">
        <ele>20.322</ele>
        <time>2010-08-16T10:55:06Z</time>
      </trkpt>
      <trkpt lat="48.36456" lon="-4.74698">
        <ele>18.747</ele>
        <time>2010-08-16T10:55:09Z</time>
      </trkpt>
      <trkpt lat="48.36476" lon="-4.74677">
        <ele>17.453</ele>
        <time>2010-08-16T10:55:12Z</time>
      </trkpt>
      <trkpt lat="48.36489" lon="-4.74663">
        <ele>16.609</ele>
        <time>2010-08-16T10:55:14Z</time>
      </trkpt>
      <trkpt lat="48.36522" lon="-4.7461">
        <ele>13.408</ele>
        <time>2010-08-16T10:55:19Z</time>
      </trkpt>
      <trkpt lat="48.36572" lon="-4.74558">
        <ele>10.094</ele>
        <time>2010-08-16T10:55:25Z</time>
      </trkpt>
      <trkpt lat="48.36581" lon="-4.74558">
        <ele>8.686</ele>
        <time>2010-08-16T10:55:26Z</time>
      </trkpt>
      <trkpt lat="48.36632" lon="-4.74581">
        <ele>5.887</ele>
        <time>2010-08-16T10:55:31Z</time>
      </trkpt>
      <trkpt lat="48.36654" lon="-4.74592">
        <ele>4.757</ele>
        <time>2010-08-16T10:55:33Z</time>
      </trkpt>
      <trkpt lat="48.36673" lon="-4.74602">
        <ele>3.355</ele>
        <time>2010-08-16T10:55:35Z</time>
      </trkpt>
      <trkpt lat="48.36683" lon="-4.74607">
        <ele>3.244</ele>
        <time>2010-08-16T10:55:36Z</time>
      </trkpt>
      <trkpt lat="48.36722" lon="-4.74665">
        <ele>3.212</ele>
        <time>2010-08-16T10:55:41Z</time>
      </trkpt>
      <trkpt lat="48.3675" lon="-4.7471">
        <ele>5.654</ele>
        <time>2010-08-16T10:55:46Z</time>
      </trkpt>
      <trkpt lat="48.36775" lon="-4.74723">
        <ele>8.934</ele>
        <time>2010-08-16T10:55:52Z</time>
      </trkpt>
      <trkpt lat="48.36799" lon="-4.74731">
        <ele>9.713</ele>
        <time>2010-08-16T10:55:56Z</time>
      </trkpt>
      <trkpt lat="48.36817" lon="-4.74733">
        <ele>10.952</ele>
        <time>2010-08-16T10:55:59Z</time>
      </trkpt>
      <trkpt lat="48.3683" lon="-4.74732">
        <ele>11.542</ele>
        <time>2010-08-16T10:56:01Z</time>
      </trkpt>
      <trkpt lat="48.36887" lon="-4.74709">
        <ele>14.944</ele>
        <time>2010-08-16T10:56:14Z</time>
      </trkpt>
      <trkpt lat="48.36891" lon="-4.74707">
        <ele>15.077</ele>
        <time>2010-08-16T10:56:15Z</time>
      </trkpt>
      <trkpt lat="48.36928" lon="-4.74679">
        <ele>17.128</ele>
        <time>2010-08-16T10:56:25Z</time>
      </trkpt>
      <trkpt lat="48.36952" lon="-4.74656">
        <ele>18.208</ele>
        <time>2010-08-16T10:56:32Z</time>
      </trkpt>
      <trkpt lat="48.36988" lon="-4.74622">
        <ele>19.991</ele>
        <time>2010-08-16T10:56:42Z</time>
      </trkpt>
      <trkpt lat="48.3704" lon="-4.74575">
        <ele>23.337</ele>
        <time>2010-08-16T10:56:59Z</time>
      </trkpt>
      <trkpt lat="48.37073" lon="-4.74564">
        <ele>25.469</ele>
        <time>2010-08-16T10:57:12Z</time>
      </trkpt>
      <trkpt lat="48.37096" lon="-4.74565">
        <ele>26.935</ele>
        <time>2010-08-16T10:57:21Z</time>
      </trkpt>
      <trkpt lat="48.37127" lon="-4.7457">
        <ele>28.324</ele>
        <time>2010-08-16T10:57:31Z</time>
      </trkpt>
      <trkpt lat="48.37164" lon="-4.74591">
        <ele>30.013</ele>
        <time>2010-08-16T10:57:43Z</time>
      </trkpt>
      <trkpt lat="48.37194" lon="-4.74616">
        <ele>31.031</ele>
        <time>2010-08-16T10:57:55Z</time>
      </trkpt>
      <trkpt lat="48.37259" lon="-4.74666">
        <ele>30.493</ele>
        <time>2010-08-16T10:58:09Z</time>
      </trkpt>
      <trkpt lat="48.3736" lon="-4.74721">
        <ele>32.95</ele>
        <time>2010-08-16T10:58:30Z</time>
      </trkpt>
      <trkpt lat="48.37426" lon="-4.74747">
        <ele>35.08</ele>
        <time>2010-08-16T10:58:45Z</time>
      </trkpt>
      <trkpt lat="48.37511" lon="-4.74774">
        <ele>38.9</ele>
        <time>2010-08-16T10:59:04Z</time>
      </trkpt>
      <trkpt lat="48.37516" lon="-4.74776">
        <ele>38.715</ele>
        <time>2010-08-16T10:59:05Z</time>
      </trkpt>
      <trkpt lat="48.37566" lon="-4.74787">
        <ele>35.958</ele>
        <time>2010-08-16T10:59:15Z</time>
      </trkpt>
      <trkpt lat="48.37635" lon="-4.74779">
        <ele>39.285</ele>
        <time>2010-08-16T10:59:28Z</time>
      </trkpt>
      <trkpt lat="48.37733" lon="-4.74699">
        <ele>39.124</ele>
        <time>2010-08-16T10:59:48Z</time>
      </trkpt>
      <trkpt lat="48.3788" lon="-4.74564">
        <ele>35.858</ele>
        <time>2010-08-16T11:00:15Z</time>
      </trkpt>
      <trkpt lat="48.37886" lon="-4.74559">
        <ele>35.67</ele>
        <time>2010-08-16T11:00:16Z</time>
      </trkpt>
      <trkpt lat="48.37948" lon="-4.7452">
        <ele>30.961</ele>
        <time>2010-08-16T11:00:25Z</time>
      </trkpt>
      <trkpt lat="48.37956" lon="-4.74517">
        <ele>31.696</ele>
        <time>2010-08-16T11:00:26Z</time>
      </trkpt>
      <trkpt lat="48.37986" lon="-4.74507">
        <ele>32.52</ele>
        <time>2010-08-16T11:00:30Z</time>
      </trkpt>
      <trkpt lat="48.38009" lon="-4.74485">
        <ele>34.064</ele>
        <time>2010-08-16T11:00:34Z</time>
      </trkpt>
      <trkpt lat="48.38053" lon="-4.74431">
        <ele>37.715</ele>
        <time>2010-08-16T11:00:44Z</time>
      </trkpt>
      <trkpt lat="48.38055" lon="-4.74425">
        <ele>37.944</ele>
        <time>2010-08-16T11:00:45Z</time>
      </trkpt>
      <trkpt lat="48.38092" lon="-4.7433">
        <ele>41.288</ele>
        <time>2010-08-16T11:01:00Z</time>
      </trkpt>
      <trkpt lat="48.38146" lon="-4.74267">
        <ele>44.073</ele>
        <time>2010-08-16T11:01:14Z</time>
      </trkpt>
      <trkpt lat="48.38228" lon="-4.74192">
        <ele>47.082</ele>
        <time>2010-08-16T11:01:34Z</time>
      </trkpt>
      <trkpt lat="48.38314" lon="-4.74094">
        <ele>48.384</ele>
        <time>2010-08-16T11:01:56Z</time>
      </trkpt>
      <trkpt lat="48.38409" lon="-4.74012">
        <ele>49.361</ele>
        <time>2010-08-16T11:02:16Z</time>
      </trkpt>
      <trkpt lat="48.38534" lon="-4.73958">
        <ele>51.336</ele>
        <time>2010-08-16T11:02:39Z</time>
      </trkpt>
      <trkpt lat="48.38597" lon="-4.7393">
        <ele>51.124</ele>
        <time>2010-08-16T11:02:52Z</time>
      </trkpt>
      <trkpt lat="48.38621" lon="-4.73897">
        <ele>49.331</ele>
        <time>2010-08-16T11:02:58Z</time>
      </trkpt>
      <trkpt lat="48.38639" lon="-4.73876">
        <ele>49.788</ele>
        <time>2010-08-16T11:03:02Z</time>
      </trkpt>
      <trkpt lat="48.38749" lon="-4.73817">
        <ele>48.019</ele>
        <time>2010-08-16T11:03:19Z</time>
      </trkpt>
      <trkpt lat="48.38878" lon="-4.73746">
        <ele>47.082</ele>
        <time>2010-08-16T11:03:38Z</time>
      </trkpt>
      <trkpt lat="48.3897" lon="-4.73708">
        <ele>45.238</ele>
        <time>2010-08-16T11:03:52Z</time>
      </trkpt>
      <trkpt lat="48.39027" lon="-4.73685">
        <ele>40.939</ele>
        <time>2010-08-16T11:03:59Z</time>
      </trkpt>
      <trkpt lat="48.39045" lon="-4.73677">
        <ele>38.242</ele>
        <time>2010-08-16T11:04:01Z</time>
      </trkpt>
      <trkpt lat="48.39091" lon="-4.73643">
        <ele>35.844</ele>
        <time>2010-08-16T11:04:06Z</time>
      </trkpt>
      <trkpt lat="48.39126" lon="-4.73612">
        <ele>35.422</ele>
        <time>2010-08-16T11:04:10Z</time>
      </trkpt>
      <trkpt lat="48.39216" lon="-4.73555">
        <ele>36.406</ele>
        <time>2010-08-16T11:04:21Z</time>
      </trkpt>
      <trkpt lat="48.39246" lon="-4.73533">
        <ele>38.95</ele>
        <time>2010-08-16T11:04:26Z</time>
      </trkpt>
      <trkpt lat="48.39269" lon="-4.73511">
        <ele>41.265</ele>
        <time>2010-08-16T11:04:31Z</time>
      </trkpt>
      <trkpt lat="48.39289" lon="-4.73493">
        <ele>42.842</ele>
        <time>2010-08-16T11:04:35Z</time>
      </trkpt>
      <trkpt lat="48.39304" lon="-4.73469">
        <ele>43.942</ele>
        <time>2010-08-16T11:04:40Z</time>
      </trkpt>
      <trkpt lat="48.39316" lon="-4.73435">
        <ele>45.466</ele>
        <time>2010-08-16T11:04:46Z</time>
      </trkpt>
      <trkpt lat="48.39354" lon="-4.73324">
        <ele>45.134</ele>
        <time>2010-08-16T11:05:01Z</time>
      </trkpt>
      <trkpt lat="48.39356" lon="-4.73316">
        <ele>45.246</ele>
        <time>2010-08-16T11:05:02Z</time>
      </trkpt>
      <trkpt lat="48.39422" lon="-4.73126">
        <ele>44.14</ele>
        <time>2010-08-16T11:05:25Z</time>
      </trkpt>
      <trkpt lat="48.39432" lon="-4.73113">
        <ele>43.754</ele>
        <time>2010-08-16T11:05:27Z</time>
      </trkpt>
      <trkpt lat="48.39475" lon="-4.7308">
        <ele>42.408</ele>
        <time>2010-08-16T11:05:34Z</time>
      </trkpt>
      <trkpt lat="48.39544" lon="-4.73067">
        <ele>45.672</ele>
        <time>2010-08-16T11:05:45Z</time>
      </trkpt>
      <trkpt lat="48.39588" lon="-4.73057">
        <ele>47.357</ele>
        <time>2010-08-16T11:05:54Z</time>
      </trkpt>
      <trkpt lat="48.39676" lon="-4.73032">
        <ele>49.813</ele>
        <time>2010-08-16T11:06:12Z</time>
      </trkpt>
      <trkpt lat="48.39698" lon="-4.73019">
        <ele>50.496</ele>
        <time>2010-08-16T11:06:17Z</time>
      </trkpt>
      <trkpt lat="48.39769" lon="-4.72978">
        <ele>51.29</ele>
        <time>2010-08-16T11:06:31Z</time>
      </trkpt>
      <trkpt lat="48.39859" lon="-4.72914">
        <ele>52.915</ele>
        <time>2010-08-16T11:06:51Z</time>
      </trkpt>
      <trkpt lat="48.39957" lon="-4.72841">
        <ele>54.041</ele>
        <time>2010-08-16T11:07:11Z</time>
      </trkpt>
      <trkpt lat="48.40032" lon="-4.72793">
        <ele>57.05</ele>
        <time>2010-08-16T11:07:29Z</time>
      </trkpt>
      <trkpt lat="48.40069" lon="-4.7278">
        <ele>60.109</ele>
        <time>2010-08-16T11:07:42Z</time>
      </trkpt>
      <trkpt lat="48.40114" lon="-4.72767">
        <ele>63.515</ele>
        <time>2010-08-16T11:07:57Z</time>
      </trkpt>
      <trkpt lat="48.40166" lon="-4.72752">
        <ele>65.953</ele>
        <time>2010-08-16T11:08:16Z</time>
      </trkpt>
      <trkpt lat="48.40225" lon="-4.7275">
        <ele>65.866</ele>
        <time>2010-08-16T11:08:34Z</time>
      </trkpt>
      <trkpt lat="48.40299" lon="-4.72729">
        <ele>68.386</ele>
        <time>2010-08-16T11:08:55Z</time>
      </trkpt>
      <trkpt lat="48.40339" lon="-4.72717">
        <ele>70.451</ele>
        <time>2010-08-16T11:09:08Z</time>
      </trkpt>
      <trkpt lat="48.40348" lon="-4.72647">
        <ele>72.097</ele>
        <time>2010-08-16T11:09:21Z</time>
      </trkpt>
      <trkpt lat="48.40353" lon="-4.72556">
        <ele>75.136</ele>
        <time>2010-08-16T11:09:38Z</time>
      </trkpt>
      <trkpt lat="48.40349" lon="-4.72469">
        <ele>78.256</ele>
        <time>2010-08-16T11:09:54Z</time>
      </trkpt>
      <trkpt lat="48.4034" lon="-4.72392">
        <ele>80.703</ele>
        <time>2010-08-16T11:10:11Z</time>
      </trkpt>
      <trkpt lat="48.4034" lon="-4.72325">
        <ele>82.944</ele>
        <time>2010-08-16T11:10:27Z</time>
      </trkpt>
      <trkpt lat="48.4034" lon="-4.72322">
        <ele>82.902</ele>
        <time>2010-08-16T11:10:31Z</time>
      </trkpt>
      <trkpt lat="48.40324" lon="-4.72307">
        <ele>82.71</ele>
        <time>2010-08-16T11:10:34Z</time>
      </trkpt>
      <trkpt lat="48.40336" lon="-4.72309">
        <ele>83.027</ele>
        <time>2010-08-16T11:10:42Z</time>
      </trkpt>
      <trkpt lat="48.40336" lon="-4.72309">
        <ele>83.376</ele>
        <time>2010-08-16T11:10:56Z</time>
      </trkpt>
      <trkpt lat="48.40336" lon="-4.72309">
        <ele>83.656</ele>
        <time>2010-08-16T11:11:05Z</time>
      </trkpt>
    </trkseg>
  </trk>
  <trk>
    <name><![CDATA[ACTIVE LOG131107]]></name>
    <trkseg>
      <trkpt lat="48.40336" lon="-4.72309">
        <ele>83.656</ele>
        <time>2010-08-16T11:11:07Z</time>
      </trkpt>
      <trkpt lat="48.40336" lon="-4.72309">
        <ele>76.564</ele>
        <time>2010-08-16T11:11:08Z</time>
      </trkpt>
    </trkseg>
  </trk>
  <trk>
    <name><![CDATA[ACTIVE LOG131352]]></name>
    <trkseg>
      <trkpt lat="48.40336" lon="-4.72309">
        <ele>76.276</ele>
        <time>2010-08-16T11:13:52Z</time>
      </trkpt>
      <trkpt lat="48.40324" lon="-4.7228">
        <ele>76.69</ele>
        <time>2010-08-16T11:14:15Z</time>
      </trkpt>
      <trkpt lat="48.40325" lon="-4.72302">
        <ele>76.613</ele>
        <time>2010-08-16T11:14:23Z</time>
      </trkpt>
      <trkpt lat="48.40336" lon="-4.72307">
        <ele>76.672</ele>
        <time>2010-08-16T11:14:28Z</time>
      </trkpt>
      <trkpt lat="48.40344" lon="-4.72309">
        <ele>76.23</ele>
        <time>2010-08-16T11:14:30Z</time>
      </trkpt>
      <trkpt lat="48.40355" lon="-4.72329">
        <ele>76.08</ele>
        <time>2010-08-16T11:14:34Z</time>
      </trkpt>
      <trkpt lat="48.40371" lon="-4.72347">
        <ele>76.404</ele>
        <time>2010-08-16T11:14:38Z</time>
      </trkpt>
      <trkpt lat="48.40465" lon="-4.72457">
        <ele>77.293</ele>
        <time>2010-08-16T11:14:58Z</time>
      </trkpt>
      <trkpt lat="48.40581" lon="-4.7257">
        <ele>78.942</ele>
        <time>2010-08-16T11:15:21Z</time>
      </trkpt>
      <trkpt lat="48.40619" lon="-4.72597">
        <ele>75.704</ele>
        <time>2010-08-16T11:15:30Z</time>
      </trkpt>
      <trkpt lat="48.40698" lon="-4.72641">
        <ele>72.481</ele>
        <time>2010-08-16T11:15:38Z</time>
      </trkpt>
      <trkpt lat="48.40723" lon="-4.72648">
        <ele>73.027</ele>
        <time>2010-08-16T11:15:41Z</time>
      </trkpt>
      <trkpt lat="48.40774" lon="-4.72657">
        <ele>75.164</ele>
        <time>2010-08-16T11:15:48Z</time>
      </trkpt>
      <trkpt lat="48.40801" lon="-4.72657">
        <ele>76.932</ele>
        <time>2010-08-16T11:15:53Z</time>
      </trkpt>
      <trkpt lat="48.40858" lon="-4.72667">
        <ele>79.396</ele>
        <time>2010-08-16T11:16:05Z</time>
      </trkpt>
      <trkpt lat="48.40874" lon="-4.72673">
        <ele>79.943</ele>
        <time>2010-08-16T11:16:08Z</time>
      </trkpt>
      <trkpt lat="48.40935" lon="-4.72695">
        <ele>82.529</ele>
        <time>2010-08-16T11:16:21Z</time>
      </trkpt>
      <trkpt lat="48.41055" lon="-4.72753">
        <ele>79.856</ele>
        <time>2010-08-16T11:16:44Z</time>
      </trkpt>
      <trkpt lat="48.41148" lon="-4.72798">
        <ele>76.801</ele>
        <time>2010-08-16T11:16:58Z</time>
      </trkpt>
      <trkpt lat="48.41233" lon="-4.72834">
        <ele>73.605</ele>
        <time>2010-08-16T11:17:10Z</time>
      </trkpt>
      <trkpt lat="48.41397" lon="-4.72888">
        <ele>71.218</ele>
        <time>2010-08-16T11:17:31Z</time>
      </trkpt>
      <trkpt lat="48.41493" lon="-4.72889">
        <ele>74.007</ele>
        <time>2010-08-16T11:17:43Z</time>
      </trkpt>
      <trkpt lat="48.41552" lon="-4.72893">
        <ele>77.145</ele>
        <time>2010-08-16T11:17:53Z</time>
      </trkpt>
      <trkpt lat="48.41579" lon="-4.72904">
        <ele>79.077</ele>
        <time>2010-08-16T11:17:59Z</time>
      </trkpt>
      <trkpt lat="48.41651" lon="-4.72936">
        <ele>82.131</ele>
        <time>2010-08-16T11:18:14Z</time>
      </trkpt>
      <trkpt lat="48.41777" lon="-4.73008">
        <ele>80.348</ele>
        <time>2010-08-16T11:18:39Z</time>
      </trkpt>
      <trkpt lat="48.41824" lon="-4.73046">
        <ele>77.287</ele>
        <time>2010-08-16T11:18:47Z</time>
      </trkpt>
      <trkpt lat="48.41928" lon="-4.73111">
        <ele>73.971</ele>
        <time>2010-08-16T11:19:02Z</time>
      </trkpt>
      <trkpt lat="48.42097" lon="-4.73179">
        <ele>75.011</ele>
        <time>2010-08-16T11:19:26Z</time>
      </trkpt>
      <trkpt lat="48.4214" lon="-4.73188">
        <ele>76.538</ele>
        <time>2010-08-16T11:19:33Z</time>
      </trkpt>
      <trkpt lat="48.42277" lon="-4.73158">
        <ele>77.563</ele>
        <time>2010-08-16T11:19:56Z</time>
      </trkpt>
      <trkpt lat="48.42364" lon="-4.73133">
        <ele>80.573</ele>
        <time>2010-08-16T11:20:12Z</time>
      </trkpt>
      <trkpt lat="48.42493" lon="-4.73122">
        <ele>81.352</ele>
        <time>2010-08-16T11:20:37Z</time>
      </trkpt>
      <trkpt lat="48.42625" lon="-4.73123">
        <ele>81.797</ele>
        <time>2010-08-16T11:21:00Z</time>
      </trkpt>
      <trkpt lat="48.42721" lon="-4.7313">
        <ele>78.404</ele>
        <time>2010-08-16T11:21:15Z</time>
      </trkpt>
      <trkpt lat="48.42763" lon="-4.73148">
        <ele>76.086</ele>
        <time>2010-08-16T11:21:21Z</time>
      </trkpt>
      <trkpt lat="48.42796" lon="-4.73177">
        <ele>73.537</ele>
        <time>2010-08-16T11:21:26Z</time>
      </trkpt>
      <trkpt lat="48.42911" lon="-4.73276">
        <ele>70.115</ele>
        <time>2010-08-16T11:21:42Z</time>
      </trkpt>
      <trkpt lat="48.4304" lon="-4.73371">
        <ele>67.672</ele>
        <time>2010-08-16T11:22:00Z</time>
      </trkpt>
      <trkpt lat="48.43094" lon="-4.7338">
        <ele>66.928</ele>
        <time>2010-08-16T11:22:07Z</time>
      </trkpt>
      <trkpt lat="48.431" lon="-4.73378">
        <ele>67.815</ele>
        <time>2010-08-16T11:22:09Z</time>
      </trkpt>
      <trkpt lat="48.43188" lon="-4.7331">
        <ele>68.542</ele>
        <time>2010-08-16T11:22:22Z</time>
      </trkpt>
      <trkpt lat="48.43244" lon="-4.73263">
        <ele>69.002</ele>
        <time>2010-08-16T11:22:32Z</time>
      </trkpt>
      <trkpt lat="48.43281" lon="-4.73227">
        <ele>70.537</ele>
        <time>2010-08-16T11:22:40Z</time>
      </trkpt>
      <trkpt lat="48.43349" lon="-4.7313">
        <ele>71.801</ele>
        <time>2010-08-16T11:22:57Z</time>
      </trkpt>
      <trkpt lat="48.43359" lon="-4.73115">
        <ele>71.53</ele>
        <time>2010-08-16T11:23:00Z</time>
      </trkpt>
      <trkpt lat="48.43387" lon="-4.73099">
        <ele>71.057</ele>
        <time>2010-08-16T11:23:08Z</time>
      </trkpt>
      <trkpt lat="48.43417" lon="-4.73124">
        <ele>71.074</ele>
        <time>2010-08-16T11:23:15Z</time>
      </trkpt>
      <trkpt lat="48.43427" lon="-4.73214">
        <ele>68.519</ele>
        <time>2010-08-16T11:23:26Z</time>
      </trkpt>
      <trkpt lat="48.43442" lon="-4.73317">
        <ele>64.964</ele>
        <time>2010-08-16T11:23:36Z</time>
      </trkpt>
      <trkpt lat="48.43487" lon="-4.73468">
        <ele>61.943</ele>
        <time>2010-08-16T11:23:51Z</time>
      </trkpt>
      <trkpt lat="48.43507" lon="-4.7353">
        <ele>59.502</ele>
        <time>2010-08-16T11:23:57Z</time>
      </trkpt>
      <trkpt lat="48.43575" lon="-4.73655">
        <ele>59.301</ele>
        <time>2010-08-16T11:24:12Z</time>
      </trkpt>
      <trkpt lat="48.43616" lon="-4.73719">
        <ele>56.711</ele>
        <time>2010-08-16T11:24:20Z</time>
      </trkpt>
      <trkpt lat="48.43713" lon="-4.73858">
        <ele>54.854</ele>
        <time>2010-08-16T11:24:39Z</time>
      </trkpt>
      <trkpt lat="48.43823" lon="-4.74006">
        <ele>56.892</ele>
        <time>2010-08-16T11:24:58Z</time>
      </trkpt>
      <trkpt lat="48.43907" lon="-4.74035">
        <ele>57.365</ele>
        <time>2010-08-16T11:25:12Z</time>
      </trkpt>
      <trkpt lat="48.44006" lon="-4.74053">
        <ele>54.215</ele>
        <time>2010-08-16T11:25:27Z</time>
      </trkpt>
      <trkpt lat="48.44013" lon="-4.74054">
        <ele>54.705</ele>
        <time>2010-08-16T11:25:28Z</time>
      </trkpt>
      <trkpt lat="48.44064" lon="-4.74065">
        <ele>54.29</ele>
        <time>2010-08-16T11:25:38Z</time>
      </trkpt>
      <trkpt lat="48.44185" lon="-4.74097">
        <ele>53.048</ele>
        <time>2010-08-16T11:25:58Z</time>
      </trkpt>
      <trkpt lat="48.44337" lon="-4.74122">
        <ele>53.896</ele>
        <time>2010-08-16T11:26:23Z</time>
      </trkpt>
      <trkpt lat="48.44535" lon="-4.74087">
        <ele>52.88</ele>
        <time>2010-08-16T11:26:53Z</time>
      </trkpt>
      <trkpt lat="48.44603" lon="-4.74076">
        <ele>56.06</ele>
        <time>2010-08-16T11:27:04Z</time>
      </trkpt>
      <trkpt lat="48.44695" lon="-4.74057">
        <ele>59.298</ele>
        <time>2010-08-16T11:27:23Z</time>
      </trkpt>
      <trkpt lat="48.44792" lon="-4.74034">
        <ele>62.579</ele>
        <time>2010-08-16T11:27:44Z</time>
      </trkpt>
      <trkpt lat="48.44917" lon="-4.74004">
        <ele>62.328</ele>
        <time>2010-08-16T11:28:09Z</time>
      </trkpt>
      <trkpt lat="48.45062" lon="-4.73954">
        <ele>63.891</ele>
        <time>2010-08-16T11:28:36Z</time>
      </trkpt>
      <trkpt lat="48.45217" lon="-4.73932">
        <ele>62.732</ele>
        <time>2010-08-16T11:29:04Z</time>
      </trkpt>
      <trkpt lat="48.45323" lon="-4.73902">
        <ele>63.929</ele>
        <time>2010-08-16T11:29:21Z</time>
      </trkpt>
      <trkpt lat="48.45408" lon="-4.73868">
        <ele>66.933</ele>
        <time>2010-08-16T11:29:38Z</time>
      </trkpt>
      <trkpt lat="48.45511" lon="-4.73847">
        <ele>69.712</ele>
        <time>2010-08-16T11:30:00Z</time>
      </trkpt>
      <trkpt lat="48.45571" lon="-4.73833">
        <ele>71.499</ele>
        <time>2010-08-16T11:30:12Z</time>
      </trkpt>
      <trkpt lat="48.4563" lon="-4.73774">
        <ele>71.341</ele>
        <time>2010-08-16T11:30:28Z</time>
      </trkpt>
      <trkpt lat="48.45717" lon="-4.73687">
        <ele>68.706</ele>
        <time>2010-08-16T11:30:48Z</time>
      </trkpt>
      <trkpt lat="48.45792" lon="-4.73618">
        <ele>65.59</ele>
        <time>2010-08-16T11:31:00Z</time>
      </trkpt>
      <trkpt lat="48.4582" lon="-4.73594">
        <ele>64.532</ele>
        <time>2010-08-16T11:31:04Z</time>
      </trkpt>
      <trkpt lat="48.45904" lon="-4.73538">
        <ele>63.335</ele>
        <time>2010-08-16T11:31:15Z</time>
      </trkpt>
      <trkpt lat="48.45991" lon="-4.73431">
        <ele>62.144</ele>
        <time>2010-08-16T11:31:29Z</time>
      </trkpt>
      <trkpt lat="48.46105" lon="-4.73261">
        <ele>59.69</ele>
        <time>2010-08-16T11:31:48Z</time>
      </trkpt>
      <trkpt lat="48.46219" lon="-4.73099">
        <ele>56.133</ele>
        <time>2010-08-16T11:32:06Z</time>
      </trkpt>
      <trkpt lat="48.46226" lon="-4.73091">
        <ele>56.331</ele>
        <time>2010-08-16T11:32:07Z</time>
      </trkpt>
      <trkpt lat="48.46256" lon="-4.73054">
        <ele>53.161</ele>
        <time>2010-08-16T11:32:11Z</time>
      </trkpt>
      <trkpt lat="48.46263" lon="-4.73044">
        <ele>52.913</ele>
        <time>2010-08-16T11:32:12Z</time>
      </trkpt>
      <trkpt lat="48.4635" lon="-4.72922">
        <ele>48.835</ele>
        <time>2010-08-16T11:32:24Z</time>
      </trkpt>
      <trkpt lat="48.46366" lon="-4.72899">
        <ele>47.883</ele>
        <time>2010-08-16T11:32:26Z</time>
      </trkpt>
      <trkpt lat="48.46394" lon="-4.72869">
        <ele>44.76</ele>
        <time>2010-08-16T11:32:29Z</time>
      </trkpt>
      <trkpt lat="48.46403" lon="-4.72859">
        <ele>44.686</ele>
        <time>2010-08-16T11:32:30Z</time>
      </trkpt>
      <trkpt lat="48.46443" lon="-4.7282">
        <ele>41.644</ele>
        <time>2010-08-16T11:32:34Z</time>
      </trkpt>
      <trkpt lat="48.46447" lon="-4.72816">
        <ele>39.519</ele>
        <time>2010-08-16T11:32:36Z</time>
      </trkpt>
      <trkpt lat="48.46447" lon="-4.72816">
        <ele>38.513</ele>
        <time>2010-08-16T11:32:37Z</time>
      </trkpt>
      <trkpt lat="48.46527" lon="-4.72777">
        <ele>36.94</ele>
        <time>2010-08-16T11:32:42Z</time>
      </trkpt>
      <trkpt lat="48.46666" lon="-4.72758">
        <ele>36.77</ele>
        <time>2010-08-16T11:32:56Z</time>
      </trkpt>
      <trkpt lat="48.46676" lon="-4.72754">
        <ele>36.065</ele>
        <time>2010-08-16T11:32:57Z</time>
      </trkpt>
      <trkpt lat="48.46712" lon="-4.72682">
        <ele>37.22</ele>
        <time>2010-08-16T11:33:04Z</time>
      </trkpt>
      <trkpt lat="48.46731" lon="-4.72583">
        <ele>36.358</ele>
        <time>2010-08-16T11:33:12Z</time>
      </trkpt>
      <trkpt lat="48.46769" lon="-4.72485">
        <ele>32.642</ele>
        <time>2010-08-16T11:33:20Z</time>
      </trkpt>
      <trkpt lat="48.46786" lon="-4.72443">
        <ele>29.387</ele>
        <time>2010-08-16T11:33:23Z</time>
      </trkpt>
      <trkpt lat="48.46792" lon="-4.72429">
        <ele>29.364</ele>
        <time>2010-08-16T11:33:24Z</time>
      </trkpt>
      <trkpt lat="48.46814" lon="-4.72368">
        <ele>25.913</ele>
        <time>2010-08-16T11:33:28Z</time>
      </trkpt>
      <trkpt lat="48.46817" lon="-4.72351">
        <ele>26.087</ele>
        <time>2010-08-16T11:33:29Z</time>
      </trkpt>
      <trkpt lat="48.46842" lon="-4.72219">
        <ele>22.393</ele>
        <time>2010-08-16T11:33:37Z</time>
      </trkpt>
      <trkpt lat="48.46858" lon="-4.72136">
        <ele>19.361</ele>
        <time>2010-08-16T11:33:42Z</time>
      </trkpt>
      <trkpt lat="48.46861" lon="-4.7212">
        <ele>19.24</ele>
        <time>2010-08-16T11:33:43Z</time>
      </trkpt>
      <trkpt lat="48.4687" lon="-4.7207">
        <ele>18.175</ele>
        <time>2010-08-16T11:33:46Z</time>
      </trkpt>
      <trkpt lat="48.46867" lon="-4.71984">
        <ele>16.373</ele>
        <time>2010-08-16T11:33:51Z</time>
      </trkpt>
      <trkpt lat="48.46858" lon="-4.71932">
        <ele>14.731</ele>
        <time>2010-08-16T11:33:54Z</time>
      </trkpt>
      <trkpt lat="48.46845" lon="-4.71859">
        <ele>11.249</ele>
        <time>2010-08-16T11:33:58Z</time>
      </trkpt>
      <trkpt lat="48.46836" lon="-4.71803">
        <ele>9.735</ele>
        <time>2010-08-16T11:34:01Z</time>
      </trkpt>
      <trkpt lat="48.46826" lon="-4.71746">
        <ele>7.393</ele>
        <time>2010-08-16T11:34:04Z</time>
      </trkpt>
      <trkpt lat="48.4684" lon="-4.71681">
        <ele>3.793</ele>
        <time>2010-08-16T11:34:08Z</time>
      </trkpt>
      <trkpt lat="48.46855" lon="-4.7167">
        <ele>0.931</ele>
        <time>2010-08-16T11:34:11Z</time>
      </trkpt>
      <trkpt lat="48.46921" lon="-4.71669">
        <ele>4.962</ele>
        <time>2010-08-16T11:34:16Z</time>
      </trkpt>
      <trkpt lat="48.46936" lon="-4.71667">
        <ele>7.42</ele>
        <time>2010-08-16T11:34:18Z</time>
      </trkpt>
      <trkpt lat="48.46956" lon="-4.71661">
        <ele>8.646</ele>
        <time>2010-08-16T11:34:21Z</time>
      </trkpt>
      <trkpt lat="48.47027" lon="-4.71643">
        <ele>11.991</ele>
        <time>2010-08-16T11:34:33Z</time>
      </trkpt>
      <trkpt lat="48.47093" lon="-4.71631">
        <ele>13.714</ele>
        <time>2010-08-16T11:34:46Z</time>
      </trkpt>
      <trkpt lat="48.47109" lon="-4.71617">
        <ele>14.089</ele>
        <time>2010-08-16T11:34:50Z</time>
      </trkpt>
      <trkpt lat="48.4718" lon="-4.71503">
        <ele>14.505</ele>
        <time>2010-08-16T11:35:11Z</time>
      </trkpt>
      <trkpt lat="48.47192" lon="-4.71473">
        <ele>13.916</ele>
        <time>2010-08-16T11:35:15Z</time>
      </trkpt>
      <trkpt lat="48.4721" lon="-4.71375">
        <ele>13.375</ele>
        <time>2010-08-16T11:35:26Z</time>
      </trkpt>
      <trkpt lat="48.47239" lon="-4.71273">
        <ele>13.404</ele>
        <time>2010-08-16T11:35:38Z</time>
      </trkpt>
      <trkpt lat="48.47251" lon="-4.71243">
        <ele>12.383</ele>
        <time>2010-08-16T11:35:45Z</time>
      </trkpt>
      <trkpt lat="48.47264" lon="-4.71251">
        <ele>11.256</ele>
        <time>2010-08-16T11:35:49Z</time>
      </trkpt>
      <trkpt lat="48.47274" lon="-4.71265">
        <ele>10.952</ele>
        <time>2010-08-16T11:35:52Z</time>
      </trkpt>
      <trkpt lat="48.47295" lon="-4.71325">
        <ele>13.67</ele>
        <time>2010-08-16T11:36:02Z</time>
      </trkpt>
      <trkpt lat="48.47299" lon="-4.71341">
        <ele>15.034</ele>
        <time>2010-08-16T11:36:05Z</time>
      </trkpt>
      <trkpt lat="48.47317" lon="-4.71387">
        <ele>17.942</ele>
        <time>2010-08-16T11:36:16Z</time>
      </trkpt>
      <trkpt lat="48.47351" lon="-4.71435">
        <ele>21.084</ele>
        <time>2010-08-16T11:36:30Z</time>
      </trkpt>
      <trkpt lat="48.47404" lon="-4.71467">
        <ele>23.727</ele>
        <time>2010-08-16T11:36:47Z</time>
      </trkpt>
      <trkpt lat="48.47443" lon="-4.71489">
        <ele>26.879</ele>
        <time>2010-08-16T11:37:04Z</time>
      </trkpt>
      <trkpt lat="48.47523" lon="-4.71556">
        <ele>26.683</ele>
        <time>2010-08-16T11:37:24Z</time>
      </trkpt>
      <trkpt lat="48.47578" lon="-4.7161">
        <ele>24.397</ele>
        <time>2010-08-16T11:37:37Z</time>
      </trkpt>
      <trkpt lat="48.47595" lon="-4.71627">
        <ele>23.138</ele>
        <time>2010-08-16T11:37:40Z</time>
      </trkpt>
      <trkpt lat="48.47612" lon="-4.71646">
        <ele>21.899</ele>
        <time>2010-08-16T11:37:43Z</time>
      </trkpt>
      <trkpt lat="48.47708" lon="-4.71773">
        <ele>21.215</ele>
        <time>2010-08-16T11:38:01Z</time>
      </trkpt>
      <trkpt lat="48.47722" lon="-4.7181">
        <ele>23.324</ele>
        <time>2010-08-16T11:38:06Z</time>
      </trkpt>
      <trkpt lat="48.47725" lon="-4.71861">
        <ele>23.238</ele>
        <time>2010-08-16T11:38:12Z</time>
      </trkpt>
      <trkpt lat="48.47711" lon="-4.72026">
        <ele>21.184</ele>
        <time>2010-08-16T11:38:29Z</time>
      </trkpt>
      <trkpt lat="48.47709" lon="-4.72052">
        <ele>20.603</ele>
        <time>2010-08-16T11:38:32Z</time>
      </trkpt>
      <trkpt lat="48.47704" lon="-4.72098">
        <ele>18.942</ele>
        <time>2010-08-16T11:38:36Z</time>
      </trkpt>
      <trkpt lat="48.47704" lon="-4.72193">
        <ele>15.48</ele>
        <time>2010-08-16T11:38:44Z</time>
      </trkpt>
      <trkpt lat="48.47712" lon="-4.723">
        <ele>13.314</ele>
        <time>2010-08-16T11:38:53Z</time>
      </trkpt>
      <trkpt lat="48.47713" lon="-4.72361">
        <ele>9.083</ele>
        <time>2010-08-16T11:38:58Z</time>
      </trkpt>
      <trkpt lat="48.47713" lon="-4.72374">
        <ele>8.55</ele>
        <time>2010-08-16T11:38:59Z</time>
      </trkpt>
      <trkpt lat="48.47713" lon="-4.72382">
        <ele>7.646</ele>
        <time>2010-08-16T11:39:01Z</time>
      </trkpt>
      <trkpt lat="48.47727" lon="-4.72458">
        <ele>5.791</ele>
        <time>2010-08-16T11:39:05Z</time>
      </trkpt>
      <trkpt lat="48.47735" lon="-4.72521">
        <ele>8.07</ele>
        <time>2010-08-16T11:39:10Z</time>
      </trkpt>
      <trkpt lat="48.47727" lon="-4.72556">
        <ele>11.039</ele>
        <time>2010-08-16T11:39:14Z</time>
      </trkpt>
      <trkpt lat="48.4772" lon="-4.7259">
        <ele>13.3</ele>
        <time>2010-08-16T11:39:19Z</time>
      </trkpt>
      <trkpt lat="48.47708" lon="-4.72668">
        <ele>16.363</ele>
        <time>2010-08-16T11:39:32Z</time>
      </trkpt>
      <trkpt lat="48.47701" lon="-4.72747">
        <ele>18.01</ele>
        <time>2010-08-16T11:39:44Z</time>
      </trkpt>
      <trkpt lat="48.47703" lon="-4.72937">
        <ele>16.655</ele>
        <time>2010-08-16T11:40:07Z</time>
      </trkpt>
      <trkpt lat="48.47694" lon="-4.73113">
        <ele>18.272</ele>
        <time>2010-08-16T11:40:27Z</time>
      </trkpt>
      <trkpt lat="48.47668" lon="-4.7326">
        <ele>20.049</ele>
        <time>2010-08-16T11:40:46Z</time>
      </trkpt>
      <trkpt lat="48.47654" lon="-4.73437">
        <ele>19.866</ele>
        <time>2010-08-16T11:41:07Z</time>
      </trkpt>
      <trkpt lat="48.47654" lon="-4.73475">
        <ele>17.479</ele>
        <time>2010-08-16T11:41:11Z</time>
      </trkpt>
      <trkpt lat="48.47656" lon="-4.73536">
        <ele>15.514</ele>
        <time>2010-08-16T11:41:17Z</time>
      </trkpt>
      <trkpt lat="48.47685" lon="-4.73631">
        <ele>12.307</ele>
        <time>2010-08-16T11:41:26Z</time>
      </trkpt>
      <trkpt lat="48.47689" lon="-4.73642">
        <ele>11.85</ele>
        <time>2010-08-16T11:41:27Z</time>
      </trkpt>
      <trkpt lat="48.47696" lon="-4.73663">
        <ele>12.073</ele>
        <time>2010-08-16T11:41:29Z</time>
      </trkpt>
      <trkpt lat="48.47698" lon="-4.73719">
        <ele>14.569</ele>
        <time>2010-08-16T11:41:35Z</time>
      </trkpt>
      <trkpt lat="48.47694" lon="-4.73731">
        <ele>15.202</ele>
        <time>2010-08-16T11:41:37Z</time>
      </trkpt>
      <trkpt lat="48.47687" lon="-4.73753">
        <ele>16.266</ele>
        <time>2010-08-16T11:41:41Z</time>
      </trkpt>
      <trkpt lat="48.47677" lon="-4.73784">
        <ele>16.708</ele>
        <time>2010-08-16T11:41:46Z</time>
      </trkpt>
      <trkpt lat="48.47669" lon="-4.73809">
        <ele>17.519</ele>
        <time>2010-08-16T11:41:50Z</time>
      </trkpt>
      <trkpt lat="48.4765" lon="-4.73837">
        <ele>18.666</ele>
        <time>2010-08-16T11:41:55Z</time>
      </trkpt>
      <trkpt lat="48.47594" lon="-4.73901">
        <ele>15.795</ele>
        <time>2010-08-16T11:42:06Z</time>
      </trkpt>
      <trkpt lat="48.47575" lon="-4.73937">
        <ele>14.857</ele>
        <time>2010-08-16T11:42:10Z</time>
      </trkpt>
      <trkpt lat="48.47572" lon="-4.73957">
        <ele>14.196</ele>
        <time>2010-08-16T11:42:12Z</time>
      </trkpt>
      <trkpt lat="48.47554" lon="-4.74049">
        <ele>10.424</ele>
        <time>2010-08-16T11:42:21Z</time>
      </trkpt>
      <trkpt lat="48.47554" lon="-4.7406">
        <ele>10.428</ele>
        <time>2010-08-16T11:42:22Z</time>
      </trkpt>
      <trkpt lat="48.47553" lon="-4.74071">
        <ele>10.475</ele>
        <time>2010-08-16T11:42:23Z</time>
      </trkpt>
      <trkpt lat="48.4755" lon="-4.74137">
        <ele>9.606</ele>
        <time>2010-08-16T11:42:29Z</time>
      </trkpt>
      <trkpt lat="48.47541" lon="-4.74172">
        <ele>9.493</ele>
        <time>2010-08-16T11:42:33Z</time>
      </trkpt>
      <trkpt lat="48.47505" lon="-4.74245">
        <ele>13.013</ele>
        <time>2010-08-16T11:42:41Z</time>
      </trkpt>
      <trkpt lat="48.47491" lon="-4.74272">
        <ele>13.48</ele>
        <time>2010-08-16T11:42:45Z</time>
      </trkpt>
      <trkpt lat="48.47487" lon="-4.74289">
        <ele>13.712</ele>
        <time>2010-08-16T11:42:47Z</time>
      </trkpt>
      <trkpt lat="48.47481" lon="-4.74373">
        <ele>16.899</ele>
        <time>2010-08-16T11:43:01Z</time>
      </trkpt>
      <trkpt lat="48.47473" lon="-4.74419">
        <ele>15.332</ele>
        <time>2010-08-16T11:43:04Z</time>
      </trkpt>
      <trkpt lat="48.47471" lon="-4.74426">
        <ele>15.482</ele>
        <time>2010-08-16T11:43:05Z</time>
      </trkpt>
      <trkpt lat="48.47464" lon="-4.74455">
        <ele>14.288</ele>
        <time>2010-08-16T11:43:09Z</time>
      </trkpt>
      <trkpt lat="48.47451" lon="-4.74507">
        <ele>12.444</ele>
        <time>2010-08-16T11:43:15Z</time>
      </trkpt>
      <trkpt lat="48.47438" lon="-4.74532">
        <ele>14.239</ele>
        <time>2010-08-16T11:43:21Z</time>
      </trkpt>
      <trkpt lat="48.47421" lon="-4.74545">
        <ele>14.421</ele>
        <time>2010-08-16T11:43:22Z</time>
      </trkpt>
      <trkpt lat="48.47367" lon="-4.7459">
        <ele>12.59</ele>
        <time>2010-08-16T11:43:32Z</time>
      </trkpt>
      <trkpt lat="48.47357" lon="-4.746">
        <ele>11.791</ele>
        <time>2010-08-16T11:43:34Z</time>
      </trkpt>
      <trkpt lat="48.4734" lon="-4.74623">
        <ele>13.3</ele>
        <time>2010-08-16T11:43:38Z</time>
      </trkpt>
      <trkpt lat="48.47333" lon="-4.7464">
        <ele>13.158</ele>
        <time>2010-08-16T11:43:40Z</time>
      </trkpt>
      <trkpt lat="48.47309" lon="-4.74716">
        <ele>11.235</ele>
        <time>2010-08-16T11:43:49Z</time>
      </trkpt>
      <trkpt lat="48.47308" lon="-4.74823">
        <ele>8.051</ele>
        <time>2010-08-16T11:43:59Z</time>
      </trkpt>
      <trkpt lat="48.47314" lon="-4.74869">
        <ele>5.393</ele>
        <time>2010-08-16T11:44:03Z</time>
      </trkpt>
      <trkpt lat="48.47352" lon="-4.74939">
        <ele>3.798</ele>
        <time>2010-08-16T11:44:11Z</time>
      </trkpt>
      <trkpt lat="48.47424" lon="-4.75011">
        <ele>3.529</ele>
        <time>2010-08-16T11:44:23Z</time>
      </trkpt>
      <trkpt lat="48.47432" lon="-4.75027">
        <ele>2.498</ele>
        <time>2010-08-16T11:44:25Z</time>
      </trkpt>
      <trkpt lat="48.47437" lon="-4.75071">
        <ele>0.733</ele>
        <time>2010-08-16T11:44:29Z</time>
      </trkpt>
      <trkpt lat="48.47432" lon="-4.75102">
        <ele>2.515</ele>
        <time>2010-08-16T11:44:32Z</time>
      </trkpt>
      <trkpt lat="48.47421" lon="-4.75116">
        <ele>2.59</ele>
        <time>2010-08-16T11:44:34Z</time>
      </trkpt>
      <trkpt lat="48.47364" lon="-4.75199">
        <ele>1.599</ele>
        <time>2010-08-16T11:44:46Z</time>
      </trkpt>
      <trkpt lat="48.47339" lon="-4.75315">
        <ele>3.054</ele>
        <time>2010-08-16T11:44:59Z</time>
      </trkpt>
      <trkpt lat="48.47326" lon="-4.75397">
        <ele>5.366</ele>
        <time>2010-08-16T11:45:10Z</time>
      </trkpt>
      <trkpt lat="48.47323" lon="-4.75422">
        <ele>6.52</ele>
        <time>2010-08-16T11:45:14Z</time>
      </trkpt>
      <trkpt lat="48.47328" lon="-4.75466">
        <ele>8.549</ele>
        <time>2010-08-16T11:45:21Z</time>
      </trkpt>
      <trkpt lat="48.47353" lon="-4.75522">
        <ele>11.829</ele>
        <time>2010-08-16T11:45:34Z</time>
      </trkpt>
      <trkpt lat="48.47398" lon="-4.75583">
        <ele>14.07</ele>
        <time>2010-08-16T11:45:51Z</time>
      </trkpt>
      <trkpt lat="48.47472" lon="-4.75684">
        <ele>14.939</ele>
        <time>2010-08-16T11:46:15Z</time>
      </trkpt>
      <trkpt lat="48.47546" lon="-4.75786">
        <ele>16.084</ele>
        <time>2010-08-16T11:46:38Z</time>
      </trkpt>
      <trkpt lat="48.47624" lon="-4.75892">
        <ele>17.08</ele>
        <time>2010-08-16T11:47:01Z</time>
      </trkpt>
      <trkpt lat="48.47705" lon="-4.76009">
        <ele>18.888</ele>
        <time>2010-08-16T11:47:23Z</time>
      </trkpt>
      <trkpt lat="48.47758" lon="-4.76112">
        <ele>19.614</ele>
        <time>2010-08-16T11:47:40Z</time>
      </trkpt>
      <trkpt lat="48.4777" lon="-4.76156">
        <ele>17.947</ele>
        <time>2010-08-16T11:47:46Z</time>
      </trkpt>
      <trkpt lat="48.47797" lon="-4.76331">
        <ele>14.101</ele>
        <time>2010-08-16T11:48:05Z</time>
      </trkpt>
      <trkpt lat="48.47802" lon="-4.76351">
        <ele>13.446</ele>
        <time>2010-08-16T11:48:07Z</time>
      </trkpt>
      <trkpt lat="48.47835" lon="-4.76443">
        <ele>10.314</ele>
        <time>2010-08-16T11:48:16Z</time>
      </trkpt>
      <trkpt lat="48.47924" lon="-4.76599">
        <ele>10.189</ele>
        <time>2010-08-16T11:48:35Z</time>
      </trkpt>
      <trkpt lat="48.47973" lon="-4.76634">
        <ele>6.393</ele>
        <time>2010-08-16T11:48:42Z</time>
      </trkpt>
      <trkpt lat="48.47981" lon="-4.76638">
        <ele>6.115</ele>
        <time>2010-08-16T11:48:43Z</time>
      </trkpt>
      <trkpt lat="48.48009" lon="-4.76652">
        <ele>3.002</ele>
        <time>2010-08-16T11:48:48Z</time>
      </trkpt>
      <trkpt lat="48.48075" lon="-4.76658">
        <ele>4.712</ele>
        <time>2010-08-16T11:48:54Z</time>
      </trkpt>
      <trkpt lat="48.48101" lon="-4.76677">
        <ele>6.105</ele>
        <time>2010-08-16T11:48:58Z</time>
      </trkpt>
      <trkpt lat="48.48166" lon="-4.76756">
        <ele>6.659</ele>
        <time>2010-08-16T11:49:11Z</time>
      </trkpt>
      <trkpt lat="48.48248" lon="-4.76824">
        <ele>5.771</ele>
        <time>2010-08-16T11:49:25Z</time>
      </trkpt>
      <trkpt lat="48.48284" lon="-4.7688">
        <ele>5.642</ele>
        <time>2010-08-16T11:49:33Z</time>
      </trkpt>
      <trkpt lat="48.48299" lon="-4.7698">
        <ele>6.564</ele>
        <time>2010-08-16T11:49:43Z</time>
      </trkpt>
      <trkpt lat="48.48312" lon="-4.77024">
        <ele>6.796</ele>
        <time>2010-08-16T11:49:48Z</time>
      </trkpt>
      <trkpt lat="48.4832" lon="-4.77037">
        <ele>7.015</ele>
        <time>2010-08-16T11:49:50Z</time>
      </trkpt>
      <trkpt lat="48.48331" lon="-4.77056">
        <ele>7.394</ele>
        <time>2010-08-16T11:49:53Z</time>
      </trkpt>
      <trkpt lat="48.48414" lon="-4.77095">
        <ele>4.06</ele>
        <time>2010-08-16T11:50:08Z</time>
      </trkpt>
      <trkpt lat="48.48421" lon="-4.77096">
        <ele>3.897</ele>
        <time>2010-08-16T11:50:09Z</time>
      </trkpt>
      <trkpt lat="48.48435" lon="-4.771">
        <ele>2.517</ele>
        <time>2010-08-16T11:50:11Z</time>
      </trkpt>
      <trkpt lat="48.48558" lon="-4.77117">
        <ele>3.644</ele>
        <time>2010-08-16T11:50:30Z</time>
      </trkpt>
      <trkpt lat="48.48675" lon="-4.77125">
        <ele>5.05</ele>
        <time>2010-08-16T11:50:50Z</time>
      </trkpt>
      <trkpt lat="48.48757" lon="-4.77082">
        <ele>6.964</ele>
        <time>2010-08-16T11:51:06Z</time>
      </trkpt>
      <trkpt lat="48.48762" lon="-4.77079">
        <ele>7.427</ele>
        <time>2010-08-16T11:51:07Z</time>
      </trkpt>
      <trkpt lat="48.48794" lon="-4.7706">
        <ele>8.474</ele>
        <time>2010-08-16T11:51:15Z</time>
      </trkpt>
      <trkpt lat="48.48833" lon="-4.77">
        <ele>12.161</ele>
        <time>2010-08-16T11:51:30Z</time>
      </trkpt>
      <trkpt lat="48.48854" lon="-4.76959">
        <ele>14.388</ele>
        <time>2010-08-16T11:51:39Z</time>
      </trkpt>
      <trkpt lat="48.48889" lon="-4.76922">
        <ele>16.019</ele>
        <time>2010-08-16T11:51:49Z</time>
      </trkpt>
      <trkpt lat="48.48959" lon="-4.76822">
        <ele>15.425</ele>
        <time>2010-08-16T11:52:09Z</time>
      </trkpt>
      <trkpt lat="48.4902" lon="-4.76731">
        <ele>18.481</ele>
        <time>2010-08-16T11:52:26Z</time>
      </trkpt>
      <trkpt lat="48.49102" lon="-4.76655">
        <ele>19.542</ele>
        <time>2010-08-16T11:52:46Z</time>
      </trkpt>
      <trkpt lat="48.49172" lon="-4.76605">
        <ele>22.7</ele>
        <time>2010-08-16T11:53:04Z</time>
      </trkpt>
      <trkpt lat="48.49229" lon="-4.76536">
        <ele>23.728</ele>
        <time>2010-08-16T11:53:21Z</time>
      </trkpt>
      <trkpt lat="48.49307" lon="-4.76454">
        <ele>23.229</ele>
        <time>2010-08-16T11:53:38Z</time>
      </trkpt>
      <trkpt lat="48.49384" lon="-4.76456">
        <ele>24.437</ele>
        <time>2010-08-16T11:53:52Z</time>
      </trkpt>
      <trkpt lat="48.49528" lon="-4.76512">
        <ele>24.123</ele>
        <time>2010-08-16T11:54:18Z</time>
      </trkpt>
      <trkpt lat="48.49637" lon="-4.76538">
        <ele>24.309</ele>
        <time>2010-08-16T11:54:35Z</time>
      </trkpt>
      <trkpt lat="48.49699" lon="-4.76507">
        <ele>27.365</ele>
        <time>2010-08-16T11:54:47Z</time>
      </trkpt>
      <trkpt lat="48.49785" lon="-4.76453">
        <ele>29.577</ele>
        <time>2010-08-16T11:55:05Z</time>
      </trkpt>
      <trkpt lat="48.49872" lon="-4.7643">
        <ele>32.762</ele>
        <time>2010-08-16T11:55:23Z</time>
      </trkpt>
      <trkpt lat="48.49954" lon="-4.76416">
        <ele>35.449</ele>
        <time>2010-08-16T11:55:45Z</time>
      </trkpt>
      <trkpt lat="48.50007" lon="-4.7642">
        <ele>35.004</ele>
        <time>2010-08-16T11:56:00Z</time>
      </trkpt>
      <trkpt lat="48.50069" lon="-4.76433">
        <ele>31.91</ele>
        <time>2010-08-16T11:56:14Z</time>
      </trkpt>
      <trkpt lat="48.50247" lon="-4.76471">
        <ele>31.561</ele>
        <time>2010-08-16T11:56:39Z</time>
      </trkpt>
      <trkpt lat="48.50253" lon="-4.76475">
        <ele>31.654</ele>
        <time>2010-08-16T11:56:40Z</time>
      </trkpt>
      <trkpt lat="48.5037" lon="-4.76562">
        <ele>30.399</ele>
        <time>2010-08-16T11:57:00Z</time>
      </trkpt>
      <trkpt lat="48.50487" lon="-4.7663">
        <ele>29.301</ele>
        <time>2010-08-16T11:57:19Z</time>
      </trkpt>
      <trkpt lat="48.50551" lon="-4.76623">
        <ele>29.634</ele>
        <time>2010-08-16T11:57:29Z</time>
      </trkpt>
      <trkpt lat="48.50569" lon="-4.76619">
        <ele>27.941</ele>
        <time>2010-08-16T11:57:32Z</time>
      </trkpt>
      <trkpt lat="48.50674" lon="-4.76593">
        <ele>24.877</ele>
        <time>2010-08-16T11:57:48Z</time>
      </trkpt>
      <trkpt lat="48.50696" lon="-4.76587">
        <ele>23.449</ele>
        <time>2010-08-16T11:57:51Z</time>
      </trkpt>
      <trkpt lat="48.50809" lon="-4.76555">
        <ele>20.313</ele>
        <time>2010-08-16T11:58:07Z</time>
      </trkpt>
      <trkpt lat="48.50833" lon="-4.76547">
        <ele>17.84</ele>
        <time>2010-08-16T11:58:10Z</time>
      </trkpt>
      <trkpt lat="48.50842" lon="-4.76544">
        <ele>18.114</ele>
        <time>2010-08-16T11:58:11Z</time>
      </trkpt>
      <trkpt lat="48.50878" lon="-4.76508">
        <ele>14.59</ele>
        <time>2010-08-16T11:58:16Z</time>
      </trkpt>
      <trkpt lat="48.50906" lon="-4.76519">
        <ele>14.988</ele>
        <time>2010-08-16T11:58:20Z</time>
      </trkpt>
      <trkpt lat="48.50944" lon="-4.76511">
        <ele>17.74</ele>
        <time>2010-08-16T11:58:25Z</time>
      </trkpt>
      <trkpt lat="48.50953" lon="-4.76506">
        <ele>19.366</ele>
        <time>2010-08-16T11:58:28Z</time>
      </trkpt>
      <trkpt lat="48.50985" lon="-4.76498">
        <ele>18.523</ele>
        <time>2010-08-16T11:58:32Z</time>
      </trkpt>
      <trkpt lat="48.50998" lon="-4.76496">
        <ele>17.489</ele>
        <time>2010-08-16T11:58:34Z</time>
      </trkpt>
      <trkpt lat="48.51042" lon="-4.76487">
        <ele>14.259</ele>
        <time>2010-08-16T11:58:40Z</time>
      </trkpt>
      <trkpt lat="48.5105" lon="-4.76485">
        <ele>14.108</ele>
        <time>2010-08-16T11:58:41Z</time>
      </trkpt>
      <trkpt lat="48.51073" lon="-4.76481">
        <ele>11.808</ele>
        <time>2010-08-16T11:58:45Z</time>
      </trkpt>
      <trkpt lat="48.51125" lon="-4.76472">
        <ele>8.488</ele>
        <time>2010-08-16T11:58:50Z</time>
      </trkpt>
      <trkpt lat="48.51144" lon="-4.76468">
        <ele>7.68</ele>
        <time>2010-08-16T11:58:52Z</time>
      </trkpt>
      <trkpt lat="48.51214" lon="-4.76462">
        <ele>7.688</ele>
        <time>2010-08-16T11:59:00Z</time>
      </trkpt>
      <trkpt lat="48.51236" lon="-4.76468">
        <ele>7.09</ele>
        <time>2010-08-16T11:59:03Z</time>
      </trkpt>
      <trkpt lat="48.51333" lon="-4.76417">
        <ele>6.431</ele>
        <time>2010-08-16T11:59:16Z</time>
      </trkpt>
      <trkpt lat="48.51438" lon="-4.76386">
        <ele>8.558</ele>
        <time>2010-08-16T11:59:32Z</time>
      </trkpt>
      <trkpt lat="48.51525" lon="-4.76355">
        <ele>9.52</ele>
        <time>2010-08-16T11:59:45Z</time>
      </trkpt>
      <trkpt lat="48.51593" lon="-4.76319">
        <ele>5.851</ele>
        <time>2010-08-16T11:59:55Z</time>
      </trkpt>
      <trkpt lat="48.516" lon="-4.76315">
        <ele>5.769</ele>
        <time>2010-08-16T11:59:56Z</time>
      </trkpt>
      <trkpt lat="48.51714" lon="-4.76237">
        <ele>4.816</ele>
        <time>2010-08-16T12:00:12Z</time>
      </trkpt>
      <trkpt lat="48.51741" lon="-4.76215">
        <ele>5.067</ele>
        <time>2010-08-16T12:00:16Z</time>
      </trkpt>
      <trkpt lat="48.51806" lon="-4.7618">
        <ele>7.775</ele>
        <time>2010-08-16T12:00:26Z</time>
      </trkpt>
      <trkpt lat="48.51823" lon="-4.76166">
        <ele>7.471</ele>
        <time>2010-08-16T12:00:29Z</time>
      </trkpt>
      <trkpt lat="48.51867" lon="-4.76116">
        <ele>7.572</ele>
        <time>2010-08-16T12:00:39Z</time>
      </trkpt>
      <trkpt lat="48.51897" lon="-4.76033">
        <ele>8.424</ele>
        <time>2010-08-16T12:00:47Z</time>
      </trkpt>
      <trkpt lat="48.5191" lon="-4.76004">
        <ele>8.167</ele>
        <time>2010-08-16T12:00:51Z</time>
      </trkpt>
      <trkpt lat="48.51993" lon="-4.75902">
        <ele>8.85</ele>
        <time>2010-08-16T12:01:07Z</time>
      </trkpt>
      <trkpt lat="48.52014" lon="-4.75876">
        <ele>6.785</ele>
        <time>2010-08-16T12:01:11Z</time>
      </trkpt>
      <trkpt lat="48.52027" lon="-4.7586">
        <ele>5.793</ele>
        <time>2010-08-16T12:01:13Z</time>
      </trkpt>
      <trkpt lat="48.52058" lon="-4.75821">
        <ele>2.709</ele>
        <time>2010-08-16T12:01:18Z</time>
      </trkpt>
      <trkpt lat="48.52078" lon="-4.75794">
        <ele>2.591</ele>
        <time>2010-08-16T12:01:22Z</time>
      </trkpt>
      <trkpt lat="48.52142" lon="-4.75783">
        <ele>1.519</ele>
        <time>2010-08-16T12:01:30Z</time>
      </trkpt>
      <trkpt lat="48.52267" lon="-4.75839">
        <ele>3.81</ele>
        <time>2010-08-16T12:01:49Z</time>
      </trkpt>
      <trkpt lat="48.52354" lon="-4.7586">
        <ele>5.168</ele>
        <time>2010-08-16T12:02:03Z</time>
      </trkpt>
      <trkpt lat="48.52383" lon="-4.75861">
        <ele>5.844</ele>
        <time>2010-08-16T12:02:08Z</time>
      </trkpt>
      <trkpt lat="48.52405" lon="-4.75863">
        <ele>6.769</ele>
        <time>2010-08-16T12:02:12Z</time>
      </trkpt>
      <trkpt lat="48.52439" lon="-4.75834">
        <ele>7.198</ele>
        <time>2010-08-16T12:02:19Z</time>
      </trkpt>
      <trkpt lat="48.52461" lon="-4.75805">
        <ele>7.899</ele>
        <time>2010-08-16T12:02:24Z</time>
      </trkpt>
      <trkpt lat="48.52558" lon="-4.75678">
        <ele>8.352</ele>
        <time>2010-08-16T12:02:44Z</time>
      </trkpt>
      <trkpt lat="48.52621" lon="-4.75528">
        <ele>8.59</ele>
        <time>2010-08-16T12:03:01Z</time>
      </trkpt>
      <trkpt lat="48.52653" lon="-4.75408">
        <ele>8.843</ele>
        <time>2010-08-16T12:03:13Z</time>
      </trkpt>
      <trkpt lat="48.52665" lon="-4.75236">
        <ele>11.05</ele>
        <time>2010-08-16T12:03:30Z</time>
      </trkpt>
      <trkpt lat="48.5269" lon="-4.7509">
        <ele>12.494</ele>
        <time>2010-08-16T12:03:47Z</time>
      </trkpt>
      <trkpt lat="48.5275" lon="-4.74902">
        <ele>12.247</ele>
        <time>2010-08-16T12:04:11Z</time>
      </trkpt>
      <trkpt lat="48.52805" lon="-4.74766">
        <ele>10.439</ele>
        <time>2010-08-16T12:04:27Z</time>
      </trkpt>
      <trkpt lat="48.52826" lon="-4.74721">
        <ele>8.581</ele>
        <time>2010-08-16T12:04:32Z</time>
      </trkpt>
      <trkpt lat="48.52873" lon="-4.74594">
        <ele>7.801</ele>
        <time>2010-08-16T12:04:45Z</time>
      </trkpt>
      <trkpt lat="48.52906" lon="-4.74575">
        <ele>6.148</ele>
        <time>2010-08-16T12:04:50Z</time>
      </trkpt>
      <trkpt lat="48.52965" lon="-4.74649">
        <ele>8.589</ele>
        <time>2010-08-16T12:05:01Z</time>
      </trkpt>
      <trkpt lat="48.52969" lon="-4.74654">
        <ele>8.889</ele>
        <time>2010-08-16T12:05:02Z</time>
      </trkpt>
      <trkpt lat="48.52996" lon="-4.74682">
        <ele>11.649</ele>
        <time>2010-08-16T12:05:10Z</time>
      </trkpt>
      <trkpt lat="48.53057" lon="-4.74776">
        <ele>12.607</ele>
        <time>2010-08-16T12:05:25Z</time>
      </trkpt>
      <trkpt lat="48.53111" lon="-4.7488">
        <ele>10.514</ele>
        <time>2010-08-16T12:05:40Z</time>
      </trkpt>
      <trkpt lat="48.5318" lon="-4.74971">
        <ele>9.775</ele>
        <time>2010-08-16T12:05:56Z</time>
      </trkpt>
      <trkpt lat="48.53185" lon="-4.74977">
        <ele>9.921</ele>
        <time>2010-08-16T12:05:57Z</time>
      </trkpt>
      <trkpt lat="48.53209" lon="-4.75006">
        <ele>7.602</ele>
        <time>2010-08-16T12:06:02Z</time>
      </trkpt>
      <trkpt lat="48.53255" lon="-4.75025">
        <ele>8.155</ele>
        <time>2010-08-16T12:06:09Z</time>
      </trkpt>
      <trkpt lat="48.53268" lon="-4.75023">
        <ele>8.916</ele>
        <time>2010-08-16T12:06:11Z</time>
      </trkpt>
      <trkpt lat="48.53348" lon="-4.74994">
        <ele>12.099</ele>
        <time>2010-08-16T12:06:26Z</time>
      </trkpt>
      <trkpt lat="48.53442" lon="-4.7494">
        <ele>9.915</ele>
        <time>2010-08-16T12:06:42Z</time>
      </trkpt>
      <trkpt lat="48.53543" lon="-4.74882">
        <ele>12.935</ele>
        <time>2010-08-16T12:06:59Z</time>
      </trkpt>
      <trkpt lat="48.53582" lon="-4.7486">
        <ele>15.802</ele>
        <time>2010-08-16T12:07:07Z</time>
      </trkpt>
      <trkpt lat="48.53666" lon="-4.74827">
        <ele>16.559</ele>
        <time>2010-08-16T12:07:24Z</time>
      </trkpt>
      <trkpt lat="48.5378" lon="-4.7483">
        <ele>18.253</ele>
        <time>2010-08-16T12:07:44Z</time>
      </trkpt>
      <trkpt lat="48.5379" lon="-4.74831">
        <ele>19.005</ele>
        <time>2010-08-16T12:07:46Z</time>
      </trkpt>
      <trkpt lat="48.539" lon="-4.7484">
        <ele>22.384</ele>
        <time>2010-08-16T12:08:08Z</time>
      </trkpt>
      <trkpt lat="48.53985" lon="-4.74859">
        <ele>25.407</ele>
        <time>2010-08-16T12:08:26Z</time>
      </trkpt>
      <trkpt lat="48.54106" lon="-4.74871">
        <ele>25.607</ele>
        <time>2010-08-16T12:08:48Z</time>
      </trkpt>
      <trkpt lat="48.54229" lon="-4.74877">
        <ele>22.174</ele>
        <time>2010-08-16T12:09:07Z</time>
      </trkpt>
      <trkpt lat="48.54237" lon="-4.74876">
        <ele>20.717</ele>
        <time>2010-08-16T12:09:08Z</time>
      </trkpt>
      <trkpt lat="48.54254" lon="-4.74868">
        <ele>19.902</ele>
        <time>2010-08-16T12:09:10Z</time>
      </trkpt>
      <trkpt lat="48.54272" lon="-4.74857">
        <ele>15.929</ele>
        <time>2010-08-16T12:09:12Z</time>
      </trkpt>
      <trkpt lat="48.54312" lon="-4.74826">
        <ele>10.296</ele>
        <time>2010-08-16T12:09:16Z</time>
      </trkpt>
      <trkpt lat="48.54341" lon="-4.74789">
        <ele>7.911</ele>
        <time>2010-08-16T12:09:19Z</time>
      </trkpt>
      <trkpt lat="48.54368" lon="-4.74747">
        <ele>5.695</ele>
        <time>2010-08-16T12:09:22Z</time>
      </trkpt>
      <trkpt lat="48.54472" lon="-4.74595">
        <ele>6.93</ele>
        <time>2010-08-16T12:09:35Z</time>
      </trkpt>
      <trkpt lat="48.54492" lon="-4.74572">
        <ele>8.885</ele>
        <time>2010-08-16T12:09:38Z</time>
      </trkpt>
      <trkpt lat="48.54515" lon="-4.74546">
        <ele>11.615</ele>
        <time>2010-08-16T12:09:42Z</time>
      </trkpt>
      <trkpt lat="48.54544" lon="-4.74499">
        <ele>14.716</ele>
        <time>2010-08-16T12:09:49Z</time>
      </trkpt>
      <trkpt lat="48.54591" lon="-4.74381">
        <ele>17.522</ele>
        <time>2010-08-16T12:10:04Z</time>
      </trkpt>
      <trkpt lat="48.54628" lon="-4.7424">
        <ele>20.387</ele>
        <time>2010-08-16T12:10:21Z</time>
      </trkpt>
    </trkseg>
  </trk>
  <trk>
    <name><![CDATA[ACTIVE LOG141111]]></name>
    <trkseg>
      <trkpt lat="48.548" lon="-4.73742">
        <ele>19.577</ele>
        <time>2010-08-16T12:11:10Z</time>
      </trkpt>
      <trkpt lat="48.54809" lon="-4.73725">
        <ele>74.659</ele>
        <time>2010-08-16T12:11:12Z</time>
      </trkpt>
      <trkpt lat="48.54839" lon="-4.73665">
        <ele>70.23</ele>
        <time>2010-08-16T12:11:19Z</time>
      </trkpt>
      <trkpt lat="48.54844" lon="-4.73656">
        <ele>70.135</ele>
        <time>2010-08-16T12:11:20Z</time>
      </trkpt>
      <trkpt lat="48.54853" lon="-4.73638">
        <ele>66.864</ele>
        <time>2010-08-16T12:11:22Z</time>
      </trkpt>
      <trkpt lat="48.54862" lon="-4.73619">
        <ele>63.121</ele>
        <time>2010-08-16T12:11:24Z</time>
      </trkpt>
      <trkpt lat="48.54868" lon="-4.73597">
        <ele>59.466</ele>
        <time>2010-08-16T12:11:26Z</time>
      </trkpt>
      <trkpt lat="48.54878" lon="-4.73559">
        <ele>52.288</ele>
        <time>2010-08-16T12:11:29Z</time>
      </trkpt>
      <trkpt lat="48.54888" lon="-4.73518">
        <ele>48.605</ele>
        <time>2010-08-16T12:11:32Z</time>
      </trkpt>
      <trkpt lat="48.54912" lon="-4.73467">
        <ele>44.568</ele>
        <time>2010-08-16T12:11:37Z</time>
      </trkpt>
      <trkpt lat="48.54924" lon="-4.73456">
        <ele>43.602</ele>
        <time>2010-08-16T12:11:39Z</time>
      </trkpt>
      <trkpt lat="48.54944" lon="-4.73444">
        <ele>42.035</ele>
        <time>2010-08-16T12:11:42Z</time>
      </trkpt>
      <trkpt lat="48.54951" lon="-4.7344">
        <ele>38.852</ele>
        <time>2010-08-16T12:11:43Z</time>
      </trkpt>
      <trkpt lat="48.54974" lon="-4.73427">
        <ele>35.117</ele>
        <time>2010-08-16T12:11:46Z</time>
      </trkpt>
      <trkpt lat="48.54999" lon="-4.73415">
        <ele>31.25</ele>
        <time>2010-08-16T12:11:49Z</time>
      </trkpt>
      <trkpt lat="48.55008" lon="-4.73411">
        <ele>30.948</ele>
        <time>2010-08-16T12:11:50Z</time>
      </trkpt>
      <trkpt lat="48.55041" lon="-4.73395">
        <ele>28.345</ele>
        <time>2010-08-16T12:11:54Z</time>
      </trkpt>
      <trkpt lat="48.55091" lon="-4.73371">
        <ele>25.037</ele>
        <time>2010-08-16T12:12:00Z</time>
      </trkpt>
      <trkpt lat="48.55128" lon="-4.73353">
        <ele>21.735</ele>
        <time>2010-08-16T12:12:04Z</time>
      </trkpt>
      <trkpt lat="48.55177" lon="-4.7333">
        <ele>17.73</ele>
        <time>2010-08-16T12:12:09Z</time>
      </trkpt>
      <trkpt lat="48.55314" lon="-4.73233">
        <ele>19.065</ele>
        <time>2010-08-16T12:12:25Z</time>
      </trkpt>
      <trkpt lat="48.55425" lon="-4.7313">
        <ele>16.382</ele>
        <time>2010-08-16T12:12:41Z</time>
      </trkpt>
      <trkpt lat="48.55546" lon="-4.73013">
        <ele>14.863</ele>
        <time>2010-08-16T12:13:00Z</time>
      </trkpt>
      <trkpt lat="48.5561" lon="-4.72865">
        <ele>15.51</ele>
        <time>2010-08-16T12:13:16Z</time>
      </trkpt>
      <trkpt lat="48.55658" lon="-4.72694">
        <ele>15.463</ele>
        <time>2010-08-16T12:13:33Z</time>
      </trkpt>
      <trkpt lat="48.55718" lon="-4.72468">
        <ele>12.684</ele>
        <time>2010-08-16T12:13:53Z</time>
      </trkpt>
      <trkpt lat="48.55765" lon="-4.72296">
        <ele>14.551</ele>
        <time>2010-08-16T12:14:10Z</time>
      </trkpt>
      <trkpt lat="48.55779" lon="-4.72242">
        <ele>16.851</ele>
        <time>2010-08-16T12:14:16Z</time>
      </trkpt>
      <trkpt lat="48.55785" lon="-4.72221">
        <ele>17.227</ele>
        <time>2010-08-16T12:14:19Z</time>
      </trkpt>
      <trkpt lat="48.55791" lon="-4.72094">
        <ele>17.434</ele>
        <time>2010-08-16T12:14:36Z</time>
      </trkpt>
      <trkpt lat="48.55788" lon="-4.72065">
        <ele>17.49</ele>
        <time>2010-08-16T12:14:43Z</time>
      </trkpt>
      <trkpt lat="48.55788" lon="-4.72066">
        <ele>16.999</ele>
        <time>2010-08-16T12:14:49Z</time>
      </trkpt>
      <trkpt lat="48.5576" lon="-4.7203">
        <ele>17.025</ele>
        <time>2010-08-16T12:14:53Z</time>
      </trkpt>
    </trkseg>
  </trk>
  <trk>
    <name><![CDATA[ACTIVE LOG141505]]></name>
    <trkseg>
      <trkpt lat="48.5576" lon="-4.7203">
        <ele>18.07</ele>
        <time>2010-08-16T12:15:05Z</time>
      </trkpt>
    </trkseg>
  </trk>
  <trk>
    <name><![CDATA[ACTIVE LOG142131]]></name>
    <trkseg>
      <trkpt lat="48.55794" lon="-4.72038">
        <ele>15.915</ele>
        <time>2010-08-16T12:21:31Z</time>
      </trkpt>
      <trkpt lat="48.55796" lon="-4.72039">
        <ele>15.809</ele>
        <time>2010-08-16T12:21:32Z</time>
      </trkpt>
      <trkpt lat="48.55798" lon="-4.72041">
        <ele>15.411</ele>
        <time>2010-08-16T12:22:11Z</time>
      </trkpt>
      <trkpt lat="48.55791" lon="-4.72043">
        <ele>15.448</ele>
        <time>2010-08-16T12:22:16Z</time>
      </trkpt>
      <trkpt lat="48.55783" lon="-4.72052">
        <ele>16.145</ele>
        <time>2010-08-16T12:22:21Z</time>
      </trkpt>
      <trkpt lat="48.55745" lon="-4.72021">
        <ele>17.46</ele>
        <time>2010-08-16T12:22:33Z</time>
      </trkpt>
      <trkpt lat="48.55741" lon="-4.72021">
        <ele>17.77</ele>
        <time>2010-08-16T12:22:34Z</time>
      </trkpt>
      <trkpt lat="48.55725" lon="-4.72013">
        <ele>18.019</ele>
        <time>2010-08-16T12:22:38Z</time>
      </trkpt>
      <trkpt lat="48.55712" lon="-4.72006">
        <ele>16.64</ele>
        <time>2010-08-16T12:22:41Z</time>
      </trkpt>
      <trkpt lat="48.55632" lon="-4.71964">
        <ele>15.719</ele>
        <time>2010-08-16T12:22:57Z</time>
      </trkpt>
      <trkpt lat="48.55609" lon="-4.71965">
        <ele>16.165</ele>
        <time>2010-08-16T12:23:01Z</time>
      </trkpt>
      <trkpt lat="48.55601" lon="-4.71972">
        <ele>16.347</ele>
        <time>2010-08-16T12:23:03Z</time>
      </trkpt>
      <trkpt lat="48.55594" lon="-4.71977">
        <ele>17.874</ele>
        <time>2010-08-16T12:23:05Z</time>
      </trkpt>
      <trkpt lat="48.55574" lon="-4.7196">
        <ele>18.598</ele>
        <time>2010-08-16T12:23:12Z</time>
      </trkpt>
      <trkpt lat="48.55574" lon="-4.71953">
        <ele>17.705</ele>
        <time>2010-08-16T12:23:13Z</time>
      </trkpt>
      <trkpt lat="48.55569" lon="-4.71916">
        <ele>16.092</ele>
        <time>2010-08-16T12:23:17Z</time>
      </trkpt>
      <trkpt lat="48.55563" lon="-4.71886">
        <ele>14.86</ele>
        <time>2010-08-16T12:23:20Z</time>
      </trkpt>
      <trkpt lat="48.55554" lon="-4.71867">
        <ele>13.699</ele>
        <time>2010-08-16T12:23:22Z</time>
      </trkpt>
      <trkpt lat="48.55534" lon="-4.71827">
        <ele>11.618</ele>
        <time>2010-08-16T12:23:26Z</time>
      </trkpt>
      <trkpt lat="48.55519" lon="-4.71725">
        <ele>9.279</ele>
        <time>2010-08-16T12:23:34Z</time>
      </trkpt>
      <trkpt lat="48.55519" lon="-4.71666">
        <ele>6.74</ele>
        <time>2010-08-16T12:23:38Z</time>
      </trkpt>
      <trkpt lat="48.55517" lon="-4.71638">
        <ele>6.647</ele>
        <time>2010-08-16T12:23:40Z</time>
      </trkpt>
      <trkpt lat="48.55511" lon="-4.71601">
        <ele>8.281</ele>
        <time>2010-08-16T12:23:43Z</time>
      </trkpt>
      <trkpt lat="48.55501" lon="-4.71575">
        <ele>10.426</ele>
        <time>2010-08-16T12:23:46Z</time>
      </trkpt>
      <trkpt lat="48.55474" lon="-4.71529">
        <ele>8.937</ele>
        <time>2010-08-16T12:23:52Z</time>
      </trkpt>
      <trkpt lat="48.55443" lon="-4.71427">
        <ele>9.173</ele>
        <time>2010-08-16T12:24:02Z</time>
      </trkpt>
      <trkpt lat="48.55424" lon="-4.71394">
        <ele>7.483</ele>
        <time>2010-08-16T12:24:06Z</time>
      </trkpt>
      <trkpt lat="48.55389" lon="-4.71356">
        <ele>4.149</ele>
        <time>2010-08-16T12:24:11Z</time>
      </trkpt>
      <trkpt lat="48.55366" lon="-4.71332">
        <ele>2.019</ele>
        <time>2010-08-16T12:24:14Z</time>
      </trkpt>
      <trkpt lat="48.55342" lon="-4.71285">
        <ele>-0.284</ele>
        <time>2010-08-16T12:24:18Z</time>
      </trkpt>
      <trkpt lat="48.55299" lon="-4.71203">
        <ele>3.282</ele>
        <time>2010-08-16T12:24:26Z</time>
      </trkpt>
      <trkpt lat="48.55263" lon="-4.71161">
        <ele>6.393</ele>
        <time>2010-08-16T12:24:34Z</time>
      </trkpt>
      <trkpt lat="48.55259" lon="-4.71156">
        <ele>6.579</ele>
        <time>2010-08-16T12:24:35Z</time>
      </trkpt>
      <trkpt lat="48.55247" lon="-4.71142">
        <ele>7.765</ele>
        <time>2010-08-16T12:24:38Z</time>
      </trkpt>
      <trkpt lat="48.55168" lon="-4.71055">
        <ele>7.929</ele>
        <time>2010-08-16T12:24:56Z</time>
      </trkpt>
      <trkpt lat="48.55164" lon="-4.71051">
        <ele>8.117</ele>
        <time>2010-08-16T12:24:57Z</time>
      </trkpt>
      <trkpt lat="48.55085" lon="-4.70997">
        <ele>11.518</ele>
        <time>2010-08-16T12:25:14Z</time>
      </trkpt>
      <trkpt lat="48.5503" lon="-4.70949">
        <ele>14.546</ele>
        <time>2010-08-16T12:25:34Z</time>
      </trkpt>
      <trkpt lat="48.55006" lon="-4.7088">
        <ele>17.347</ele>
        <time>2010-08-16T12:25:47Z</time>
      </trkpt>
      <trkpt lat="48.5499" lon="-4.70811">
        <ele>18.49</ele>
        <time>2010-08-16T12:26:00Z</time>
      </trkpt>
      <trkpt lat="48.54966" lon="-4.70723">
        <ele>20.774</ele>
        <time>2010-08-16T12:26:18Z</time>
      </trkpt>
      <trkpt lat="48.54931" lon="-4.70672">
        <ele>21.367</ele>
        <time>2010-08-16T12:26:32Z</time>
      </trkpt>
      <trkpt lat="48.54927" lon="-4.70661">
        <ele>21.431</ele>
        <time>2010-08-16T12:26:36Z</time>
      </trkpt>
      <trkpt lat="48.5494" lon="-4.70644">
        <ele>20.885</ele>
        <time>2010-08-16T12:26:38Z</time>
      </trkpt>
      <trkpt lat="48.54951" lon="-4.70609">
        <ele>19.022</ele>
        <time>2010-08-16T12:26:42Z</time>
      </trkpt>
      <trkpt lat="48.54961" lon="-4.70585">
        <ele>17.798</ele>
        <time>2010-08-16T12:26:45Z</time>
      </trkpt>
      <trkpt lat="48.54967" lon="-4.70566">
        <ele>16.126</ele>
        <time>2010-08-16T12:26:47Z</time>
      </trkpt>
      <trkpt lat="48.54965" lon="-4.70509">
        <ele>12.165</ele>
        <time>2010-08-16T12:26:52Z</time>
      </trkpt>
      <trkpt lat="48.54959" lon="-4.705">
        <ele>11.961</ele>
        <time>2010-08-16T12:26:53Z</time>
      </trkpt>
      <trkpt lat="48.54938" lon="-4.70479">
        <ele>9.156</ele>
        <time>2010-08-16T12:26:56Z</time>
      </trkpt>
      <trkpt lat="48.54918" lon="-4.70405">
        <ele>3.118</ele>
        <time>2010-08-16T12:27:01Z</time>
      </trkpt>
      <trkpt lat="48.54923" lon="-4.70387">
        <ele>1.712</ele>
        <time>2010-08-16T12:27:03Z</time>
      </trkpt>
      <trkpt lat="48.54966" lon="-4.70368">
        <ele>3.748</ele>
        <time>2010-08-16T12:27:07Z</time>
      </trkpt>
      <trkpt lat="48.54998" lon="-4.70371">
        <ele>7.258</ele>
        <time>2010-08-16T12:27:11Z</time>
      </trkpt>
      <trkpt lat="48.55057" lon="-4.70375">
        <ele>6.384</ele>
        <time>2010-08-16T12:27:19Z</time>
      </trkpt>
      <trkpt lat="48.55081" lon="-4.70361">
        <ele>8.474</ele>
        <time>2010-08-16T12:27:23Z</time>
      </trkpt>
      <trkpt lat="48.55089" lon="-4.70349">
        <ele>9.816</ele>
        <time>2010-08-16T12:27:25Z</time>
      </trkpt>
      <trkpt lat="48.55115" lon="-4.70311">
        <ele>12.862</ele>
        <time>2010-08-16T12:27:32Z</time>
      </trkpt>
      <trkpt lat="48.55134" lon="-4.70273">
        <ele>14.593</ele>
        <time>2010-08-16T12:27:38Z</time>
      </trkpt>
      <trkpt lat="48.55155" lon="-4.70231">
        <ele>16.07</ele>
        <time>2010-08-16T12:27:45Z</time>
      </trkpt>
      <trkpt lat="48.55165" lon="-4.70209">
        <ele>16.352</ele>
        <time>2010-08-16T12:27:49Z</time>
      </trkpt>
      <trkpt lat="48.55176" lon="-4.70177">
        <ele>16.682</ele>
        <time>2010-08-16T12:27:54Z</time>
      </trkpt>
      <trkpt lat="48.55201" lon="-4.70072">
        <ele>19.096</ele>
        <time>2010-08-16T12:28:12Z</time>
      </trkpt>
      <trkpt lat="48.55209" lon="-4.69974">
        <ele>19.986</ele>
        <time>2010-08-16T12:28:29Z</time>
      </trkpt>
      <trkpt lat="48.5521" lon="-4.69955">
        <ele>19.932</ele>
        <time>2010-08-16T12:28:32Z</time>
      </trkpt>
      <trkpt lat="48.55166" lon="-4.69867">
        <ele>20.677</ele>
        <time>2010-08-16T12:28:46Z</time>
      </trkpt>
      <trkpt lat="48.55111" lon="-4.69729">
        <ele>22.51</ele>
        <time>2010-08-16T12:29:05Z</time>
      </trkpt>
      <trkpt lat="48.55072" lon="-4.69582">
        <ele>23.331</ele>
        <time>2010-08-16T12:29:22Z</time>
      </trkpt>
      <trkpt lat="48.55013" lon="-4.69432">
        <ele>24.642</ele>
        <time>2010-08-16T12:29:41Z</time>
      </trkpt>
      <trkpt lat="48.54929" lon="-4.69291">
        <ele>25.833</ele>
        <time>2010-08-16T12:30:01Z</time>
      </trkpt>
      <trkpt lat="48.54818" lon="-4.69127">
        <ele>24.577</ele>
        <time>2010-08-16T12:30:23Z</time>
      </trkpt>
      <trkpt lat="48.54754" lon="-4.68951">
        <ele>24.854</ele>
        <time>2010-08-16T12:30:41Z</time>
      </trkpt>
      <trkpt lat="48.54681" lon="-4.68615">
        <ele>27.003</ele>
        <time>2010-08-16T12:31:13Z</time>
      </trkpt>
      <trkpt lat="48.54616" lon="-4.683">
        <ele>28.303</ele>
        <time>2010-08-16T12:31:45Z</time>
      </trkpt>
      <trkpt lat="48.54567" lon="-4.68076">
        <ele>31.458</ele>
        <time>2010-08-16T12:32:09Z</time>
      </trkpt>
      <trkpt lat="48.54555" lon="-4.68016">
        <ele>32.642</ele>
        <time>2010-08-16T12:32:16Z</time>
      </trkpt>
      <trkpt lat="48.54519" lon="-4.67842">
        <ele>34.426</ele>
        <time>2010-08-16T12:32:40Z</time>
      </trkpt>
      <trkpt lat="48.54513" lon="-4.67811">
        <ele>34.363</ele>
        <time>2010-08-16T12:32:44Z</time>
      </trkpt>
      <trkpt lat="48.54507" lon="-4.67782">
        <ele>34.908</ele>
        <time>2010-08-16T12:32:48Z</time>
      </trkpt>
      <trkpt lat="48.54507" lon="-4.67782">
        <ele>34.986</ele>
        <time>2010-08-16T12:32:50Z</time>
      </trkpt>
      <trkpt lat="48.54498" lon="-4.67747">
        <ele>35.216</ele>
        <time>2010-08-16T12:32:54Z</time>
      </trkpt>
      <trkpt lat="48.54485" lon="-4.67701">
        <ele>34.693</ele>
        <time>2010-08-16T12:33:00Z</time>
      </trkpt>
      <trkpt lat="48.54485" lon="-4.677">
        <ele>34.626</ele>
        <time>2010-08-16T12:33:03Z</time>
      </trkpt>
      <trkpt lat="48.54481" lon="-4.67657">
        <ele>34.775</ele>
        <time>2010-08-16T12:33:05Z</time>
      </trkpt>
      <trkpt lat="48.54444" lon="-4.67448">
        <ele>33.484</ele>
        <time>2010-08-16T12:33:27Z</time>
      </trkpt>
      <trkpt lat="48.54407" lon="-4.67256">
        <ele>34.795</ele>
        <time>2010-08-16T12:33:46Z</time>
      </trkpt>
      <trkpt lat="48.54378" lon="-4.67099">
        <ele>37.905</ele>
        <time>2010-08-16T12:34:06Z</time>
      </trkpt>
      <trkpt lat="48.54353" lon="-4.66941">
        <ele>41.1</ele>
        <time>2010-08-16T12:34:22Z</time>
      </trkpt>
      <trkpt lat="48.54338" lon="-4.66759">
        <ele>42.43</ele>
        <time>2010-08-16T12:34:42Z</time>
      </trkpt>
      <trkpt lat="48.54336" lon="-4.66753">
        <ele>42.215</ele>
        <time>2010-08-16T12:34:43Z</time>
      </trkpt>
      <trkpt lat="48.54335" lon="-4.66743">
        <ele>42.46</ele>
        <time>2010-08-16T12:34:47Z</time>
      </trkpt>
      <trkpt lat="48.54323" lon="-4.667">
        <ele>42.676</ele>
        <time>2010-08-16T12:34:51Z</time>
      </trkpt>
      <trkpt lat="48.54316" lon="-4.6667">
        <ele>42.742</ele>
        <time>2010-08-16T12:34:55Z</time>
      </trkpt>
      <trkpt lat="48.54287" lon="-4.66544">
        <ele>45.821</ele>
        <time>2010-08-16T12:35:11Z</time>
      </trkpt>
      <trkpt lat="48.54257" lon="-4.66407">
        <ele>48.832</ele>
        <time>2010-08-16T12:35:30Z</time>
      </trkpt>
      <trkpt lat="48.54228" lon="-4.66279">
        <ele>50.751</ele>
        <time>2010-08-16T12:35:52Z</time>
      </trkpt>
      <trkpt lat="48.54204" lon="-4.6617">
        <ele>50.953</ele>
        <time>2010-08-16T12:36:09Z</time>
      </trkpt>
      <trkpt lat="48.54176" lon="-4.66044">
        <ele>48.488</ele>
        <time>2010-08-16T12:36:26Z</time>
      </trkpt>
      <trkpt lat="48.54152" lon="-4.65996">
        <ele>49.645</ele>
        <time>2010-08-16T12:36:32Z</time>
      </trkpt>
      <trkpt lat="48.54144" lon="-4.65985">
        <ele>49.363</ele>
        <time>2010-08-16T12:36:35Z</time>
      </trkpt>
      <trkpt lat="48.54137" lon="-4.65975">
        <ele>49.105</ele>
        <time>2010-08-16T12:36:37Z</time>
      </trkpt>
      <trkpt lat="48.54152" lon="-4.65912">
        <ele>48.808</ele>
        <time>2010-08-16T12:36:45Z</time>
      </trkpt>
      <trkpt lat="48.54153" lon="-4.65877">
        <ele>48.79</ele>
        <time>2010-08-16T12:36:49Z</time>
      </trkpt>
      <trkpt lat="48.54142" lon="-4.6578">
        <ele>51.134</ele>
        <time>2010-08-16T12:37:02Z</time>
      </trkpt>
      <trkpt lat="48.54133" lon="-4.65718">
        <ele>49.836</ele>
        <time>2010-08-16T12:37:12Z</time>
      </trkpt>
      <trkpt lat="48.54129" lon="-4.65692">
        <ele>49.544</ele>
        <time>2010-08-16T12:37:17Z</time>
      </trkpt>
      <trkpt lat="48.54106" lon="-4.6564">
        <ele>48.768</ele>
        <time>2010-08-16T12:37:22Z</time>
      </trkpt>
      <trkpt lat="48.54019" lon="-4.65528">
        <ele>47.016</ele>
        <time>2010-08-16T12:37:38Z</time>
      </trkpt>
      <trkpt lat="48.53983" lon="-4.65474">
        <ele>46.346</ele>
        <time>2010-08-16T12:37:45Z</time>
      </trkpt>
      <trkpt lat="48.53964" lon="-4.65428">
        <ele>46.1</ele>
        <time>2010-08-16T12:37:50Z</time>
      </trkpt>
      <trkpt lat="48.53952" lon="-4.65402">
        <ele>46.69</ele>
        <time>2010-08-16T12:37:53Z</time>
      </trkpt>
      <trkpt lat="48.53918" lon="-4.65262">
        <ele>49.572</ele>
        <time>2010-08-16T12:38:08Z</time>
      </trkpt>
      <trkpt lat="48.53902" lon="-4.65195">
        <ele>50.907</ele>
        <time>2010-08-16T12:38:16Z</time>
      </trkpt>
      <trkpt lat="48.53897" lon="-4.65177">
        <ele>50.478</ele>
        <time>2010-08-16T12:38:20Z</time>
      </trkpt>
      <trkpt lat="48.53862" lon="-4.64999">
        <ele>53.36</ele>
        <time>2010-08-16T12:38:40Z</time>
      </trkpt>
      <trkpt lat="48.53848" lon="-4.6494">
        <ele>54.268</ele>
        <time>2010-08-16T12:38:48Z</time>
      </trkpt>
      <trkpt lat="48.53833" lon="-4.64846">
        <ele>56.742</ele>
        <time>2010-08-16T12:39:05Z</time>
      </trkpt>
      <trkpt lat="48.53835" lon="-4.64806">
        <ele>55.932</ele>
        <time>2010-08-16T12:39:14Z</time>
      </trkpt>
      <trkpt lat="48.53836" lon="-4.648">
        <ele>55.591</ele>
        <time>2010-08-16T12:39:15Z</time>
      </trkpt>
      <trkpt lat="48.53848" lon="-4.64671">
        <ele>52.132</ele>
        <time>2010-08-16T12:39:29Z</time>
      </trkpt>
      <trkpt lat="48.53854" lon="-4.64567">
        <ele>48.954</ele>
        <time>2010-08-16T12:39:37Z</time>
      </trkpt>
      <trkpt lat="48.53855" lon="-4.64552">
        <ele>48.798</ele>
        <time>2010-08-16T12:39:38Z</time>
      </trkpt>
      <trkpt lat="48.53858" lon="-4.6451">
        <ele>46.353</ele>
        <time>2010-08-16T12:39:41Z</time>
      </trkpt>
      <trkpt lat="48.53849" lon="-4.64289">
        <ele>46.761</ele>
        <time>2010-08-16T12:39:57Z</time>
      </trkpt>
      <trkpt lat="48.53805" lon="-4.64132">
        <ele>49.012</ele>
        <time>2010-08-16T12:40:12Z</time>
      </trkpt>
      <trkpt lat="48.53727" lon="-4.63973">
        <ele>51.518</ele>
        <time>2010-08-16T12:40:32Z</time>
      </trkpt>
      <trkpt lat="48.53636" lon="-4.63917">
        <ele>54.141</ele>
        <time>2010-08-16T12:40:49Z</time>
      </trkpt>
      <trkpt lat="48.53537" lon="-4.63866">
        <ele>56.882</ele>
        <time>2010-08-16T12:41:08Z</time>
      </trkpt>
      <trkpt lat="48.53445" lon="-4.63773">
        <ele>59.747</ele>
        <time>2010-08-16T12:41:29Z</time>
      </trkpt>
      <trkpt lat="48.53377" lon="-4.63622">
        <ele>61.093</ele>
        <time>2010-08-16T12:41:50Z</time>
      </trkpt>
      <trkpt lat="48.53318" lon="-4.63437">
        <ele>61.827</ele>
        <time>2010-08-16T12:42:11Z</time>
      </trkpt>
      <trkpt lat="48.53292" lon="-4.63244">
        <ele>64.26</ele>
        <time>2010-08-16T12:42:33Z</time>
      </trkpt>
      <trkpt lat="48.53245" lon="-4.63066">
        <ele>63.588</ele>
        <time>2010-08-16T12:42:53Z</time>
      </trkpt>
      <trkpt lat="48.53186" lon="-4.62892">
        <ele>60.543</ele>
        <time>2010-08-16T12:43:10Z</time>
      </trkpt>
      <trkpt lat="48.53169" lon="-4.62738">
        <ele>62.436</ele>
        <time>2010-08-16T12:43:24Z</time>
      </trkpt>
      <trkpt lat="48.53149" lon="-4.6248">
        <ele>64.346</ele>
        <time>2010-08-16T12:43:49Z</time>
      </trkpt>
      <trkpt lat="48.531" lon="-4.62242">
        <ele>64.576</ele>
        <time>2010-08-16T12:44:12Z</time>
      </trkpt>
      <trkpt lat="48.53021" lon="-4.62053">
        <ele>65.465</ele>
        <time>2010-08-16T12:44:33Z</time>
      </trkpt>
      <trkpt lat="48.52916" lon="-4.61824">
        <ele>68.164</ele>
        <time>2010-08-16T12:45:00Z</time>
      </trkpt>
      <trkpt lat="48.52838" lon="-4.61618">
        <ele>68.936</ele>
        <time>2010-08-16T12:45:24Z</time>
      </trkpt>
      <trkpt lat="48.52748" lon="-4.6138">
        <ele>68.636</ele>
        <time>2010-08-16T12:45:51Z</time>
      </trkpt>
      <trkpt lat="48.52692" lon="-4.61173">
        <ele>69.945</ele>
        <time>2010-08-16T12:46:13Z</time>
      </trkpt>
      <trkpt lat="48.52649" lon="-4.60919">
        <ele>66.789</ele>
        <time>2010-08-16T12:46:37Z</time>
      </trkpt>
      <trkpt lat="48.52647" lon="-4.60907">
        <ele>66.801</ele>
        <time>2010-08-16T12:46:38Z</time>
      </trkpt>
      <trkpt lat="48.52601" lon="-4.60719">
        <ele>66.843</ele>
        <time>2010-08-16T12:46:55Z</time>
      </trkpt>
      <trkpt lat="48.52577" lon="-4.60637">
        <ele>65.756</ele>
        <time>2010-08-16T12:47:03Z</time>
      </trkpt>
      <trkpt lat="48.52527" lon="-4.6047">
        <ele>62.587</ele>
        <time>2010-08-16T12:47:18Z</time>
      </trkpt>
      <trkpt lat="48.52516" lon="-4.60435">
        <ele>61.296</ele>
        <time>2010-08-16T12:47:21Z</time>
      </trkpt>
      <trkpt lat="48.52503" lon="-4.60384">
        <ele>58.867</ele>
        <time>2010-08-16T12:47:25Z</time>
      </trkpt>
      <trkpt lat="48.52491" lon="-4.60246">
        <ele>62.064</ele>
        <time>2010-08-16T12:47:37Z</time>
      </trkpt>
      <trkpt lat="48.5249" lon="-4.60227">
        <ele>61.988</ele>
        <time>2010-08-16T12:47:39Z</time>
      </trkpt>
      <trkpt lat="48.52473" lon="-4.60155">
        <ele>63.093</ele>
        <time>2010-08-16T12:47:47Z</time>
      </trkpt>
      <trkpt lat="48.52459" lon="-4.60093">
        <ele>61.679</ele>
        <time>2010-08-16T12:47:54Z</time>
      </trkpt>
      <trkpt lat="48.52459" lon="-4.60042">
        <ele>59.905</ele>
        <time>2010-08-16T12:47:59Z</time>
      </trkpt>
      <trkpt lat="48.52459" lon="-4.60014">
        <ele>61.344</ele>
        <time>2010-08-16T12:48:03Z</time>
      </trkpt>
      <trkpt lat="48.52468" lon="-4.59937">
        <ele>58.044</ele>
        <time>2010-08-16T12:48:12Z</time>
      </trkpt>
      <trkpt lat="48.52472" lon="-4.59897">
        <ele>57.849</ele>
        <time>2010-08-16T12:48:13Z</time>
      </trkpt>
      <trkpt lat="48.52475" lon="-4.59854">
        <ele>56.512</ele>
        <time>2010-08-16T12:48:17Z</time>
      </trkpt>
      <trkpt lat="48.52465" lon="-4.59802">
        <ele>57.205</ele>
        <time>2010-08-16T12:48:22Z</time>
      </trkpt>
      <trkpt lat="48.52439" lon="-4.5975">
        <ele>53.617</ele>
        <time>2010-08-16T12:48:27Z</time>
      </trkpt>
      <trkpt lat="48.52417" lon="-4.59705">
        <ele>51.155</ele>
        <time>2010-08-16T12:48:31Z</time>
      </trkpt>
      <trkpt lat="48.52408" lon="-4.59679">
        <ele>50.19</ele>
        <time>2010-08-16T12:48:33Z</time>
      </trkpt>
      <trkpt lat="48.52391" lon="-4.59621">
        <ele>47.936</ele>
        <time>2010-08-16T12:48:37Z</time>
      </trkpt>
      <trkpt lat="48.52385" lon="-4.59589">
        <ele>44.812</ele>
        <time>2010-08-16T12:48:39Z</time>
      </trkpt>
      <trkpt lat="48.52372" lon="-4.59524">
        <ele>42.995</ele>
        <time>2010-08-16T12:48:43Z</time>
      </trkpt>
      <trkpt lat="48.52363" lon="-4.59476">
        <ele>43.383</ele>
        <time>2010-08-16T12:48:46Z</time>
      </trkpt>
      <trkpt lat="48.5234" lon="-4.59384">
        <ele>39.78</ele>
        <time>2010-08-16T12:48:52Z</time>
      </trkpt>
      <trkpt lat="48.52322" lon="-4.59341">
        <ele>37.878</ele>
        <time>2010-08-16T12:48:55Z</time>
      </trkpt>
      <trkpt lat="48.52264" lon="-4.59299">
        <ele>34.327</ele>
        <time>2010-08-16T12:49:01Z</time>
      </trkpt>
      <trkpt lat="48.52201" lon="-4.59316">
        <ele>30.264</ele>
        <time>2010-08-16T12:49:07Z</time>
      </trkpt>
      <trkpt lat="48.52179" lon="-4.59321">
        <ele>28.984</ele>
        <time>2010-08-16T12:49:09Z</time>
      </trkpt>
      <trkpt lat="48.52122" lon="-4.59332">
        <ele>27.048</ele>
        <time>2010-08-16T12:49:14Z</time>
      </trkpt>
      <trkpt lat="48.52074" lon="-4.5934">
        <ele>23.865</ele>
        <time>2010-08-16T12:49:18Z</time>
      </trkpt>
      <trkpt lat="48.52019" lon="-4.5929">
        <ele>22.686</ele>
        <time>2010-08-16T12:49:24Z</time>
      </trkpt>
      <trkpt lat="48.52024" lon="-4.59213">
        <ele>25.342</ele>
        <time>2010-08-16T12:49:30Z</time>
      </trkpt>
      <trkpt lat="48.52029" lon="-4.59207">
        <ele>26.002</ele>
        <time>2010-08-16T12:49:31Z</time>
      </trkpt>
      <trkpt lat="48.52039" lon="-4.59196">
        <ele>27.008</ele>
        <time>2010-08-16T12:49:33Z</time>
      </trkpt>
      <trkpt lat="48.52051" lon="-4.59184">
        <ele>28.762</ele>
        <time>2010-08-16T12:49:37Z</time>
      </trkpt>
      <trkpt lat="48.52051" lon="-4.59184">
        <ele>28.743</ele>
        <time>2010-08-16T12:49:41Z</time>
      </trkpt>
      <trkpt lat="48.52055" lon="-4.59178">
        <ele>28.421</ele>
        <time>2010-08-16T12:49:43Z</time>
      </trkpt>
      <trkpt lat="48.5204" lon="-4.59195">
        <ele>26.431</ele>
        <time>2010-08-16T12:49:50Z</time>
      </trkpt>
      <trkpt lat="48.5203" lon="-4.59206">
        <ele>25.358</ele>
        <time>2010-08-16T12:49:52Z</time>
      </trkpt>
      <trkpt lat="48.51993" lon="-4.59219">
        <ele>25.294</ele>
        <time>2010-08-16T12:49:58Z</time>
      </trkpt>
      <trkpt lat="48.51958" lon="-4.59216">
        <ele>24.945</ele>
        <time>2010-08-16T12:50:03Z</time>
      </trkpt>
      <trkpt lat="48.51893" lon="-4.59177">
        <ele>23.456</ele>
        <time>2010-08-16T12:50:13Z</time>
      </trkpt>
      <trkpt lat="48.51792" lon="-4.59071">
        <ele>23.052</ele>
        <time>2010-08-16T12:50:30Z</time>
      </trkpt>
      <trkpt lat="48.51707" lon="-4.59045">
        <ele>24.712</ele>
        <time>2010-08-16T12:50:43Z</time>
      </trkpt>
      <trkpt lat="48.51652" lon="-4.59051">
        <ele>26.863</ele>
        <time>2010-08-16T12:50:54Z</time>
      </trkpt>
      <trkpt lat="48.51601" lon="-4.59057">
        <ele>28.132</ele>
        <time>2010-08-16T12:51:08Z</time>
      </trkpt>
      <trkpt lat="48.51508" lon="-4.5907">
        <ele>27.686</ele>
        <time>2010-08-16T12:51:27Z</time>
      </trkpt>
      <trkpt lat="48.51403" lon="-4.59079">
        <ele>26.028</ele>
        <time>2010-08-16T12:51:43Z</time>
      </trkpt>
      <trkpt lat="48.51312" lon="-4.59036">
        <ele>26.887</ele>
        <time>2010-08-16T12:51:57Z</time>
      </trkpt>
      <trkpt lat="48.51255" lon="-4.58973">
        <ele>30.083</ele>
        <time>2010-08-16T12:52:10Z</time>
      </trkpt>
      <trkpt lat="48.5117" lon="-4.58873">
        <ele>32.485</ele>
        <time>2010-08-16T12:52:32Z</time>
      </trkpt>
      <trkpt lat="48.51081" lon="-4.58772">
        <ele>33.882</ele>
        <time>2010-08-16T12:52:53Z</time>
      </trkpt>
      <trkpt lat="48.51027" lon="-4.58714">
        <ele>37.211</ele>
        <time>2010-08-16T12:53:07Z</time>
      </trkpt>
      <trkpt lat="48.50989" lon="-4.58679">
        <ele>40.406</ele>
        <time>2010-08-16T12:53:21Z</time>
      </trkpt>
      <trkpt lat="48.50949" lon="-4.58646">
        <ele>43.431</ele>
        <time>2010-08-16T12:53:36Z</time>
      </trkpt>
      <trkpt lat="48.50909" lon="-4.58612">
        <ele>46.947</ele>
        <time>2010-08-16T12:53:50Z</time>
      </trkpt>
      <trkpt lat="48.50868" lon="-4.58575">
        <ele>49.98</ele>
        <time>2010-08-16T12:54:07Z</time>
      </trkpt>
      <trkpt lat="48.50831" lon="-4.58527">
        <ele>53.21</ele>
        <time>2010-08-16T12:54:25Z</time>
      </trkpt>
      <trkpt lat="48.50779" lon="-4.58451">
        <ele>54.319</ele>
        <time>2010-08-16T12:54:46Z</time>
      </trkpt>
      <trkpt lat="48.50745" lon="-4.58407">
        <ele>55.036</ele>
        <time>2010-08-16T12:54:56Z</time>
      </trkpt>
      <trkpt lat="48.50657" lon="-4.58323">
        <ele>54.922</ele>
        <time>2010-08-16T12:55:16Z</time>
      </trkpt>
      <trkpt lat="48.50546" lon="-4.5822">
        <ele>51.724</ele>
        <time>2010-08-16T12:55:35Z</time>
      </trkpt>
      <trkpt lat="48.50362" lon="-4.58053">
        <ele>52.372</ele>
        <time>2010-08-16T12:56:03Z</time>
      </trkpt>
      <trkpt lat="48.50199" lon="-4.57903">
        <ele>54.149</ele>
        <time>2010-08-16T12:56:31Z</time>
      </trkpt>
      <trkpt lat="48.50071" lon="-4.57786">
        <ele>53.442</ele>
        <time>2010-08-16T12:56:54Z</time>
      </trkpt>
      <trkpt lat="48.49929" lon="-4.57657">
        <ele>52.444</ele>
        <time>2010-08-16T12:57:17Z</time>
      </trkpt>
      <trkpt lat="48.49814" lon="-4.57567">
        <ele>54.543</ele>
        <time>2010-08-16T12:57:37Z</time>
      </trkpt>
      <trkpt lat="48.49726" lon="-4.57542">
        <ele>55.772</ele>
        <time>2010-08-16T12:57:53Z</time>
      </trkpt>
      <trkpt lat="48.49582" lon="-4.57556">
        <ele>54.652</ele>
        <time>2010-08-16T12:58:17Z</time>
      </trkpt>
      <trkpt lat="48.49457" lon="-4.57572">
        <ele>56.856</ele>
        <time>2010-08-16T12:58:41Z</time>
      </trkpt>
      <trkpt lat="48.49393" lon="-4.57576">
        <ele>60.095</ele>
        <time>2010-08-16T12:58:56Z</time>
      </trkpt>
      <trkpt lat="48.49346" lon="-4.57566">
        <ele>63.258</ele>
        <time>2010-08-16T12:59:09Z</time>
      </trkpt>
      <trkpt lat="48.493" lon="-4.57556">
        <ele>66.322</ele>
        <time>2010-08-16T12:59:23Z</time>
      </trkpt>
      <trkpt lat="48.49263" lon="-4.57547">
        <ele>69.058</ele>
        <time>2010-08-16T12:59:39Z</time>
      </trkpt>
      <trkpt lat="48.49229" lon="-4.57535">
        <ele>70.715</ele>
        <time>2010-08-16T12:59:52Z</time>
      </trkpt>
      <trkpt lat="48.49185" lon="-4.57492">
        <ele>72.464</ele>
        <time>2010-08-16T13:00:09Z</time>
      </trkpt>
      <trkpt lat="48.49148" lon="-4.57469">
        <ele>72.307</ele>
        <time>2010-08-16T13:00:21Z</time>
      </trkpt>
      <trkpt lat="48.49131" lon="-4.57466">
        <ele>71.317</ele>
        <time>2010-08-16T13:00:25Z</time>
      </trkpt>
      <trkpt lat="48.49112" lon="-4.57462">
        <ele>70.749</ele>
        <time>2010-08-16T13:00:29Z</time>
      </trkpt>
      <trkpt lat="48.49104" lon="-4.5746">
        <ele>69.527</ele>
        <time>2010-08-16T13:00:33Z</time>
      </trkpt>
      <trkpt lat="48.49006" lon="-4.57419">
        <ele>68.112</ele>
        <time>2010-08-16T13:00:47Z</time>
      </trkpt>
      <trkpt lat="48.48924" lon="-4.5741">
        <ele>68.51</ele>
        <time>2010-08-16T13:00:59Z</time>
      </trkpt>
      <trkpt lat="48.48891" lon="-4.57401">
        <ele>68.425</ele>
        <time>2010-08-16T13:01:04Z</time>
      </trkpt>
      <trkpt lat="48.48846" lon="-4.57303">
        <ele>69.386</ele>
        <time>2010-08-16T13:01:17Z</time>
      </trkpt>
      <trkpt lat="48.48804" lon="-4.57187">
        <ele>70.919</ele>
        <time>2010-08-16T13:01:33Z</time>
      </trkpt>
      <trkpt lat="48.48792" lon="-4.57062">
        <ele>67.129</ele>
        <time>2010-08-16T13:01:45Z</time>
      </trkpt>
      <trkpt lat="48.48781" lon="-4.56906">
        <ele>69.545</ele>
        <time>2010-08-16T13:01:58Z</time>
      </trkpt>
      <trkpt lat="48.48781" lon="-4.56889">
        <ele>70.528</ele>
        <time>2010-08-16T13:02:00Z</time>
      </trkpt>
      <trkpt lat="48.48779" lon="-4.56851">
        <ele>72.091</ele>
        <time>2010-08-16T13:02:05Z</time>
      </trkpt>
      <trkpt lat="48.48776" lon="-4.56814">
        <ele>73.474</ele>
        <time>2010-08-16T13:02:10Z</time>
      </trkpt>
      <trkpt lat="48.48751" lon="-4.56746">
        <ele>75.323</ele>
        <time>2010-08-16T13:02:20Z</time>
      </trkpt>
      <trkpt lat="48.48727" lon="-4.56715">
        <ele>76.399</ele>
        <time>2010-08-16T13:02:27Z</time>
      </trkpt>
      <trkpt lat="48.48636" lon="-4.56665">
        <ele>78.28</ele>
        <time>2010-08-16T13:02:47Z</time>
      </trkpt>
      <trkpt lat="48.48534" lon="-4.56582">
        <ele>79.208</ele>
        <time>2010-08-16T13:03:09Z</time>
      </trkpt>
      <trkpt lat="48.48439" lon="-4.56529">
        <ele>82.324</ele>
        <time>2010-08-16T13:03:28Z</time>
      </trkpt>
      <trkpt lat="48.48325" lon="-4.56519">
        <ele>84.042</ele>
        <time>2010-08-16T13:03:49Z</time>
      </trkpt>
      <trkpt lat="48.48204" lon="-4.56522">
        <ele>81.683</ele>
        <time>2010-08-16T13:04:07Z</time>
      </trkpt>
      <trkpt lat="48.48117" lon="-4.56525">
        <ele>78.273</ele>
        <time>2010-08-16T13:04:17Z</time>
      </trkpt>
      <trkpt lat="48.48028" lon="-4.56529">
        <ele>75.178</ele>
        <time>2010-08-16T13:04:27Z</time>
      </trkpt>
      <trkpt lat="48.47941" lon="-4.5655">
        <ele>78.228</ele>
        <time>2010-08-16T13:04:38Z</time>
      </trkpt>
      <trkpt lat="48.47934" lon="-4.56554">
        <ele>78.241</ele>
        <time>2010-08-16T13:04:39Z</time>
      </trkpt>
      <trkpt lat="48.47858" lon="-4.56594">
        <ele>81.307</ele>
        <time>2010-08-16T13:04:52Z</time>
      </trkpt>
      <trkpt lat="48.47746" lon="-4.56652">
        <ele>84.366</ele>
        <time>2010-08-16T13:05:15Z</time>
      </trkpt>
      <trkpt lat="48.4765" lon="-4.56684">
        <ele>87.163</ele>
        <time>2010-08-16T13:05:38Z</time>
      </trkpt>
      <trkpt lat="48.47567" lon="-4.56687">
        <ele>87.848</ele>
        <time>2010-08-16T13:05:57Z</time>
      </trkpt>
      <trkpt lat="48.47488" lon="-4.56707">
        <ele>84.613</ele>
        <time>2010-08-16T13:06:10Z</time>
      </trkpt>
      <trkpt lat="48.47475" lon="-4.56714">
        <ele>83.693</ele>
        <time>2010-08-16T13:06:12Z</time>
      </trkpt>
      <trkpt lat="48.47404" lon="-4.56765">
        <ele>80.652</ele>
        <time>2010-08-16T13:06:24Z</time>
      </trkpt>
      <trkpt lat="48.47296" lon="-4.56833">
        <ele>82.285</ele>
        <time>2010-08-16T13:06:39Z</time>
      </trkpt>
      <trkpt lat="48.47278" lon="-4.5684">
        <ele>82.912</ele>
        <time>2010-08-16T13:06:42Z</time>
      </trkpt>
      <trkpt lat="48.47271" lon="-4.56842">
        <ele>83.243</ele>
        <time>2010-08-16T13:06:44Z</time>
      </trkpt>
      <trkpt lat="48.47211" lon="-4.56838">
        <ele>82.847</ele>
        <time>2010-08-16T13:06:53Z</time>
      </trkpt>
      <trkpt lat="48.47161" lon="-4.56813">
        <ele>79.619</ele>
        <time>2010-08-16T13:07:00Z</time>
      </trkpt>
      <trkpt lat="48.47108" lon="-4.56796">
        <ele>76.374</ele>
        <time>2010-08-16T13:07:06Z</time>
      </trkpt>
      <trkpt lat="48.47031" lon="-4.5683">
        <ele>76.916</ele>
        <time>2010-08-16T13:07:15Z</time>
      </trkpt>
      <trkpt lat="48.47011" lon="-4.56838">
        <ele>78.673</ele>
        <time>2010-08-16T13:07:18Z</time>
      </trkpt>
      <trkpt lat="48.4696" lon="-4.56842">
        <ele>81.363</ele>
        <time>2010-08-16T13:07:27Z</time>
      </trkpt>
      <trkpt lat="48.46879" lon="-4.56793">
        <ele>81.639</ele>
        <time>2010-08-16T13:07:42Z</time>
      </trkpt>
      <trkpt lat="48.46811" lon="-4.5676">
        <ele>83.542</ele>
        <time>2010-08-16T13:07:55Z</time>
      </trkpt>
      <trkpt lat="48.46729" lon="-4.56744">
        <ele>85.936</ele>
        <time>2010-08-16T13:08:11Z</time>
      </trkpt>
      <trkpt lat="48.46712" lon="-4.56738">
        <ele>86.183</ele>
        <time>2010-08-16T13:08:15Z</time>
      </trkpt>
      <trkpt lat="48.46671" lon="-4.56704">
        <ele>87.611</ele>
        <time>2010-08-16T13:08:28Z</time>
      </trkpt>
      <trkpt lat="48.46656" lon="-4.5669">
        <ele>87.599</ele>
        <time>2010-08-16T13:08:34Z</time>
      </trkpt>
      <trkpt lat="48.46645" lon="-4.56675">
        <ele>87.923</ele>
        <time>2010-08-16T13:08:46Z</time>
      </trkpt>
      <trkpt lat="48.46645" lon="-4.56675">
        <ele>87.955</ele>
        <time>2010-08-16T13:08:53Z</time>
      </trkpt>
      <trkpt lat="48.46642" lon="-4.5667">
        <ele>87.927</ele>
        <time>2010-08-16T13:09:05Z</time>
      </trkpt>
      <trkpt lat="48.46642" lon="-4.5667">
        <ele>88.136</ele>
        <time>2010-08-16T13:09:54Z</time>
      </trkpt>
      <trkpt lat="48.46642" lon="-4.5667">
        <ele>87.747</ele>
        <time>2010-08-16T13:10:02Z</time>
      </trkpt>
      <trkpt lat="48.46638" lon="-4.56672">
        <ele>87.953</ele>
        <time>2010-08-16T13:10:04Z</time>
      </trkpt>
      <trkpt lat="48.4664" lon="-4.56667">
        <ele>87.901</ele>
        <time>2010-08-16T13:10:12Z</time>
      </trkpt>
      <trkpt lat="48.4669" lon="-4.56575">
        <ele>84.69</ele>
        <time>2010-08-16T13:10:23Z</time>
      </trkpt>
      <trkpt lat="48.46699" lon="-4.5656">
        <ele>85.272</ele>
        <time>2010-08-16T13:10:25Z</time>
      </trkpt>
      <trkpt lat="48.46709" lon="-4.56503">
        <ele>84.882</ele>
        <time>2010-08-16T13:10:32Z</time>
      </trkpt>
      <trkpt lat="48.46669" lon="-4.56452">
        <ele>86.061</ele>
        <time>2010-08-16T13:10:40Z</time>
      </trkpt>
      <trkpt lat="48.466" lon="-4.5642">
        <ele>86.513</ele>
        <time>2010-08-16T13:10:51Z</time>
      </trkpt>
      <trkpt lat="48.46497" lon="-4.56386">
        <ele>83.132</ele>
        <time>2010-08-16T13:11:05Z</time>
      </trkpt>
      <trkpt lat="48.46384" lon="-4.56286">
        <ele>81.879</ele>
        <time>2010-08-16T13:11:22Z</time>
      </trkpt>
      <trkpt lat="48.46345" lon="-4.56231">
        <ele>85.068</ele>
        <time>2010-08-16T13:11:30Z</time>
      </trkpt>
      <trkpt lat="48.463" lon="-4.56153">
        <ele>88.07</ele>
        <time>2010-08-16T13:11:43Z</time>
      </trkpt>
      <trkpt lat="48.46245" lon="-4.56053">
        <ele>91.153</ele>
        <time>2010-08-16T13:12:01Z</time>
      </trkpt>
      <trkpt lat="48.46146" lon="-4.55944">
        <ele>92.661</ele>
        <time>2010-08-16T13:12:23Z</time>
      </trkpt>
      <trkpt lat="48.46027" lon="-4.55883">
        <ele>93.957</ele>
        <time>2010-08-16T13:12:44Z</time>
      </trkpt>
      <trkpt lat="48.45888" lon="-4.55879">
        <ele>94.996</ele>
        <time>2010-08-16T13:13:06Z</time>
      </trkpt>
      <trkpt lat="48.45737" lon="-4.55875">
        <ele>96.342</ele>
        <time>2010-08-16T13:13:30Z</time>
      </trkpt>
      <trkpt lat="48.45589" lon="-4.55838">
        <ele>95.353</ele>
        <time>2010-08-16T13:13:52Z</time>
      </trkpt>
      <trkpt lat="48.4541" lon="-4.55787">
        <ele>92.996</ele>
        <time>2010-08-16T13:14:15Z</time>
      </trkpt>
      <trkpt lat="48.45233" lon="-4.55703">
        <ele>92.51</ele>
        <time>2010-08-16T13:14:37Z</time>
      </trkpt>
      <trkpt lat="48.4507" lon="-4.55623">
        <ele>94.671</ele>
        <time>2010-08-16T13:14:59Z</time>
      </trkpt>
      <trkpt lat="48.4494" lon="-4.55553">
        <ele>94.443</ele>
        <time>2010-08-16T13:15:19Z</time>
      </trkpt>
      <trkpt lat="48.44851" lon="-4.55482">
        <ele>96.221</ele>
        <time>2010-08-16T13:15:36Z</time>
      </trkpt>
      <trkpt lat="48.44773" lon="-4.55394">
        <ele>98.969</ele>
        <time>2010-08-16T13:15:53Z</time>
      </trkpt>
      <trkpt lat="48.44735" lon="-4.5534">
        <ele>99.556</ele>
        <time>2010-08-16T13:16:07Z</time>
      </trkpt>
      <trkpt lat="48.447" lon="-4.55319">
        <ele>99.958</ele>
        <time>2010-08-16T13:16:12Z</time>
      </trkpt>
      <trkpt lat="48.447" lon="-4.55319">
        <ele>100.247</ele>
        <time>2010-08-16T13:16:14Z</time>
      </trkpt>
      <trkpt lat="48.44666" lon="-4.55276">
        <ele>99.144</ele>
        <time>2010-08-16T13:16:20Z</time>
      </trkpt>
      <trkpt lat="48.44643" lon="-4.55253">
        <ele>97.754</ele>
        <time>2010-08-16T13:16:23Z</time>
      </trkpt>
      <trkpt lat="48.44543" lon="-4.55178">
        <ele>94.752</ele>
        <time>2010-08-16T13:16:37Z</time>
      </trkpt>
      <trkpt lat="48.44485" lon="-4.55135">
        <ele>91.32</ele>
        <time>2010-08-16T13:16:44Z</time>
      </trkpt>
      <trkpt lat="48.44385" lon="-4.55058">
        <ele>88.313</ele>
        <time>2010-08-16T13:16:55Z</time>
      </trkpt>
      <trkpt lat="48.44256" lon="-4.5495">
        <ele>85.243</ele>
        <time>2010-08-16T13:17:09Z</time>
      </trkpt>
      <trkpt lat="48.4416" lon="-4.5487">
        <ele>82.581</ele>
        <time>2010-08-16T13:17:19Z</time>
      </trkpt>
      <trkpt lat="48.43997" lon="-4.54734">
        <ele>85.518</ele>
        <time>2010-08-16T13:17:38Z</time>
      </trkpt>
      <trkpt lat="48.43924" lon="-4.54662">
        <ele>88.454</ele>
        <time>2010-08-16T13:17:51Z</time>
      </trkpt>
      <trkpt lat="48.43851" lon="-4.54568">
        <ele>89.156</ele>
        <time>2010-08-16T13:18:09Z</time>
      </trkpt>
      <trkpt lat="48.43815" lon="-4.54564">
        <ele>88.155</ele>
        <time>2010-08-16T13:18:16Z</time>
      </trkpt>
      <trkpt lat="48.4381" lon="-4.54573">
        <ele>87.698</ele>
        <time>2010-08-16T13:18:17Z</time>
      </trkpt>
      <trkpt lat="48.43785" lon="-4.54648">
        <ele>84.222</ele>
        <time>2010-08-16T13:18:25Z</time>
      </trkpt>
      <trkpt lat="48.43774" lon="-4.54678">
        <ele>81.991</ele>
        <time>2010-08-16T13:18:28Z</time>
      </trkpt>
      <trkpt lat="48.43753" lon="-4.54716">
        <ele>78.729</ele>
        <time>2010-08-16T13:18:32Z</time>
      </trkpt>
      <trkpt lat="48.4374" lon="-4.54732">
        <ele>78.93</ele>
        <time>2010-08-16T13:18:34Z</time>
      </trkpt>
      <trkpt lat="48.43732" lon="-4.54764">
        <ele>79.453</ele>
        <time>2010-08-16T13:18:38Z</time>
      </trkpt>
      <trkpt lat="48.43733" lon="-4.5478">
        <ele>80.78</ele>
        <time>2010-08-16T13:18:40Z</time>
      </trkpt>
      <trkpt lat="48.43766" lon="-4.54899">
        <ele>82.589</ele>
        <time>2010-08-16T13:18:56Z</time>
      </trkpt>
      <trkpt lat="48.43771" lon="-4.55012">
        <ele>84.357</ele>
        <time>2010-08-16T13:19:11Z</time>
      </trkpt>
      <trkpt lat="48.43749" lon="-4.55158">
        <ele>86.684</ele>
        <time>2010-08-16T13:19:32Z</time>
      </trkpt>
      <trkpt lat="48.43716" lon="-4.55335">
        <ele>86.982</ele>
        <time>2010-08-16T13:19:57Z</time>
      </trkpt>
      <trkpt lat="48.43687" lon="-4.55475">
        <ele>87.834</ele>
        <time>2010-08-16T13:20:16Z</time>
      </trkpt>
      <trkpt lat="48.43648" lon="-4.55577">
        <ele>89.153</ele>
        <time>2010-08-16T13:20:31Z</time>
      </trkpt>
      <trkpt lat="48.43573" lon="-4.55725">
        <ele>89.641</ele>
        <time>2010-08-16T13:20:53Z</time>
      </trkpt>
      <trkpt lat="48.43502" lon="-4.55847">
        <ele>90.458</ele>
        <time>2010-08-16T13:21:12Z</time>
      </trkpt>
      <trkpt lat="48.43483" lon="-4.55871">
        <ele>90.955</ele>
        <time>2010-08-16T13:21:17Z</time>
      </trkpt>
      <trkpt lat="48.43389" lon="-4.55946">
        <ele>92.161</ele>
        <time>2010-08-16T13:21:38Z</time>
      </trkpt>
      <trkpt lat="48.43335" lon="-4.55979">
        <ele>92.773</ele>
        <time>2010-08-16T13:21:49Z</time>
      </trkpt>
      <trkpt lat="48.43319" lon="-4.55988">
        <ele>93.069</ele>
        <time>2010-08-16T13:21:54Z</time>
      </trkpt>
      <trkpt lat="48.43295" lon="-4.56">
        <ele>92.99</ele>
        <time>2010-08-16T13:21:59Z</time>
      </trkpt>
      <trkpt lat="48.43293" lon="-4.55988">
        <ele>92.723</ele>
        <time>2010-08-16T13:22:02Z</time>
      </trkpt>
      <trkpt lat="48.43157" lon="-4.55955">
        <ele>91.145</ele>
        <time>2010-08-16T13:22:20Z</time>
      </trkpt>
      <trkpt lat="48.43046" lon="-4.55982">
        <ele>90.036</ele>
        <time>2010-08-16T13:22:35Z</time>
      </trkpt>
      <trkpt lat="48.42996" lon="-4.56016">
        <ele>90.782</ele>
        <time>2010-08-16T13:22:43Z</time>
      </trkpt>
      <trkpt lat="48.42975" lon="-4.56027">
        <ele>91.011</ele>
        <time>2010-08-16T13:22:47Z</time>
      </trkpt>
      <trkpt lat="48.42958" lon="-4.56052">
        <ele>91.181</ele>
        <time>2010-08-16T13:22:51Z</time>
      </trkpt>
      <trkpt lat="48.42914" lon="-4.56172">
        <ele>92.126</ele>
        <time>2010-08-16T13:23:06Z</time>
      </trkpt>
      <trkpt lat="48.42911" lon="-4.56182">
        <ele>92.198</ele>
        <time>2010-08-16T13:23:08Z</time>
      </trkpt>
      <trkpt lat="48.42899" lon="-4.56195">
        <ele>92.762</ele>
        <time>2010-08-16T13:23:13Z</time>
      </trkpt>
      <trkpt lat="48.42898" lon="-4.5619">
        <ele>92.716</ele>
        <time>2010-08-16T13:23:15Z</time>
      </trkpt>
      <trkpt lat="48.42813" lon="-4.56145">
        <ele>91.758</ele>
        <time>2010-08-16T13:23:30Z</time>
      </trkpt>
      <trkpt lat="48.42726" lon="-4.56111">
        <ele>91.193</ele>
        <time>2010-08-16T13:23:45Z</time>
      </trkpt>
      <trkpt lat="48.42609" lon="-4.56075">
        <ele>92.446</ele>
        <time>2010-08-16T13:24:04Z</time>
      </trkpt>
      <trkpt lat="48.42529" lon="-4.5606">
        <ele>92.593</ele>
        <time>2010-08-16T13:24:20Z</time>
      </trkpt>
      <trkpt lat="48.42519" lon="-4.56059">
        <ele>92.524</ele>
        <time>2010-08-16T13:24:24Z</time>
      </trkpt>
      <trkpt lat="48.42512" lon="-4.56057">
        <ele>91.727</ele>
        <time>2010-08-16T13:24:33Z</time>
      </trkpt>
      <trkpt lat="48.42458" lon="-4.56049">
        <ele>91.249</ele>
        <time>2010-08-16T13:24:40Z</time>
      </trkpt>
      <trkpt lat="48.42434" lon="-4.56077">
        <ele>89.303</ele>
        <time>2010-08-16T13:24:45Z</time>
      </trkpt>
      <trkpt lat="48.42389" lon="-4.562">
        <ele>86.692</ele>
        <time>2010-08-16T13:24:59Z</time>
      </trkpt>
      <trkpt lat="48.42361" lon="-4.56274">
        <ele>85.711</ele>
        <time>2010-08-16T13:25:07Z</time>
      </trkpt>
      <trkpt lat="48.4234" lon="-4.563">
        <ele>86.2</ele>
        <time>2010-08-16T13:25:13Z</time>
      </trkpt>
      <trkpt lat="48.4234" lon="-4.56289">
        <ele>86.301</ele>
        <time>2010-08-16T13:25:15Z</time>
      </trkpt>
      <trkpt lat="48.42269" lon="-4.56188">
        <ele>86.593</ele>
        <time>2010-08-16T13:25:31Z</time>
      </trkpt>
      <trkpt lat="48.42188" lon="-4.56119">
        <ele>86.346</ele>
        <time>2010-08-16T13:25:46Z</time>
      </trkpt>
      <trkpt lat="48.42161" lon="-4.56095">
        <ele>87.703</ele>
        <time>2010-08-16T13:25:51Z</time>
      </trkpt>
      <trkpt lat="48.4214" lon="-4.56049">
        <ele>88.088</ele>
        <time>2010-08-16T13:25:57Z</time>
      </trkpt>
      <trkpt lat="48.42117" lon="-4.55954">
        <ele>89.432</ele>
        <time>2010-08-16T13:26:08Z</time>
      </trkpt>
      <trkpt lat="48.42106" lon="-4.55876">
        <ele>90.478</ele>
        <time>2010-08-16T13:26:20Z</time>
      </trkpt>
      <trkpt lat="48.42105" lon="-4.55868">
        <ele>89.856</ele>
        <time>2010-08-16T13:26:40Z</time>
      </trkpt>
      <trkpt lat="48.42096" lon="-4.55854">
        <ele>88.736</ele>
        <time>2010-08-16T13:26:44Z</time>
      </trkpt>
      <trkpt lat="48.42066" lon="-4.55867">
        <ele>87.745</ele>
        <time>2010-08-16T13:26:51Z</time>
      </trkpt>
      <trkpt lat="48.41988" lon="-4.55898">
        <ele>86.932</ele>
        <time>2010-08-16T13:27:05Z</time>
      </trkpt>
      <trkpt lat="48.4193" lon="-4.55918">
        <ele>84.531</ele>
        <time>2010-08-16T13:27:12Z</time>
      </trkpt>
      <trkpt lat="48.4188" lon="-4.55979">
        <ele>80.737</ele>
        <time>2010-08-16T13:27:19Z</time>
      </trkpt>
      <trkpt lat="48.41873" lon="-4.55972">
        <ele>80.695</ele>
        <time>2010-08-16T13:27:20Z</time>
      </trkpt>
      <trkpt lat="48.41859" lon="-4.55961">
        <ele>80.044</ele>
        <time>2010-08-16T13:27:22Z</time>
      </trkpt>
      <trkpt lat="48.41813" lon="-4.55936">
        <ele>75.324</ele>
        <time>2010-08-16T13:27:27Z</time>
      </trkpt>
      <trkpt lat="48.41789" lon="-4.55933">
        <ele>71.489</ele>
        <time>2010-08-16T13:27:29Z</time>
      </trkpt>
      <trkpt lat="48.41782" lon="-4.55933">
        <ele>71.255</ele>
        <time>2010-08-16T13:27:30Z</time>
      </trkpt>
      <trkpt lat="48.41782" lon="-4.55933">
        <ele>69.612</ele>
        <time>2010-08-16T13:27:32Z</time>
      </trkpt>
      <trkpt lat="48.41675" lon="-4.55924">
        <ele>68.967</ele>
        <time>2010-08-16T13:27:39Z</time>
      </trkpt>
      <trkpt lat="48.416" lon="-4.55952">
        <ele>70.6</ele>
        <time>2010-08-16T13:27:47Z</time>
      </trkpt>
      <trkpt lat="48.41528" lon="-4.55975">
        <ele>72.762</ele>
        <time>2010-08-16T13:27:56Z</time>
      </trkpt>
      <trkpt lat="48.41508" lon="-4.5598">
        <ele>74.161</ele>
        <time>2010-08-16T13:27:59Z</time>
      </trkpt>
      <trkpt lat="48.41445" lon="-4.55999">
        <ele>77.344</ele>
        <time>2010-08-16T13:28:10Z</time>
      </trkpt>
      <trkpt lat="48.41382" lon="-4.56027">
        <ele>80.47</ele>
        <time>2010-08-16T13:28:23Z</time>
      </trkpt>
      <trkpt lat="48.41303" lon="-4.56062">
        <ele>83.073</ele>
        <time>2010-08-16T13:28:43Z</time>
      </trkpt>
      <trkpt lat="48.4124" lon="-4.56068">
        <ele>81.763</ele>
        <time>2010-08-16T13:28:59Z</time>
      </trkpt>
      <trkpt lat="48.41216" lon="-4.56055">
        <ele>80.559</ele>
        <time>2010-08-16T13:29:04Z</time>
      </trkpt>
      <trkpt lat="48.41177" lon="-4.56059">
        <ele>77.893</ele>
        <time>2010-08-16T13:29:10Z</time>
      </trkpt>
      <trkpt lat="48.41164" lon="-4.56066">
        <ele>76.918</ele>
        <time>2010-08-16T13:29:12Z</time>
      </trkpt>
      <trkpt lat="48.41123" lon="-4.56069">
        <ele>74.11</ele>
        <time>2010-08-16T13:29:17Z</time>
      </trkpt>
      <trkpt lat="48.41078" lon="-4.56083">
        <ele>70.519</ele>
        <time>2010-08-16T13:29:22Z</time>
      </trkpt>
      <trkpt lat="48.4107" lon="-4.56091">
        <ele>70.606</ele>
        <time>2010-08-16T13:29:23Z</time>
      </trkpt>
      <trkpt lat="48.41019" lon="-4.56135">
        <ele>67.602</ele>
        <time>2010-08-16T13:29:29Z</time>
      </trkpt>
      <trkpt lat="48.40956" lon="-4.56188">
        <ele>64.594</ele>
        <time>2010-08-16T13:29:36Z</time>
      </trkpt>
      <trkpt lat="48.40837" lon="-4.56297">
        <ele>62.948</ele>
        <time>2010-08-16T13:29:51Z</time>
      </trkpt>
      <trkpt lat="48.4068" lon="-4.56441">
        <ele>64.884</ele>
        <time>2010-08-16T13:30:13Z</time>
      </trkpt>
      <trkpt lat="48.40556" lon="-4.56571">
        <ele>66.474</ele>
        <time>2010-08-16T13:30:34Z</time>
      </trkpt>
      <trkpt lat="48.40534" lon="-4.56606">
        <ele>65.461</ele>
        <time>2010-08-16T13:30:39Z</time>
      </trkpt>
      <trkpt lat="48.40471" lon="-4.56659">
        <ele>62.092</ele>
        <time>2010-08-16T13:30:49Z</time>
      </trkpt>
      <trkpt lat="48.40448" lon="-4.56674">
        <ele>60.763</ele>
        <time>2010-08-16T13:30:52Z</time>
      </trkpt>
      <trkpt lat="48.40368" lon="-4.56718">
        <ele>57.412</ele>
        <time>2010-08-16T13:31:01Z</time>
      </trkpt>
      <trkpt lat="48.40276" lon="-4.56798">
        <ele>54.214</ele>
        <time>2010-08-16T13:31:12Z</time>
      </trkpt>
      <trkpt lat="48.40214" lon="-4.56865">
        <ele>51.151</ele>
        <time>2010-08-16T13:31:20Z</time>
      </trkpt>
      <trkpt lat="48.40106" lon="-4.56969">
        <ele>48.078</ele>
        <time>2010-08-16T13:31:34Z</time>
      </trkpt>
      <trkpt lat="48.40019" lon="-4.57038">
        <ele>47.054</ele>
        <time>2010-08-16T13:31:48Z</time>
      </trkpt>
      <trkpt lat="48.39903" lon="-4.57107">
        <ele>45.396</ele>
        <time>2010-08-16T13:32:07Z</time>
      </trkpt>
      <trkpt lat="48.39867" lon="-4.57127">
        <ele>44.866</ele>
        <time>2010-08-16T13:32:13Z</time>
      </trkpt>
      <trkpt lat="48.39775" lon="-4.5717">
        <ele>43.238</ele>
        <time>2010-08-16T13:32:28Z</time>
      </trkpt>
      <trkpt lat="48.39654" lon="-4.57208">
        <ele>43.963</ele>
        <time>2010-08-16T13:32:48Z</time>
      </trkpt>
      <trkpt lat="48.39531" lon="-4.57227">
        <ele>44.211</ele>
        <time>2010-08-16T13:33:08Z</time>
      </trkpt>
      <trkpt lat="48.39424" lon="-4.57288">
        <ele>44.853</ele>
        <time>2010-08-16T13:33:26Z</time>
      </trkpt>
      <trkpt lat="48.39328" lon="-4.57332">
        <ele>45.616</ele>
        <time>2010-08-16T13:33:42Z</time>
      </trkpt>
      <trkpt lat="48.39203" lon="-4.57358">
        <ele>45.886</ele>
        <time>2010-08-16T13:34:02Z</time>
      </trkpt>
      <trkpt lat="48.3907" lon="-4.57385">
        <ele>47.829</ele>
        <time>2010-08-16T13:34:23Z</time>
      </trkpt>
      <trkpt lat="48.38926" lon="-4.57426">
        <ele>48.831</ele>
        <time>2010-08-16T13:34:46Z</time>
      </trkpt>
      <trkpt lat="48.38797" lon="-4.57477">
        <ele>50.187</ele>
        <time>2010-08-16T13:35:07Z</time>
      </trkpt>
      <trkpt lat="48.3867" lon="-4.57527">
        <ele>51.944</ele>
        <time>2010-08-16T13:35:28Z</time>
      </trkpt>
      <trkpt lat="48.38504" lon="-4.57591">
        <ele>54.72</ele>
        <time>2010-08-16T13:35:55Z</time>
      </trkpt>
      <trkpt lat="48.3845" lon="-4.57608">
        <ele>55.873</ele>
        <time>2010-08-16T13:36:04Z</time>
      </trkpt>
      <trkpt lat="48.3835" lon="-4.57609">
        <ele>57.588</ele>
        <time>2010-08-16T13:36:20Z</time>
      </trkpt>
      <trkpt lat="48.38248" lon="-4.57592">
        <ele>59.728</ele>
        <time>2010-08-16T13:36:37Z</time>
      </trkpt>
      <trkpt lat="48.38194" lon="-4.57589">
        <ele>62.876</ele>
        <time>2010-08-16T13:36:49Z</time>
      </trkpt>
      <trkpt lat="48.38148" lon="-4.57595">
        <ele>66.23</ele>
        <time>2010-08-16T13:37:03Z</time>
      </trkpt>
      <trkpt lat="48.38111" lon="-4.57607">
        <ele>69.289</ele>
        <time>2010-08-16T13:37:16Z</time>
      </trkpt>
      <trkpt lat="48.38056" lon="-4.57629">
        <ele>72.391</ele>
        <time>2010-08-16T13:37:35Z</time>
      </trkpt>
      <trkpt lat="48.37982" lon="-4.57662">
        <ele>74.217</ele>
        <time>2010-08-16T13:37:58Z</time>
      </trkpt>
      <trkpt lat="48.37917" lon="-4.57703">
        <ele>74.306</ele>
        <time>2010-08-16T13:38:15Z</time>
      </trkpt>
      <trkpt lat="48.37845" lon="-4.57786">
        <ele>76.486</ele>
        <time>2010-08-16T13:38:35Z</time>
      </trkpt>
      <trkpt lat="48.37796" lon="-4.57843">
        <ele>79.521</ele>
        <time>2010-08-16T13:38:51Z</time>
      </trkpt>
      <trkpt lat="48.37757" lon="-4.57887">
        <ele>82.501</ele>
        <time>2010-08-16T13:39:05Z</time>
      </trkpt>
      <trkpt lat="48.37734" lon="-4.57914">
        <ele>85.325</ele>
        <time>2010-08-16T13:39:15Z</time>
      </trkpt>
      <trkpt lat="48.37718" lon="-4.57933">
        <ele>87.7</ele>
        <time>2010-08-16T13:39:27Z</time>
      </trkpt>
      <trkpt lat="48.37658" lon="-4.57973">
        <ele>90.267</ele>
        <time>2010-08-16T13:39:47Z</time>
      </trkpt>
      <trkpt lat="48.37604" lon="-4.57998">
        <ele>91.444</ele>
        <time>2010-08-16T13:40:05Z</time>
      </trkpt>
      <trkpt lat="48.37577" lon="-4.5801">
        <ele>91.545</ele>
        <time>2010-08-16T13:40:13Z</time>
      </trkpt>
      <trkpt lat="48.37558" lon="-4.58018">
        <ele>91.57</ele>
        <time>2010-08-16T13:40:18Z</time>
      </trkpt>
      <trkpt lat="48.37545" lon="-4.57994">
        <ele>92.116</ele>
        <time>2010-08-16T13:40:23Z</time>
      </trkpt>
      <trkpt lat="48.37504" lon="-4.57932">
        <ele>91.825</ele>
        <time>2010-08-16T13:40:37Z</time>
      </trkpt>
      <trkpt lat="48.37465" lon="-4.57888">
        <ele>91.361</ele>
        <time>2010-08-16T13:40:49Z</time>
      </trkpt>
      <trkpt lat="48.37464" lon="-4.57856">
        <ele>91.412</ele>
        <time>2010-08-16T13:40:53Z</time>
      </trkpt>
      <trkpt lat="48.37501" lon="-4.57728">
        <ele>91.9</ele>
        <time>2010-08-16T13:41:10Z</time>
      </trkpt>
      <trkpt lat="48.37538" lon="-4.57604">
        <ele>92.289</ele>
        <time>2010-08-16T13:41:27Z</time>
      </trkpt>
      <trkpt lat="48.37562" lon="-4.57505">
        <ele>91.202</ele>
        <time>2010-08-16T13:41:39Z</time>
      </trkpt>
      <trkpt lat="48.37549" lon="-4.57455">
        <ele>90.789</ele>
        <time>2010-08-16T13:41:46Z</time>
      </trkpt>
      <trkpt lat="48.37453" lon="-4.57402">
        <ele>87.375</ele>
        <time>2010-08-16T13:42:03Z</time>
      </trkpt>
      <trkpt lat="48.3743" lon="-4.5739">
        <ele>85.325</ele>
        <time>2010-08-16T13:42:07Z</time>
      </trkpt>
      <trkpt lat="48.37404" lon="-4.57374">
        <ele>82.749</ele>
        <time>2010-08-16T13:42:12Z</time>
      </trkpt>
      <trkpt lat="48.37383" lon="-4.57364">
        <ele>80.477</ele>
        <time>2010-08-16T13:42:17Z</time>
      </trkpt>
      <trkpt lat="48.37382" lon="-4.57312">
        <ele>79.577</ele>
        <time>2010-08-16T13:42:20Z</time>
      </trkpt>
      <trkpt lat="48.37393" lon="-4.57149">
        <ele>81.068</ele>
        <time>2010-08-16T13:42:37Z</time>
      </trkpt>
      <trkpt lat="48.37398" lon="-4.57069">
        <ele>84.287</ele>
        <time>2010-08-16T13:42:47Z</time>
      </trkpt>
      <trkpt lat="48.37404" lon="-4.56947">
        <ele>85.043</ele>
        <time>2010-08-16T13:43:02Z</time>
      </trkpt>
      <trkpt lat="48.37401" lon="-4.56846">
        <ele>85.597</ele>
        <time>2010-08-16T13:43:17Z</time>
      </trkpt>
      <trkpt lat="48.37404" lon="-4.5681">
        <ele>85.826</ele>
        <time>2010-08-16T13:43:25Z</time>
      </trkpt>
      <trkpt lat="48.37417" lon="-4.56695">
        <ele>86.287</ele>
        <time>2010-08-16T13:43:39Z</time>
      </trkpt>
      <trkpt lat="48.37443" lon="-4.56573">
        <ele>88.165</ele>
        <time>2010-08-16T13:43:55Z</time>
      </trkpt>
      <trkpt lat="48.37458" lon="-4.56474">
        <ele>87.984</ele>
        <time>2010-08-16T13:44:08Z</time>
      </trkpt>
      <trkpt lat="48.3746" lon="-4.5646">
        <ele>87.641</ele>
        <time>2010-08-16T13:44:10Z</time>
      </trkpt>
      <trkpt lat="48.37484" lon="-4.56454">
        <ele>87.692</ele>
        <time>2010-08-16T13:44:15Z</time>
      </trkpt>
      <trkpt lat="48.37493" lon="-4.56457">
        <ele>87.835</ele>
        <time>2010-08-16T13:44:17Z</time>
      </trkpt>
      <trkpt lat="48.37514" lon="-4.56461">
        <ele>89.056</ele>
        <time>2010-08-16T13:44:21Z</time>
      </trkpt>
      <trkpt lat="48.37556" lon="-4.56433">
        <ele>89.017</ele>
        <time>2010-08-16T13:44:29Z</time>
      </trkpt>
      <trkpt lat="48.37608" lon="-4.56301">
        <ele>86.812</ele>
        <time>2010-08-16T13:44:45Z</time>
      </trkpt>
      <trkpt lat="48.37618" lon="-4.56274">
        <ele>86.446</ele>
        <time>2010-08-16T13:44:48Z</time>
      </trkpt>
      <trkpt lat="48.37643" lon="-4.56198">
        <ele>85.074</ele>
        <time>2010-08-16T13:44:56Z</time>
      </trkpt>
      <trkpt lat="48.37673" lon="-4.56054">
        <ele>81.697</ele>
        <time>2010-08-16T13:45:09Z</time>
      </trkpt>
      <trkpt lat="48.37679" lon="-4.56023">
        <ele>80.281</ele>
        <time>2010-08-16T13:45:12Z</time>
      </trkpt>
      <trkpt lat="48.37688" lon="-4.55962">
        <ele>80.685</ele>
        <time>2010-08-16T13:45:17Z</time>
      </trkpt>
      <trkpt lat="48.37697" lon="-4.5587">
        <ele>84.054</ele>
        <time>2010-08-16T13:45:27Z</time>
      </trkpt>
      <trkpt lat="48.37697" lon="-4.55854">
        <ele>84.805</ele>
        <time>2010-08-16T13:45:29Z</time>
      </trkpt>
      <trkpt lat="48.37684" lon="-4.5578">
        <ele>85.917</ele>
        <time>2010-08-16T13:45:38Z</time>
      </trkpt>
      <trkpt lat="48.37679" lon="-4.55751">
        <ele>85.923</ele>
        <time>2010-08-16T13:45:41Z</time>
      </trkpt>
      <trkpt lat="48.37709" lon="-4.55688">
        <ele>85.513</ele>
        <time>2010-08-16T13:45:51Z</time>
      </trkpt>
      <trkpt lat="48.37714" lon="-4.55685">
        <ele>85.543</ele>
        <time>2010-08-16T13:45:52Z</time>
      </trkpt>
      <trkpt lat="48.3773" lon="-4.55675">
        <ele>85.778</ele>
        <time>2010-08-16T13:45:55Z</time>
      </trkpt>
      <trkpt lat="48.37741" lon="-4.55639">
        <ele>85.313</ele>
        <time>2010-08-16T13:46:01Z</time>
      </trkpt>
      <trkpt lat="48.37777" lon="-4.5547">
        <ele>84.414</ele>
        <time>2010-08-16T13:46:20Z</time>
      </trkpt>
      <trkpt lat="48.37783" lon="-4.55454">
        <ele>84.34</ele>
        <time>2010-08-16T13:46:22Z</time>
      </trkpt>
      <trkpt lat="48.37832" lon="-4.55312">
        <ele>82.259</ele>
        <time>2010-08-16T13:46:38Z</time>
      </trkpt>
      <trkpt lat="48.37876" lon="-4.55194">
        <ele>81.187</ele>
        <time>2010-08-16T13:46:52Z</time>
      </trkpt>
      <trkpt lat="48.37918" lon="-4.55119">
        <ele>78.065</ele>
        <time>2010-08-16T13:47:01Z</time>
      </trkpt>
      <trkpt lat="48.37927" lon="-4.55102">
        <ele>77.447</ele>
        <time>2010-08-16T13:47:03Z</time>
      </trkpt>
      <trkpt lat="48.38006" lon="-4.54942">
        <ele>77.625</ele>
        <time>2010-08-16T13:47:21Z</time>
      </trkpt>
      <trkpt lat="48.38049" lon="-4.54849">
        <ele>79.183</ele>
        <time>2010-08-16T13:47:34Z</time>
      </trkpt>
      <trkpt lat="48.38069" lon="-4.5481">
        <ele>81.051</ele>
        <time>2010-08-16T13:47:40Z</time>
      </trkpt>
      <trkpt lat="48.3806" lon="-4.54775">
        <ele>81.599</ele>
        <time>2010-08-16T13:47:47Z</time>
      </trkpt>
      <trkpt lat="48.37998" lon="-4.54726">
        <ele>84.092</ele>
        <time>2010-08-16T13:48:02Z</time>
      </trkpt>
      <trkpt lat="48.37961" lon="-4.54701">
        <ele>86.072</ele>
        <time>2010-08-16T13:48:13Z</time>
      </trkpt>
      <trkpt lat="48.37935" lon="-4.54676">
        <ele>86.953</ele>
        <time>2010-08-16T13:48:22Z</time>
      </trkpt>
      <trkpt lat="48.37881" lon="-4.54604">
        <ele>87.909</ele>
        <time>2010-08-16T13:48:41Z</time>
      </trkpt>
      <trkpt lat="48.37836" lon="-4.54564">
        <ele>87.345</ele>
        <time>2010-08-16T13:48:55Z</time>
      </trkpt>
      <trkpt lat="48.37834" lon="-4.54544">
        <ele>86.574</ele>
        <time>2010-08-16T13:48:59Z</time>
      </trkpt>
      <trkpt lat="48.378" lon="-4.54534">
        <ele>86.434</ele>
        <time>2010-08-16T13:49:04Z</time>
      </trkpt>
      <trkpt lat="48.37795" lon="-4.54457">
        <ele>88.69</ele>
        <time>2010-08-16T13:49:13Z</time>
      </trkpt>
      <trkpt lat="48.37818" lon="-4.54445">
        <ele>88.453</ele>
        <time>2010-08-16T13:49:18Z</time>
      </trkpt>
      <trkpt lat="48.37829" lon="-4.54444">
        <ele>88.268</ele>
        <time>2010-08-16T13:49:20Z</time>
      </trkpt>
      <trkpt lat="48.37885" lon="-4.54384">
        <ele>89.984</ele>
        <time>2010-08-16T13:49:32Z</time>
      </trkpt>
      <trkpt lat="48.37903" lon="-4.54375">
        <ele>91.559</ele>
        <time>2010-08-16T13:49:44Z</time>
      </trkpt>
      <trkpt lat="48.3793" lon="-4.54341">
        <ele>90.941</ele>
        <time>2010-08-16T13:50:10Z</time>
      </trkpt>
      <trkpt lat="48.37937" lon="-4.54332">
        <ele>90.826</ele>
        <time>2010-08-16T13:50:12Z</time>
      </trkpt>
      <trkpt lat="48.37998" lon="-4.54255">
        <ele>91.483</ele>
        <time>2010-08-16T13:50:26Z</time>
      </trkpt>
      <trkpt lat="48.38099" lon="-4.54127">
        <ele>92.467</ele>
        <time>2010-08-16T13:50:47Z</time>
      </trkpt>
      <trkpt lat="48.38175" lon="-4.54031">
        <ele>93.641</ele>
        <time>2010-08-16T13:51:04Z</time>
      </trkpt>
      <trkpt lat="48.38186" lon="-4.54018">
        <ele>93.425</ele>
        <time>2010-08-16T13:51:07Z</time>
      </trkpt>
      <trkpt lat="48.38197" lon="-4.54004">
        <ele>94.241</ele>
        <time>2010-08-16T13:51:11Z</time>
      </trkpt>
      <trkpt lat="48.38209" lon="-4.53987">
        <ele>95.239</ele>
        <time>2010-08-16T13:51:22Z</time>
      </trkpt>
      <trkpt lat="48.38209" lon="-4.53987">
        <ele>95.188</ele>
        <time>2010-08-16T13:51:24Z</time>
      </trkpt>
      <trkpt lat="48.38215" lon="-4.53977">
        <ele>95.079</ele>
        <time>2010-08-16T13:51:28Z</time>
      </trkpt>
      <trkpt lat="48.38251" lon="-4.53917">
        <ele>94.197</ele>
        <time>2010-08-16T13:51:41Z</time>
      </trkpt>
      <trkpt lat="48.38283" lon="-4.53863">
        <ele>93.897</ele>
        <time>2010-08-16T13:51:50Z</time>
      </trkpt>
      <trkpt lat="48.38293" lon="-4.53818">
        <ele>94.186</ele>
        <time>2010-08-16T13:51:56Z</time>
      </trkpt>
      <trkpt lat="48.38293" lon="-4.53784">
        <ele>94.783</ele>
        <time>2010-08-16T13:52:00Z</time>
      </trkpt>
      <trkpt lat="48.3831" lon="-4.53662">
        <ele>95.593</ele>
        <time>2010-08-16T13:52:17Z</time>
      </trkpt>
      <trkpt lat="48.38311" lon="-4.53655">
        <ele>95.936</ele>
        <time>2010-08-16T13:52:28Z</time>
      </trkpt>
      <trkpt lat="48.38314" lon="-4.53637">
        <ele>95.41</ele>
        <time>2010-08-16T13:53:04Z</time>
      </trkpt>
      <trkpt lat="48.38315" lon="-4.53625">
        <ele>94.864</ele>
        <time>2010-08-16T13:53:06Z</time>
      </trkpt>
      <trkpt lat="48.38318" lon="-4.53604">
        <ele>94.52</ele>
        <time>2010-08-16T13:53:09Z</time>
      </trkpt>
      <trkpt lat="48.38323" lon="-4.53455">
        <ele>95.04</ele>
        <time>2010-08-16T13:53:25Z</time>
      </trkpt>
      <trkpt lat="48.38323" lon="-4.53266">
        <ele>95.124</ele>
        <time>2010-08-16T13:53:46Z</time>
      </trkpt>
      <trkpt lat="48.38323" lon="-4.53148">
        <ele>94.539</ele>
        <time>2010-08-16T13:53:59Z</time>
      </trkpt>
      <trkpt lat="48.38304" lon="-4.53115">
        <ele>94.343</ele>
        <time>2010-08-16T13:54:04Z</time>
      </trkpt>
      <trkpt lat="48.38302" lon="-4.53079">
        <ele>96.105</ele>
        <time>2010-08-16T13:54:09Z</time>
      </trkpt>
      <trkpt lat="48.38305" lon="-4.52941">
        <ele>97.567</ele>
        <time>2010-08-16T13:54:28Z</time>
      </trkpt>
      <trkpt lat="48.38309" lon="-4.52781">
        <ele>96.866</ele>
        <time>2010-08-16T13:54:49Z</time>
      </trkpt>
      <trkpt lat="48.3831" lon="-4.52769">
        <ele>96.61</ele>
        <time>2010-08-16T13:54:51Z</time>
      </trkpt>
      <trkpt lat="48.3832" lon="-4.52647">
        <ele>94.024</ele>
        <time>2010-08-16T13:55:03Z</time>
      </trkpt>
      <trkpt lat="48.38323" lon="-4.52623">
        <ele>93.6</ele>
        <time>2010-08-16T13:55:05Z</time>
      </trkpt>
      <trkpt lat="48.38332" lon="-4.52525">
        <ele>90.525</ele>
        <time>2010-08-16T13:55:13Z</time>
      </trkpt>
      <trkpt lat="48.38336" lon="-4.52488">
        <ele>89.261</ele>
        <time>2010-08-16T13:55:16Z</time>
      </trkpt>
      <trkpt lat="48.38357" lon="-4.524">
        <ele>87.191</ele>
        <time>2010-08-16T13:55:24Z</time>
      </trkpt>
      <trkpt lat="48.38335" lon="-4.52369">
        <ele>86.033</ele>
        <time>2010-08-16T13:55:30Z</time>
      </trkpt>
      <trkpt lat="48.38333" lon="-4.52337">
        <ele>86.727</ele>
        <time>2010-08-16T13:55:35Z</time>
      </trkpt>
      <trkpt lat="48.38336" lon="-4.52325">
        <ele>87.636</ele>
        <time>2010-08-16T13:55:37Z</time>
      </trkpt>
      <trkpt lat="48.38353" lon="-4.52241">
        <ele>88.992</ele>
        <time>2010-08-16T13:55:50Z</time>
      </trkpt>
      <trkpt lat="48.38357" lon="-4.5222">
        <ele>90.227</ele>
        <time>2010-08-16T13:55:53Z</time>
      </trkpt>
      <trkpt lat="48.38379" lon="-4.52106">
        <ele>89.984</ele>
        <time>2010-08-16T13:56:09Z</time>
      </trkpt>
      <trkpt lat="48.38398" lon="-4.52008">
        <ele>89.972</ele>
        <time>2010-08-16T13:56:22Z</time>
      </trkpt>
      <trkpt lat="48.38403" lon="-4.51979">
        <ele>89.23</ele>
        <time>2010-08-16T13:56:26Z</time>
      </trkpt>
      <trkpt lat="48.3839" lon="-4.51971">
        <ele>88.181</ele>
        <time>2010-08-16T13:56:31Z</time>
      </trkpt>
      <trkpt lat="48.38333" lon="-4.51985">
        <ele>84.923</ele>
        <time>2010-08-16T13:56:41Z</time>
      </trkpt>
      <trkpt lat="48.38307" lon="-4.51992">
        <ele>82.782</ele>
        <time>2010-08-16T13:56:48Z</time>
      </trkpt>
      <trkpt lat="48.38305" lon="-4.51937">
        <ele>82.735</ele>
        <time>2010-08-16T13:56:52Z</time>
      </trkpt>
      <trkpt lat="48.38271" lon="-4.5193">
        <ele>81.815</ele>
        <time>2010-08-16T13:56:58Z</time>
      </trkpt>
      <trkpt lat="48.3824" lon="-4.51938">
        <ele>80.971</ele>
        <time>2010-08-16T13:57:04Z</time>
      </trkpt>
      <trkpt lat="48.38225" lon="-4.51942">
        <ele>79.998</ele>
        <time>2010-08-16T13:57:07Z</time>
      </trkpt>
      <trkpt lat="48.38216" lon="-4.51945">
        <ele>79.309</ele>
        <time>2010-08-16T13:57:09Z</time>
      </trkpt>
      <trkpt lat="48.38208" lon="-4.51929">
        <ele>77.84</ele>
        <time>2010-08-16T13:57:12Z</time>
      </trkpt>
      <trkpt lat="48.38206" lon="-4.51921">
        <ele>77.087</ele>
        <time>2010-08-16T13:57:13Z</time>
      </trkpt>
      <trkpt lat="48.38194" lon="-4.51868">
        <ele>73.808</ele>
        <time>2010-08-16T13:57:18Z</time>
      </trkpt>
      <trkpt lat="48.38178" lon="-4.51802">
        <ele>70.751</ele>
        <time>2010-08-16T13:57:24Z</time>
      </trkpt>
      <trkpt lat="48.38162" lon="-4.5173">
        <ele>67.481</ele>
        <time>2010-08-16T13:57:31Z</time>
      </trkpt>
      <trkpt lat="48.38145" lon="-4.51612">
        <ele>67.204</ele>
        <time>2010-08-16T13:57:44Z</time>
      </trkpt>
      <trkpt lat="48.38142" lon="-4.51592">
        <ele>66.426</ele>
        <time>2010-08-16T13:57:46Z</time>
      </trkpt>
      <trkpt lat="48.38134" lon="-4.5141">
        <ele>62.955</ele>
        <time>2010-08-16T13:58:02Z</time>
      </trkpt>
      <trkpt lat="48.38134" lon="-4.51396">
        <ele>62.737</ele>
        <time>2010-08-16T13:58:03Z</time>
      </trkpt>
      <trkpt lat="48.38134" lon="-4.51342">
        <ele>59.899</ele>
        <time>2010-08-16T13:58:07Z</time>
      </trkpt>
      <trkpt lat="48.38139" lon="-4.51213">
        <ele>59.151</ele>
        <time>2010-08-16T13:58:17Z</time>
      </trkpt>
      <trkpt lat="48.38139" lon="-4.51121">
        <ele>62.155</ele>
        <time>2010-08-16T13:58:25Z</time>
      </trkpt>
      <trkpt lat="48.38137" lon="-4.51101">
        <ele>62.61</ele>
        <time>2010-08-16T13:58:27Z</time>
      </trkpt>
      <trkpt lat="48.38134" lon="-4.51079">
        <ele>62.858</ele>
        <time>2010-08-16T13:58:31Z</time>
      </trkpt>
      <trkpt lat="48.38125" lon="-4.51028">
        <ele>63.102</ele>
        <time>2010-08-16T13:58:36Z</time>
      </trkpt>
      <trkpt lat="48.38122" lon="-4.5099">
        <ele>62.489</ele>
        <time>2010-08-16T13:58:41Z</time>
      </trkpt>
      <trkpt lat="48.38128" lon="-4.5096">
        <ele>61.673</ele>
        <time>2010-08-16T13:58:45Z</time>
      </trkpt>
      <trkpt lat="48.38132" lon="-4.50947">
        <ele>61.527</ele>
        <time>2010-08-16T13:58:47Z</time>
      </trkpt>
      <trkpt lat="48.38165" lon="-4.509">
        <ele>61.854</ele>
        <time>2010-08-16T13:58:55Z</time>
      </trkpt>
      <trkpt lat="48.38221" lon="-4.50868">
        <ele>61.857</ele>
        <time>2010-08-16T13:59:07Z</time>
      </trkpt>
      <trkpt lat="48.38277" lon="-4.50862">
        <ele>60.916</ele>
        <time>2010-08-16T13:59:21Z</time>
      </trkpt>
    </trkseg>
  </trk>
  <trk>
    <name><![CDATA[ACTIVE LOG155926]]></name>
    <trkseg>
      <trkpt lat="48.38281" lon="-4.50861">
        <ele>59.927</ele>
        <time>2010-08-16T13:59:26Z</time>
      </trkpt>
      <trkpt lat="48.38281" lon="-4.50861">
        <ele>62.454</ele>
        <time>2010-08-16T13:59:27Z</time>
      </trkpt>
    </trkseg>
  </trk>
  <trk>
    <name><![CDATA[ACTIVE LOG164330]]></name>
    <trkseg>
      <trkpt lat="48.38282" lon="-4.50855">
        <ele>15.859</ele>
        <time>2010-08-16T14:43:30Z</time>
      </trkpt>
      <trkpt lat="48.38282" lon="-4.50855">
        <ele>14.802</ele>
        <time>2010-08-16T14:43:43Z</time>
      </trkpt>
    </trkseg>
  </trk>
</gpx>